[[{"header":{"parameterUnit":"m.s-1","parameterCategory":1,"la1":31.0,"la2":29.5877,"lo1":-88.7671,"lo2":-86.6584,"dy":0.0162,"dx":0.0185,"nx":115,"ny":88,"refTime":"2023-09-16T06:00:00:Z","depth":0,"parameterNumber":2,"parameterNumberName":"U-component_of_WINDS"},"data":[0.0,0.0,0.0,0.0,0.0,0.0,0.0,0.0,0.0,0.0,0.0,0.0,0.0,0.0,0.0,0.0,0.0,0.0,0.0,0.0,0.0,0.0,0.0,0.0,0.0,0.0,0.0,0.0,0.0,0.0,0.0,0.0,0.0,0.0,0.0,0.0,0.0,0.0,0.0,0.0,0.0,0.0,0.0,0.0,0.0,0.0,0.0,0.0,0.0,0.0,0.0,0.0,0.0,0.0,0.0,0.0,0.0,0.0,0.0,0.0,0.0,0.0,0.0,0.0,0.0,0.0,0.0,0.0,0.0,0.0,0.0,0.0,0.0,0.0,0.0,0.0,0.0,0.0,0.0,0.0,0.0,0.0,0.0,0.0,0.0,0.0,0.0,0.0,0.0,0.0,0.0,0.0,0.0,0.0,0.0,0.0,0.0,0.0,0.0,0.0,0.0,0.0,0.0,0.0,0.0,0.0,0.0,0.0,0.0,0.0,0.0,0.0,0.0,0.0,0.0,0.0,0.0,0.0,0.0,0.0,0.0,0.0,0.0,0.0,0.0,0.0,0.0,0.0,0.0,0.0,0.0,0.0,0.0,0.0,0.0,0.0,0.0,0.0,0.0,0.0,0.0,0.0,0.0,0.0,0.0,0.0,0.0,0.0,0.0,0.0,0.0,0.0,0.0,0.0,0.0,0.0,0.0,0.0,0.0,0.0,0.0,0.0,0.0,0.0,0.0,0.0,0.0,0.0,0.0,0.0,0.0,0.0,0.0,0.0,0.0,0.0,0.0,0.0,0.0,0.0,0.0,0.0,0.0,0.0,0.0,0.0,0.0,0.0,0.0,0.0,0.0,0.0,0.0,0.0,0.0,0.0,0.0,0.0,0.0,0.0,0.0,0.0,0.0,0.0,0.0,0.0,0.0,0.0,0.0,0.0,0.0,0.0,0.0,0.0,0.0,0.0,0.0,0.0,0.0,0.0,0.0,0.0,0.0,0.0,0.0,0.0,0.0,0.0,0.0,0.0,0.0,0.0,0.0,0.0,0.0,0.0,0.0,0.0,0.0,0.0,0.0,0.0,0.0,0.0,0.0,0.0,0.0,0.0,0.0,0.0,0.0,0.0,0.0,0.0,0.0,0.0,0.0,0.0,0.0,0.0,0.0,0.0,0.0,0.0,0.0,0.0,0.0,0.0,0.0,0.0,0.0,0.0,0.0,0.0,0.0,0.0,0.0,0.0,0.0,0.0,0.0,0.0,0.0,0.0,0.0,0.0,0.0,0.0,0.0,0.0,0.0,0.0,0.0,0.0,0.0,0.0,0.0,0.0,0.0,0.0,0.0,0.0,0.0,0.0,0.0,0.0,0.0,0.0,0.0,0.0,0.0,0.0,0.0,0.0,0.0,0.0,0.0,0.0,0.0,0.0,0.0,0.0,0.0,0.0,0.0,0.0,0.0,0.0,0.0,0.0,0.0,0.0,0.0,0.0,0.0,0.0,0.0,0.0,0.0,0.0,0.0,0.0,0.0,0.0,0.0,0.0,0.0,0.0,0.0,0.0,0.0,0.0,0.0,0.0,0.0,0.0,0.0,0.0,0.0,0.0,0.0,0.0,0.0,0.0,0.0,0.0,0.0,0.0,0.0,0.0,0.0,0.0,0.0,0.0,0.0,0.0,0.0,0.0,0.0,0.0,0.0,0.0,0.0,0.0,0.0,0.0,0.0,0.0,0.0,0.0,0.0,0.0,0.0,0.0,0.0,0.0,0.0,0.0,0.0,0.0,0.0,0.0,0.0,0.0,0.0,0.0,0.0,0.0,0.0,0.0,0.0,0.0,0.0,0.0,0.0,0.0,0.0,0.0,0.0,0.0,0.0,0.0,0.0,0.0,0.0,0.0,0.0,0.0,0.0,0.0,0.0,0.0,0.0,0.0,0.0,0.0,0.0,0.0,0.0,0.0,0.0,0.0,0.0,0.0,0.0,0.0,0.0,0.0,0.0,0.0,0.0,0.0,0.0,0.0,0.0,0.0,0.0,0.0,0.0,0.0,0.0,0.0,0.0,0.0,0.0,0.0,0.0,0.0,0.0,0.0,0.0,0.0,0.0,0.0,0.0,0.0,0.0,0.0,0.0,0.0,0.0,0.0,0.0,0.0,0.0,0.0,0.0,0.0,0.0,0.0,0.0,0.0,0.0,0.0,0.0,0.0,0.0,0.0,0.0,0.0,0.0,0.0,0.0,0.0,0.0,0.0,0.0,0.0,0.0,0.0,0.0,0.0,0.0,0.0,0.0,0.0,0.0,0.0,0.0,0.0,0.0,0.0,0.0,0.0,0.0,0.0,0.0,0.0,0.0,0.0,0.0,0.0,0.0,0.0,0.0,0.0,0.0,0.0,0.0,0.0,0.0,0.0,0.0,0.0,0.0,0.0,0.0,0.0,0.0,0.0,0.0,0.0,0.0,0.0,0.0,0.0,0.0,0.0,0.0,0.0,0.0,0.0,0.0,0.0,0.0,0.0,0.0,0.0,0.0,0.0,0.0,0.0,0.0,0.0,0.0,0.0,0.0,0.0,0.0,0.0,0.0,0.0,0.0,0.0,0.0,0.0,0.0,0.0,0.0,0.0,0.0,0.0,0.0,0.0,0.0,0.0,0.0,0.0,0.0,0.0,0.0,0.0,0.0,0.0,0.0,0.0,0.0,0.0,0.0,0.0,0.0,0.0,0.0,0.0,0.0,0.0,0.0,0.0,0.0,0.0,0.0,0.0,0.0,0.0,0.0,0.0,0.0,0.0,0.0,0.0,0.0,0.0,0.0,0.0,0.0,0.0,0.0,0.0,0.0,0.0,0.0,0.0,0.0,0.0,0.0,0.0,0.0,0.0,0.0,0.0,0.0,0.0,0.0,0.0,0.0,0.0,0.0,0.0,0.0,0.0,0.0,0.0,0.0,0.0,0.0,0.0,0.0,0.0,0.0,0.0,0.0,0.0,0.0,0.0,0.0,0.0,0.0,0.0,0.0,0.0,0.0,0.0,0.0,0.0,0.0,0.0,0.0,0.0,0.0,0.0,0.0,0.0,0.0,0.0,0.0,0.0,0.0,0.0,0.0,0.0,0.0,0.0,0.0,0.0,0.0,0.0,0.0,0.0,0.0,0.0,0.0,0.0,0.0,0.0,0.0,0.0,0.0,0.0,0.0,0.0,0.0,0.0,0.0,0.0,0.0,0.0,0.0,0.0,0.0,0.0,0.0,0.0,0.0,0.0,0.0,0.0,0.0,0.0,0.0,0.0,0.0,0.0,0.0,0.0,0.0,0.0,0.0,0.0,0.0,0.0,0.0,0.0,0.0,0.0,0.0,0.0,0.0,0.0,0.0,0.0,0.0,0.0,0.0,0.0,0.0,0.0,0.0,0.0,0.0,0.0,0.0,0.0,0.0,0.0,0.0,0.0,0.0,0.0,0.0,0.0,0.0,0.0,0.0,0.0,0.0,0.0,0.0,0.0,0.0,0.0,0.0,0.0,0.0,0.0,0.0,0.0,0.0,0.0,0.0,0.0,0.0,0.0,0.0,0.0,0.0,0.0,0.0,0.0,0.0,0.0,0.0,0.0,0.0,0.0,0.0,0.0,0.0,0.0,0.0,0.0,0.0,0.0,0.0,0.0,0.0,0.0,0.0,0.0,0.0,0.0,0.0,0.0,0.0,0.0,0.0,0.0,0.0,0.0,0.0,0.0,0.0,0.0,0.0,0.0,0.0,0.0,0.0,0.0,0.0,0.0,0.0,0.0,0.0,0.0,0.0,0.0,0.0,0.0,0.0,0.0,0.0,0.0,0.0,0.0,0.0,0.0,0.0,0.0,0.0,0.0,0.0,0.0,0.0,0.0,0.0,0.0,0.0,0.0,0.0,0.0,0.0,0.0,0.0,0.0,0.0,0.0,0.0,0.0,0.0,0.0,0.0,0.0,0.0,0.0,0.0,0.0,0.0,0.0,0.0,0.0,0.0,0.0,0.0,0.0,0.0,0.0,0.0,0.0,0.0,0.0,0.0,0.0,0.0,0.0,0.0,0.0,0.0,0.0,0.0,0.0,0.0,0.0,0.0,0.0,0.0,0.0,0.0,0.0,0.0,0.0,0.0,0.0,0.0,0.0,0.0,0.0,0.0,0.0,0.0,0.0,0.0,0.0,0.0,0.0,0.0,0.0,0.0,0.0,0.0,0.0,0.0,0.0,0.0,0.0,0.0,0.0,0.0,0.0,0.0,0.0,0.0,0.0,0.0,0.0,0.0,0.0,1.0665,0.0,0.0,0.0,0.0,0.0,0.0,0.0,0.0,0.0,0.0,0.0,0.0,0.0,0.0,0.0,0.0,0.0,0.0,0.0,0.0,0.0,0.0,0.0,0.0,0.0,0.0,0.0,0.0,0.0,0.0,0.0,0.0,0.0,0.0,0.0,0.0,0.0,0.0,0.0,0.0,0.0,0.0,0.0,0.0,0.0,0.0,0.0,0.0,0.0,0.0,0.0,0.0,0.0,0.0,0.0,0.0,0.0,0.0,0.0,0.0,0.0,0.0,0.0,0.0,0.0,0.0,0.0,0.0,0.0,0.0,0.0,0.0,0.0,0.0,0.0,0.0,0.0,0.0,0.0,0.0,0.0,0.0,0.0,0.0,0.0,0.0,0.0,0.0,0.0,0.0,0.0,0.0,0.0,0.0,0.0,0.0,0.0,0.0,0.0,0.0,0.0,0.0,0.0,0.0,0.0,0.0,0.0,0.0,0.0,0.0,0.8066,0.8647,0.8985,0.9399,0.9981,0.0,0.0,0.0,0.0,0.0,0.0,0.0,0.0,0.0,0.0,0.0,0.0,0.0,0.0,0.0,0.0,0.0,0.0,0.0,0.0,0.0,0.0,0.0,0.0,0.0,0.0,0.0,0.0,0.0,0.0,0.0,0.0,0.0,0.0,0.0,0.0,0.0,0.0,0.0,0.0,0.0,0.0,0.0,0.0,0.0,0.0,0.0,0.0,0.0,0.0,0.0,0.0,0.0,0.0,0.0,0.0,0.0,0.0,0.0,0.0,0.0,0.0,0.0,0.0,0.0,0.0,0.0,0.0,0.0,0.0,0.0,0.0,0.0,0.0,0.0,0.0,0.0,0.0,0.0,0.0,0.0,0.0,0.0,0.0,0.0,0.0,0.0,0.0,0.0,0.0,0.0,0.0,0.0,0.0,0.0,0.0,0.0,0.0,0.0,0.0,0.0,0.0,0.0,0.0,0.0,0.0,0.0,0.0,0.0,0.0,0.0,0.0,0.8457,0.8799,0.9243,0.0,0.0,0.0,0.0,0.0,0.0,0.0,0.0,0.0,0.0,0.0,0.0,0.0,0.0,0.0,0.0,0.0,0.0,0.0,0.0,0.0,0.0,0.0,0.0,0.0,0.0,0.0,0.0,0.0,0.0,0.0,0.0,0.0,0.0,0.0,0.0,0.0,0.0,0.0,0.0,0.0,0.0,0.0,0.0,0.0,0.0,0.0,0.0,0.0,0.0,0.0,0.0,0.0,0.0,0.0,0.0,0.0,0.0,0.0,0.0,0.0,0.0,0.0,0.0,0.0,0.0,0.0,0.0,0.0,0.0,0.0,0.0,0.0,0.0,0.0,0.0,0.0,0.0,0.0,0.0,0.0,0.0,0.0,0.0,0.0,0.0,0.0,0.0,0.0,0.0,0.0,0.0,0.0,0.0,0.0,0.0,0.0,0.0,0.0,0.0,0.0,0.0,0.0,0.0,0.0,0.0,0.0,0.0,0.0,0.0,0.6682,0.7296,0.7573,0.0,0.8737,0.0,0.0,0.0,0.0,0.0,0.0,0.0,0.0,0.0,0.0,0.0,0.0,0.0,0.0,0.0,0.0,0.0,0.0,0.0,0.0,0.0,0.0,0.0,0.0,0.0,0.0,0.0,0.0,0.0,0.0,0.0,0.0,0.0,0.0,0.0,0.0,0.0,0.0,0.0,0.0,0.0,0.0,0.0,0.0,0.0,0.0,0.0,0.0,0.0,0.0,0.0,0.0,0.0,0.0,0.0,0.0,0.0,0.0,0.0,0.0,0.0,0.0,0.0,0.0,0.0,0.0,0.0,0.0,0.0,0.0,0.0,0.0,0.0,0.0,0.0,0.0,0.0,0.0,0.0,0.0,0.0,0.0,0.0,0.0,0.0,0.0,0.0,0.0,0.0,0.0,0.0,0.0,0.0,0.0,0.0,0.0,0.0,0.0,0.0,0.0,0.0,0.0,0.0,0.0,0.0,0.0,0.0,0.0,0.0,0.0,0.565,0.6526,0.7116,0.7648,0.0,0.0,0.0,0.0,0.0,0.0,0.0,0.0,0.0,0.0,0.0,0.0,0.0,0.0,0.0,0.0,0.0,0.0,0.0,0.0,0.0,0.0,0.0,0.0,0.0,0.0,0.0,0.0,0.0,0.0,0.0,0.0,0.0,0.0,0.0,0.0,0.0,0.0,0.0,0.0,0.0,0.0,0.0,0.0,0.0,0.0,0.0,0.0,0.0,0.0,0.0,0.0,0.0,0.0,0.0,0.0,0.0,0.0,0.0,0.0,0.0,0.0,0.0,0.0,0.0,0.0,0.0,0.0,0.0,0.0,0.0,0.0,0.0,0.0,0.0,0.0,0.0,0.0,0.0,0.0,0.0,0.0,0.0,0.0,0.0,0.0,0.0,0.0,0.0,0.0,0.0,0.0,0.0,0.0,0.0,0.0,0.0,0.0,0.0,0.0,0.0,0.0,0.0,0.0,0.0,0.0,0.0,0.0,0.0,0.0,0.3682,0.4501,0.5573,0.6436,0.6982,0.7162,0.0,0.0,0.0,0.0,0.0,0.0,0.0,0.0,0.0,0.0,0.0,0.0,0.0,0.0,0.0,0.0,0.0,0.0,0.0,0.0,0.0,0.0,0.0,0.0,0.0,0.0,0.0,0.0,0.0,0.0,0.0,0.0,0.0,0.0,0.0,0.0,0.0,0.0,0.0,0.0,0.0,0.0,0.0,0.0,0.0,0.0,0.0,0.0,0.0,0.0,0.0,0.0,0.0,0.0,0.0,0.0,0.0,0.0,0.0,0.0,0.0,0.0,0.0,0.0,0.0,0.0,0.0,0.0,0.0,0.0,0.0,0.0,0.0,0.0,0.0,0.0,0.0,0.0,0.0,0.0,0.0,0.0,0.0,0.0,0.0,0.0,0.0,0.0,0.0,0.0,0.0,0.0,0.0,0.0,0.0,0.0,0.0,0.0,0.0,0.0,0.0,0.0,0.0,0.0,0.0,0.0,0.0,0.0,0.1778,0.2397,0.3227,0.4363,0.5333,0.588,0.0,0.0,0.0,0.0,0.0,0.0,0.0,0.0,0.0,0.0,0.0,0.0,0.0,0.0,0.0,0.0,0.0,0.0,0.0,0.0,0.0,0.0,0.0,0.0,0.0,0.0,0.0,0.0,0.0,0.0,0.0,0.0,0.0,0.0,0.0,0.0,0.0,0.0,0.0,0.0,0.0,0.0,0.0,0.0,0.0,0.0,0.0,0.0,0.0,0.0,0.0,0.0,0.0,0.0,0.0,0.0,0.0,0.0,0.0,0.0,0.0,0.0,0.0,0.0,0.0,0.0,0.0,0.0,0.0,0.0,0.0,0.0,0.0,0.0,0.0,0.0,0.0,0.0,0.0,0.0,0.0,0.0,0.0,0.0,0.0,0.0,0.0,0.0,0.0,0.0,0.0,0.0,0.0,0.0,0.0,0.0,0.0,0.0,0.0,0.0,0.0,0.0,0.0,0.0,0.0,0.0,0.0,0.0,0.0,0.0698,0.1902,0.2827,0.3401,0.4213,0.4733,0.0,0.0,0.0,0.0,0.0,0.0,0.0,0.0,0.0,0.0,0.0,0.0,0.0,0.0,0.0,0.0,0.0,0.0,0.0,0.0,0.0,0.0,0.0,0.0,0.0,0.0,0.0,0.0,0.0,0.0,0.0,0.0,0.0,0.0,0.0,0.0,0.0,0.0,0.0,0.0,0.0,0.0,0.0,0.0,0.0,0.0,0.0,0.0,0.0,0.0,0.0,0.0,0.0,0.0,0.0,0.0,0.0,0.0,0.0,0.0,0.0,0.0,0.0,0.0,0.0,0.0,0.0,0.0,0.0,0.0,0.0,0.0,0.0,0.0,0.0,0.0,0.0,0.0,0.0,0.0,0.0,0.0,0.0,0.0,0.0,0.0,0.0,0.0,0.0,0.0,0.0,0.0,0.0,0.0,0.0,0.0,0.0,0.0,0.0,0.0,0.0,0.0,0.0,0.0,0.0,0.0,0.0,0.0,0.0,-0.0079,0.0,0.2135,0.2494,0.3123,0.3632,0.0,0.0,0.0,0.0,0.0,0.0,0.0,0.0,0.0,0.0,0.0,0.0,0.0,0.0,0.0,0.0,0.0,0.0,0.0,0.0,0.0,0.0,0.0,0.0,0.0,0.0,0.0,0.0,0.0,0.0,0.0,0.0,0.0,0.0,0.0,0.0,0.0,0.0,0.0,0.0,0.0,0.0,0.0,0.0,0.0,0.0,0.0,0.0,0.0,0.0,0.0,0.0,0.0,0.0,0.0,0.0,0.0,0.0,0.0,0.0,0.0,0.0,0.0,0.0,0.0,0.0,0.0,0.0,0.0,0.0,0.0,0.0,0.0,0.0,0.0,0.0,0.0,0.0,0.0,0.0,0.0,0.0,0.0,0.0,0.0,0.0,0.0,0.0,0.0,0.0,0.0,0.0,0.0,0.0,0.0,0.0,0.0,0.0,0.0,0.0,0.0,0.0,0.0,0.0,0.0,0.0,0.0,0.0,-0.2106,-0.0455,0.0379,0.1062,0.1566,0.212,0.2649,0.0,0.0,0.0,0.0,0.0,0.0,0.0,0.0,0.0,0.0,0.0,0.0,0.0,0.0,0.0,0.0,0.0,0.0,0.0,0.0,0.0,0.0,0.0,0.0,0.0,0.0,0.0,0.0,0.0,0.0,0.0,0.0,0.0,0.0,0.0,0.0,0.0,0.0,0.0,0.0,0.0,0.0,0.0,0.0,0.0,0.0,0.0,0.0,0.0,0.0,0.0,0.0,0.0,0.0,0.0,0.0,0.0,0.0,0.0,0.0,0.0,0.0,0.0,0.0,0.0,0.0,0.0,0.0,0.0,0.0,0.0,0.0,0.0,0.0,0.0,0.0,0.0,0.0,0.0,0.0,0.0,0.0,0.0,0.0,0.0,0.0,0.0,0.0,0.0,0.0,0.0,0.0,0.0,0.0,0.0,0.0,0.0,0.0,0.0,0.0,0.0,0.0,0.0,0.0,0.0,0.0,0.0,0.0,0.0,-0.1287,-0.0454,0.0227,0.0758,0.1288,0.1842,0.0,0.0,0.0,0.0,0.0,0.0,0.0,0.0,0.0,0.0,0.0,0.0,0.0,0.0,0.0,0.0,0.0,0.0,0.0,0.0,0.0,0.0,0.0,0.0,0.0,0.0,0.0,0.0,0.0,0.0,0.0,0.0,0.0,0.0,0.0,0.0,0.0,0.0,0.0,0.0,0.0,0.0,0.0,0.0,0.0,0.0,0.0,0.0,0.0,0.0,0.0,0.0,0.0,0.0,0.0,0.0,0.0,0.0,0.0,0.0,0.0,0.0,0.0,0.0,0.0,0.0,0.0,0.0,0.0,0.0,0.0,0.0,0.0,0.0,0.0,0.0,0.0,0.0,0.0,0.0,0.0,0.0,0.0,0.0,0.0,0.0,0.0,0.0,0.0,0.0,0.0,0.0,0.0,0.0,0.0,0.0,0.0,0.0,0.0,0.0,0.0,0.0,0.0,0.0,0.0,0.0,0.0,0.0,0.0,-0.2996,-0.1664,-0.0681,-0.0076,0.048,0.101,0.1539,0.0,0.0,0.0,0.0,0.0,0.0,0.0,0.0,0.0,0.0,0.0,0.0,0.0,0.0,0.0,0.0,0.0,0.0,0.0,0.0,0.0,0.0,0.0,0.0,0.0,0.0,0.0,0.0,0.0,0.0,0.0,0.0,0.0,0.0,0.0,0.0,0.0,0.0,0.0,0.0,0.0,0.0,0.0,0.0,0.0,0.0,0.0,0.0,0.0,0.0,0.0,0.0,0.0,0.0,0.0,0.0,0.0,0.0,0.0,0.0,0.0,0.0,0.0,0.0,0.0,0.0,0.0,0.0,0.0,0.0,0.0,0.0,0.0,0.0,0.0,0.0,0.0,0.0,0.0,0.0,0.0,0.0,0.0,0.0,0.0,0.0,0.0,0.0,0.0,0.0,0.0,0.0,0.0,0.0,0.0,0.0,0.0,0.0,0.0,0.0,0.0,0.0,0.0,0.0,0.0,0.0,0.0,0.0,-0.5304,-0.3272,-0.1816,-0.0934,-0.0379,0.0177,0.0,0.0,0.0,0.0,0.0,0.0,0.0,0.0,0.0,0.0,0.0,0.0,0.0,0.0,0.0,0.0,0.0,0.0,0.0,0.0,0.0,0.0,0.0,0.0,0.0,0.0,0.0,0.0,0.0,0.0,0.0,0.0,0.0,0.0,0.0,0.0,0.0,0.0,0.0,0.0,0.0,0.0,0.0,0.0,0.0,0.0,0.0,0.0,0.0,0.0,0.0,0.0,0.0,0.0,0.0,0.0,0.0,0.0,0.0,0.0,0.0,0.0,0.0,0.0,0.0,0.0,0.0,0.0,0.0,0.0,0.0,0.0,0.0,0.0,0.0,0.0,0.0,0.0,0.0,0.0,0.0,0.0,0.0,0.0,0.0,0.0,0.0,0.0,0.0,0.0,0.0,0.0,0.0,0.0,0.0,0.0,0.0,0.0,0.0,0.0,0.0,0.0,0.0,0.0,0.0,0.0,0.0,0.0,0.0,-0.6404,-0.5254,-0.3904,-0.2346,-0.1564,-0.0933,0.0,0.0,0.0,0.0,0.0,0.0,0.0,0.0,0.0,0.0,0.0,0.0,0.0,0.0,0.0,0.0,0.0,0.0,0.0,0.0,0.0,0.0,0.0,0.0,0.0,0.0,0.0,0.0,0.0,0.0,0.0,0.0,0.0,0.0,0.0,0.0,0.0,0.0,0.0,0.0,0.0,0.0,0.0,0.0,0.0,0.0,0.0,0.0,0.0,0.0,0.0,0.0,0.0,0.0,0.0,0.0,0.0,0.0,0.0,0.0,0.0,0.0,0.0,0.0,0.0,0.0,0.0,0.0,0.0,0.0,0.0,0.0,0.0,0.0,0.0,0.0,0.0,0.0,0.0,0.0,0.0,0.0,0.0,0.0,0.0,0.0,0.0,0.0,0.0,0.0,0.0,0.0,0.0,0.0,0.0,0.0,0.0,0.0,0.0,0.0,0.0,0.0,0.0,0.0,0.0,0.0,0.0,0.0,-0.9099,-0.7944,-0.7141,-0.6101,-0.4712,-0.2997,-0.1967,0.0,0.0,0.0,0.0,0.0,0.0,0.0,0.0,0.0,0.0,0.0,0.0,0.0,0.0,0.0,0.0,0.0,0.0,0.0,0.0,0.0,0.0,0.0,0.0,0.0,0.0,0.0,0.0,0.0,0.0,0.0,0.0,0.0,0.0,0.0,0.0,0.0,0.0,0.0,0.0,0.0,0.0,0.0,0.0,0.0,0.0,0.0,0.0,0.0,0.0,0.0,0.0,0.0,0.0,0.0,0.0,0.0,0.0,0.0,0.0,0.0,0.0,0.0,0.0,0.0,0.0,0.0,0.0,0.0,0.0,0.0,0.0,0.0,0.0,0.0,0.0,0.0,0.0,0.0,0.0,0.0,0.0,0.0,0.0,0.0,0.0,0.0,0.0,0.0,0.0,0.0,0.0,0.0,0.0,0.0,0.0,0.0,0.0,0.0,0.0,0.0,0.0,0.0,0.0,0.0,0.0,0.0,0.0,-1.0635,-0.9756,-0.8991,-0.8262,-0.7495,-0.4688,-0.3095,0.0,0.0,0.0,0.0,0.0,0.0,0.0,0.0,0.0,0.0,0.0,0.0,0.0,0.0,0.0,0.0,0.0,0.0,0.0,0.0,0.0,0.0,0.0,0.0,0.0,0.0,0.0,0.0,0.0,0.0,0.0,0.0,0.0,0.0,0.0,0.0,0.0,0.0,0.0,0.0,0.0,0.0,0.0,0.0,0.0,0.0,0.0,0.0,0.0,0.0,0.0,0.0,0.0,0.0,0.0,0.0,0.0,0.0,0.0,0.0,0.0,0.0,0.0,0.0,0.0,0.0,0.0,0.0,0.0,0.0,0.0,0.0,0.0,0.0,0.0,0.0,0.0,0.0,0.0,0.0,0.0,0.0,0.0,0.0,0.0,0.0,0.0,0.0,0.0,0.0,0.0,0.0,0.0,0.0,0.0,0.0,0.0,0.0,0.0,0.0,0.0,0.0,0.0,0.0,0.0,0.0,0.0,0.0,-1.2404,-1.1398,-1.0806,-1.0103,-0.9283,-0.6762,-0.5069,0.0,0.0,0.0,0.0,0.0,0.0,0.0,0.0,0.0,0.0,0.0,0.0,0.0,0.0,0.0,0.0,0.0,0.0,0.0,0.0,0.0,0.0,0.0,0.0,0.0,0.0,0.0,0.0,0.0,0.0,0.0,0.0,0.0,0.0,0.0,0.0,0.0,0.0,0.0,0.0,0.0,0.0,0.0,0.0,0.0,0.0,0.0,0.0,1.1997,0.0,0.0,0.0,0.0,0.0,0.0,0.0,0.0,0.0,0.0,0.0,0.0,0.0,0.0,0.0,0.0,0.0,0.0,0.0,0.0,0.0,0.0,0.0,0.0,0.0,0.0,0.0,0.0,0.0,0.0,0.0,0.0,0.0,0.0,0.0,0.0,0.0,0.0,0.0,0.0,0.0,0.0,0.0,0.0,0.0,0.0,0.0,0.0,0.0,0.0,0.0,0.0,0.0,0.0,0.0,0.0,0.0,0.0,0.0,-1.3892,-1.3003,-1.2592,-1.1961,-1.1018,-0.9468,-0.7751,0.0,0.0,0.0,0.0,0.0,0.0,0.0,0.0,0.0,0.0,0.0,0.0,0.0,0.0,0.0,0.0,0.0,0.0,0.0,0.0,0.0,0.0,0.0,0.0,0.0,0.0,0.0,0.0,0.0,0.0,0.0,0.0,0.0,0.0,0.0,0.0,0.0,0.0,0.0,0.0,0.0,0.0,0.0,0.0,0.0,0.0,0.0,0.0,0.0,0.0,0.0,0.0,0.0,0.0,0.0,0.0,0.0,0.0,0.0,0.0,0.0,0.0,0.0,0.0,0.0,0.0,0.0,0.0,0.0,0.0,0.0,0.0,0.0,0.0,0.0,0.0,0.0,0.0,0.0,0.0,0.0,0.0,0.0,0.0,0.0,0.0,0.0,0.0,0.0,0.0,0.0,0.0,0.0,0.0,0.0,0.0,0.0,0.0,0.0,0.0,0.0,0.0,0.0,0.0,0.0,0.0,0.0,-1.5399,-1.5132,-1.4556,-1.4247,-1.3683,-1.2765,-1.2146,-1.0521,-0.7802,0.0,0.0,0.0,0.0,0.0,0.0,0.0,0.0,0.0,0.0,0.0,0.0,0.0,0.0,0.0,0.0,0.0,0.0,0.0,0.0,0.0,0.0,0.0,0.0,0.0,0.0,0.0,0.0,0.0,0.0,0.0,0.0,0.0,0.0,0.0,0.0,0.0,0.0,0.4069,0.4651,0.0,0.0,0.0,0.0,0.0,0.0,0.0,0.0,1.0331,0.0,0.0,0.0,0.0,0.0,0.0,0.0,0.0,0.0,0.0,0.0,0.0,0.0,0.0,0.0,0.0,0.0,0.0,0.0,0.0,0.0,0.0,0.0,0.0,0.0,0.0,0.0,0.0,0.0,0.0,0.0,0.0,0.0,0.0,0.0,0.0,0.0,0.0,0.0,0.0,0.0,0.0,0.0,0.0,0.0,0.0,0.0,0.0,0.0,0.0,0.0,0.0,0.0,0.0,0.0,0.0,-1.6452,-1.6456,-1.6305,-1.5958,-1.5686,-1.5144,-1.4272,-1.3646,-1.265,-1.1179,0.0,0.0,0.0,0.0,0.0,0.0,0.0,0.0,0.0,0.0,0.0,0.0,0.0,0.0,0.0,0.0,0.0,0.0,0.0,0.0,0.0,0.0,0.0,0.0,0.0,0.0,0.0,0.0,0.0,0.0,0.0,0.0,0.0,0.0,0.0,0.0,0.0,0.0,0.0,0.3145,0.3729,0.0,0.0,0.0,0.0,0.0,0.0,0.0,0.0,0.9478,0.0,0.0,0.0,0.0,0.0,0.0,0.0,0.0,0.0,0.0,0.0,0.0,0.0,0.0,0.0,0.0,0.0,0.0,0.0,0.0,0.0,0.0,0.0,0.0,0.0,0.0,0.0,0.0,0.0,0.0,0.0,0.0,0.0,0.0,0.0,0.0,0.0,0.0,0.0,0.0,0.0,0.0,0.0,0.0,0.0,0.0,0.0,0.0,0.0,0.0,0.0,0.0,0.0,0.0,0.0,-1.6962,-1.7095,-1.7028,-1.6775,-1.6636,-1.6211,-1.5517,-1.5051,-1.4347,0.0,0.0,0.0,0.0,0.0,0.0,0.0,0.0,0.0,0.0,0.0,0.0,0.0,0.0,0.0,0.0,0.0,0.0,0.0,0.0,0.0,0.0,0.0,0.0,0.0,0.0,0.0,0.0,0.0,0.0,0.0,0.0,0.0,0.0,0.0,0.0,0.0,0.0,0.0,0.0,0.1912,0.2527,0.3296,0.0,0.0,0.0,0.0,0.0,0.0,0.7647,0.826,0.0,0.0,0.0,0.0,0.0,0.0,0.0,0.0,0.0,0.0,0.0,0.0,0.0,0.0,0.0,0.0,0.0,0.0,0.0,0.0,0.0,0.0,0.0,0.0,0.0,0.0,0.0,0.0,0.0,0.0,0.0,0.0,0.0,0.0,0.0,0.0,0.0,0.0,0.0,0.0,0.0,0.0,0.0,0.0,0.0,0.0,0.0,0.0,0.0,0.0,0.0,0.0,0.0,0.0,0.0,-1.7293,-1.7495,-1.751,-1.7279,-1.7279,-1.7014,-1.651,-1.6271,-1.5785,0.0,0.0,0.0,0.0,0.0,0.0,0.0,0.0,0.0,0.0,0.0,0.0,0.0,0.0,0.0,0.0,0.0,0.0,0.0,0.0,0.0,0.0,0.0,0.0,0.0,0.0,0.0,0.0,0.0,0.0,0.0,0.0,0.0,0.0,0.0,0.0,0.0,0.0,0.0,0.0,0.0,0.1418,0.2003,0.2619,0.0,0.0,0.0,0.0,0.5477,0.6182,0.0,0.0,0.0,0.0,0.0,0.0,0.0,0.0,0.0,0.0,0.0,0.0,0.0,0.0,0.0,0.0,0.0,0.0,0.0,0.0,0.0,0.0,0.0,0.0,0.0,0.0,0.0,0.0,0.0,0.0,0.0,0.0,0.0,0.0,0.0,0.0,0.0,0.0,0.0,0.0,0.0,0.0,0.0,0.0,0.0,0.0,0.0,0.0,0.0,0.0,0.0,0.0,0.0,0.0,0.0,0.0,-1.7561,-1.7588,-1.7582,-1.7556,-1.7562,-1.7404,-1.7093,-1.7067,-1.6749,0.0,0.0,0.0,0.0,0.0,0.0,0.0,0.0,0.0,0.0,0.0,0.0,0.0,0.0,0.0,0.0,0.0,0.0,0.0,0.0,0.0,0.0,0.0,0.0,0.0,0.0,0.0,0.0,0.0,0.0,0.0,0.0,0.0,0.0,0.0,0.0,0.0,0.0,0.0,0.0,0.0,0.0308,0.0678,0.1294,0.1973,0.0,0.0,0.3174,0.4004,0.422,0.0,0.0,0.0,0.0,0.0,0.0,0.0,0.0,0.0,0.0,0.0,0.0,0.0,0.0,0.0,0.0,0.0,0.0,0.0,0.0,0.0,0.0,0.0,0.0,0.0,0.0,0.0,0.0,0.0,0.0,0.0,0.0,0.0,0.0,0.0,0.0,0.0,0.0,0.0,0.0,0.0,0.0,0.0,0.0,0.0,0.0,0.0,0.0,0.0,0.0,0.0,0.0,0.0,0.0,0.0,-1.7826,-1.7832,-1.7661,-1.7615,-1.7615,-1.7615,-1.7556,-1.743,-1.743,-1.7226,0.0,0.0,0.0,0.0,0.0,0.0,0.0,0.0,0.0,0.0,0.0,0.0,0.0,0.0,0.0,0.0,0.0,0.0,0.0,0.0,0.0,0.0,0.0,0.0,0.0,0.0,0.0,0.0,0.0,0.0,0.0,0.0,0.0,0.0,0.0,0.0,0.0,0.0,0.0,0.0,0.0,0.0,0.0123,0.0648,0.0,0.0,0.0,0.2065,0.2465,0.0,0.0,0.0,0.0,0.0,0.0,0.0,0.0,0.0,0.0,0.0,0.0,0.0,0.0,0.0,0.0,0.0,0.0,0.0,0.0,0.0,0.0,0.0,0.0,0.0,0.0,0.0,0.0,0.0,0.0,0.0,0.0,0.0,0.0,0.0,0.0,0.0,0.0,0.0,0.0,0.0,0.0,0.0,0.0,0.0,0.0,0.0,0.0,0.0,0.0,0.0,0.0,0.0,0.0,0.0,0.0,0.0,-1.799,-1.7747,-1.7648,-1.7695,-1.7695,-1.7722,-1.7829,-1.7809,0.0,0.0,0.0,0.0,0.0,0.0,0.0,0.0,0.0,0.0,0.0,0.0,0.0,0.0,0.0,0.0,0.0,0.0,0.0,0.0,0.0,0.0,0.0,0.0,0.0,0.0,0.0,-0.6307,0.0,0.0,0.0,0.0,0.0,0.0,0.0,0.0,0.0,0.0,0.0,0.0,0.0,0.0,-0.0926,-0.034,0.0093,0.0463,0.0,0.0,0.1171,0.1233,0.1665,0.222,0.0,0.0,0.0,0.0,0.0,0.0,0.0,0.0,0.0,0.0,0.0,0.0,0.0,0.0,0.0,0.0,0.0,0.0,0.0,0.0,0.0,0.0,0.0,0.0,0.0,0.0,0.0,0.0,0.0,0.0,0.0,0.0,0.0,0.0,0.0,0.0,0.0,0.0,0.0,0.0,0.0,0.0,0.0,0.0,0.0,0.0,0.0,0.0,0.0,0.0,0.0,0.0,0.0,0.0,0.0,-1.799,-1.7747,-1.7729,-1.7949,-1.7969,-1.813,-1.8417,-1.843,-1.8424,0.0,0.0,0.0,0.0,0.0,0.0,0.0,0.0,0.0,0.0,0.0,0.0,0.0,0.0,0.0,0.0,0.0,0.0,0.0,0.0,0.0,0.0,0.0,0.0,0.0,0.0,0.0,0.0,0.0,0.0,0.0,0.0,0.0,0.0,0.0,0.0,0.0,0.0,0.0,0.0,0.0,-0.1326,-0.0987,-0.0371,0.0,0.0,0.0,0.0216,0.0525,0.0617,0.0987,0.1942,0.0,0.0,0.0,0.0,0.0,0.0,0.0,0.0,0.0,0.0,0.0,0.0,0.0,0.0,0.0,0.0,0.0,0.0,0.0,0.0,0.0,0.0,0.0,0.0,0.0,0.0,0.0,0.0,0.0,0.0,0.0,0.0,0.0,0.0,0.0,0.0,0.0,0.0,0.0,0.0,0.0,0.0,0.0,0.0,0.0,0.0,0.0,0.0,0.0,0.0,0.0,0.0,0.0,-1.9219,-1.8868,-1.8571,-1.836,-1.831,-1.8317,-1.837,-1.849,-1.8497,-1.8497,0.0,0.0,0.0,0.0,0.0,0.0,0.0,0.0,0.0,0.0,0.0,0.0,0.0,0.0,0.0,0.0,0.0,0.0,0.0,0.0,0.0,0.0,0.0,0.0,0.0,0.0,0.0,0.0,-0.8516,-0.8241,-0.7594,0.0,0.0,0.0,0.0,0.0,0.0,0.0,0.0,0.0,0.0,-0.1388,-0.105,-0.0432,0.0,0.0,0.0,0.0031,0.0154,0.0185,0.037,0.0987,0.1511,0.0,0.0,0.0,0.0,0.0,0.0,0.0,0.0,0.0,0.0,0.0,0.0,0.0,0.0,0.0,0.0,0.0,0.0,0.0,0.0,0.0,0.0,0.0,0.0,0.0,0.0,0.0,0.0,0.0,0.0,0.0,0.0,0.0,0.0,0.0,0.0,0.0,0.0,0.0,0.0,0.0,0.0,0.0,0.0,0.0,0.0,0.0,0.0,0.0,0.0,0.0,0.0,-1.9999,-1.9408,-1.9057,-1.8801,-1.8624,-1.8624,-1.8664,-1.8751,-1.8779,-1.8751,0.0,0.0,0.0,0.0,0.0,0.0,0.0,0.0,0.0,0.0,0.0,0.0,0.0,0.0,0.0,0.0,0.0,0.0,0.0,0.0,0.0,0.0,0.0,0.0,0.0,0.0,0.0,0.0,-0.9095,-0.8793,-0.8269,0.0,0.0,0.0,0.0,0.0,0.0,0.0,0.0,0.0,0.0,-0.1326,-0.0926,-0.034,0.0,0.0,0.0,0.0,0.0,0.0,0.0124,0.0432,0.0,0.0,0.0,0.0,0.0,0.0,0.0,0.0,0.0,0.0,0.0,0.0,0.0,0.0,0.0,0.0,0.0,0.0,0.0,0.0,0.0,0.0,0.0,0.0,0.0,0.0,0.0,0.0,0.0,0.0,-2.027,0.0,0.0,0.0,0.0,0.0,0.0,0.0,0.0,0.0,0.0,0.0,0.0,0.0,0.0,0.0,0.0,0.0,0.0,0.0,0.0,0.0,0.0,-2.0013,-1.9422,-1.9106,-1.891,-1.8905,-1.889,-1.9045,-1.9348,-1.9374,-1.9374,-1.9361,0.0,0.0,0.0,0.0,0.0,0.0,0.0,0.0,0.0,0.0,0.0,0.0,0.0,0.0,0.0,0.0,0.0,0.0,0.0,0.0,0.0,0.0,0.0,0.0,0.0,0.0,-0.9761,-0.9488,-0.9156,0.0,0.0,0.0,0.0,0.0,0.0,0.0,0.0,0.0,0.0,-0.1942,-0.1264,-0.0586,-0.0216,0.0,0.0,0.0,0.0,0.0,0.0,0.0093,0.0,0.0,0.0,0.0,0.0,0.0,0.0,0.0,0.0,0.0,0.0,0.0,0.0,0.0,0.0,0.0,0.0,0.0,0.0,0.0,0.0,0.0,0.0,0.0,0.0,0.0,0.0,-2.2785,-2.1887,0.0,0.0,0.0,0.0,0.0,0.0,0.0,0.0,0.0,0.0,0.0,-1.9395,-1.9395,0.0,0.0,0.0,0.0,0.0,0.0,0.0,0.0,0.0,0.0,0.0,0.0,-2.0599,-2.0026,-1.965,-1.9398,-1.9247,-1.9219,-1.9294,-1.9395,-1.9395,-1.9395,-1.9395,0.0,0.0,0.0,0.0,0.0,0.0,0.0,0.0,0.0,0.0,0.0,0.0,0.0,0.0,0.0,0.0,0.0,0.0,0.0,0.0,0.0,0.0,0.0,0.0,0.0,-0.97,0.0,0.0,0.0,0.0,0.0,0.0,0.0,0.0,0.0,0.0,0.0,-0.2805,-0.1942,-0.1265,-0.0771,-0.0525,-0.0216,0.0,0.0,0.0,0.0,0.0,0.0,0.0,0.0,0.0,0.0,0.0,0.0,0.0,0.0,0.0,0.3665,0.4836,0.5513,0.5941,0.6062,0.0,0.0,0.0,0.0,0.0,0.0,0.0,0.0,0.0,0.0,0.0,0.0,0.0,0.0,0.0,0.0,-2.0465,0.0,0.0,0.0,0.0,0.0,0.0,0.0,0.0,-1.9395,-1.9395,-1.9395,-1.9395,-1.9395,0.0,-1.9395,-1.9395,0.0,0.0,0.0,0.0,0.0,0.0,0.0,0.0,-2.0831,-2.0155,-1.9902,-1.9671,-1.9424,-1.9395,-1.9395,-1.9395,-1.9395,-1.9395,-1.9395,-1.9395,-1.9307,0.0,0.0,0.0,0.0,0.0,0.0,0.0,0.0,0.0,0.0,0.0,0.0,0.0,0.0,0.0,0.0,0.0,0.0,0.0,0.0,0.0,0.0,0.0,-0.9518,0.0,0.0,0.0,0.0,0.0,0.0,0.0,0.0,0.0,-0.3667,-0.2867,-0.2036,-0.1264,-0.0771,-0.0463,-0.034,0.0,0.0,0.0,0.0,0.0,0.0,0.0,0.0,0.0,0.0185,0.0371,0.0494,0.0864,0.1265,0.1603,0.0,0.0,0.3329,0.4098,0.4561,0.4561,0.5448,0.6307,0.665,0.7319,0.805,0.0,0.0,0.0,0.0,0.0,0.0,0.0,0.0,-2.1822,-2.1231,0.0,-2.004,0.0,0.0,0.0,0.0,0.0,-1.9395,0.0,0.0,-1.9395,-1.9395,-1.9395,-1.9395,-1.9395,-1.9395,-1.9395,-1.9395,-1.9395,-1.9671,0.0,0.0,0.0,0.0,0.0,0.0,-2.0716,-1.9844,-1.9786,-1.9649,-1.9395,-1.9395,-1.9395,-1.9395,-1.9395,-1.9395,-1.9395,-1.9395,-1.9395,-1.9366,-1.8748,0.0,0.0,0.0,0.0,0.0,0.0,0.0,0.0,0.0,0.0,0.0,0.0,0.0,0.0,0.0,0.0,0.0,0.0,0.0,0.0,-0.9488,0.0,0.0,0.0,0.0,0.0,0.0,0.0,0.0,0.0,0.0,-0.2991,-0.2375,-0.1604,-0.0617,0.0,0.0,0.0,0.0,0.0,0.0,0.0,0.0,0.0,0.0,0.0,0.0,0.0,0.0,0.0432,0.0494,0.0617,0.0896,0.0957,0.1173,0.1819,0.2497,0.296,0.2991,0.4006,0.4896,0.5327,0.6154,0.7011,-2.3947,0.0,0.0,0.0,0.0,-2.2877,-2.2207,-2.1538,-2.0945,-2.0436,-2.004,-1.9678,0.0,0.0,0.0,0.0,0.0,0.0,-1.9395,-1.9395,-1.9395,-1.9395,-1.9395,-1.9395,-1.9395,-1.9395,-1.9395,-1.9395,-1.9395,-1.9482,-1.962,-1.9815,0.0,0.0,0.0,0.0,-2.0075,-1.9815,-1.962,-1.9482,-1.9395,-1.9395,-1.9395,-1.9395,-1.9395,-1.9395,-1.9395,-1.9395,-1.9307,-1.9062,-1.8619,0.0,0.0,0.0,0.0,0.0,0.0,0.0,0.0,0.0,0.0,0.0,0.0,0.0,0.0,0.0,0.0,0.0,0.0,0.0,-0.9457,-0.8967,-0.8568,0.0,0.0,0.0,0.0,0.0,0.0,0.0,0.0,0.0,-0.2003,-0.1357,-0.0741,0.0,0.0,-0.0093,0.0,0.0,0.0,0.0,0.0,0.0,0.0,0.0,0.0,0.0,0.0,0.0031,0.0124,0.0154,0.0185,0.0,0.0278,0.034,0.0555,0.1295,0.1911,0.2003,0.2805,0.3698,0.4252,0.4957,0.5816,-2.219,-2.2852,-2.2747,-2.2438,-2.2078,-2.1695,-2.121,-2.0608,-2.027,-1.9931,-1.9649,-1.9482,-1.9395,-1.9395,-1.9395,0.0,0.0,0.0,-1.9395,-1.9395,-1.9395,-1.9395,-1.9395,-1.9395,-1.9395,-1.9395,-1.9395,-1.9395,-1.9395,-1.9395,-1.9482,-1.9649,0.0,0.0,-1.9931,-1.9844,-1.9758,-1.9649,-1.9482,-1.9395,-1.9395,-1.9395,-1.9395,-1.9395,-1.9395,-1.9395,-1.9395,-1.9272,-1.9033,-1.8735,-1.8152,-1.7437,0.0,0.0,0.0,0.0,0.0,0.0,0.0,0.0,0.0,0.0,0.0,-0.9788,-0.9788,0.0,0.0,0.0,-0.9548,-0.9275,-0.8967,-0.8263,0.0,0.0,0.0,0.0,0.0,0.0,0.0,-0.3669,-0.2621,-0.1696,-0.1172,-0.0617,-0.0247,0.0,0.0,0.0,0.0,0.0,0.0,0.0,0.0,0.0,0.0,0.0,0.0,0.0,0.0,0.0,0.0,0.0,0.0,0.0,0.0,0.0,0.0,0.0494,0.0956,0.111,0.1788,0.259,0.3236,0.3789,0.4527,-2.0944,-2.0732,-2.1256,-2.1161,-2.063,-2.063,-2.0292,-1.9786,-1.9758,-1.962,-1.9395,-1.9395,-1.9395,-1.9395,-1.9395,0.0,-1.9395,-1.9395,-1.9395,-1.9395,-1.9395,-1.9395,-1.9395,-1.9395,-1.9395,-1.9395,-1.9395,-1.9395,-1.9395,-1.9395,-1.9395,-1.9424,-1.9649,-1.9649,-1.9424,-1.9642,-1.9649,-1.9424,-1.9395,-1.9395,-1.9395,-1.9395,-1.9395,-1.9395,-1.9395,-1.9395,-1.9336,-1.9062,-1.8671,-1.8298,-1.7379,-1.6461,-1.548,0.0,0.0,0.0,0.0,0.0,0.0,0.0,0.0,0.0,0.0,0.0,0.0,0.0,0.0,0.0,-0.9092,0.0,-0.8355,-0.7378,0.0,0.0,0.0,-0.465,-0.4315,-0.3453,-0.2775,-0.2466,0.0,0.0,-0.0556,0.0,0.0,0.0,0.0,0.0,0.0,0.0,0.0,0.0,0.0,0.0,0.0,0.0,0.0,0.0,0.0,0.0,0.0,0.0,0.0,0.0,0.0,0.0,0.0,0.0,0.0093,0.0432,0.0987,0.1634,0.2251,0.2714,0.336,-2.0398,-2.0331,-2.0467,-2.0321,-2.0018,-2.0011,-1.9815,-1.9511,-1.9482,-1.9482,-1.9395,-1.9395,-1.9395,-1.9395,-1.9395,-1.9395,-1.9395,-1.9395,-1.9395,-1.9395,-1.9395,-1.9395,-1.9395,-1.9395,-1.9395,-1.9395,-1.9395,-1.9395,-1.9395,-1.9395,-1.9395,-1.9395,-1.9453,-1.9446,-1.9395,-1.9453,-1.9453,-1.9395,-1.9395,-1.9395,-1.9395,-1.9395,-1.9395,-1.9395,-1.9395,-1.9272,-1.9033,-1.8706,-1.8146,-1.7349,-1.6432,-1.5391,-1.4202,-1.3221,0.0,0.0,0.0,0.0,0.0,0.0,0.0,0.0,0.0,-0.9788,-0.9788,0.0,-0.97,0.0,-0.8391,-0.7691,-0.763,-0.6276,0.0,0.0,-0.419,-0.3422,-0.3331,-0.2436,-0.1819,-0.1757,-0.108,-0.0587,-0.0525,-0.0216,0.0,0.0,0.0,0.0,0.0,0.0,0.0,0.0,0.0,0.0,0.0,0.0,0.0,0.0,0.0,0.0,0.0,0.0,0.0,0.0,0.0,0.0,0.0,0.0,0.0,0.0124,0.0463,0.0864,0.1266,0.182,0.2559,-2.0428,-2.0421,-2.0257,-2.0137,-1.9969,-1.9841,-1.9654,-1.9395,-1.9395,-1.9395,-1.9395,-1.9395,-1.9395,-1.9395,-1.9395,-1.9395,-1.9395,-1.9395,-1.9395,-1.9395,-1.9395,-1.9395,-1.9395,-1.9395,-1.9395,-1.9395,-1.9395,-1.9395,-1.9395,-1.9395,-1.9395,-1.9395,-1.9395,-1.9395,-1.9395,-1.9395,-1.9395,-1.9395,-1.9395,-1.9395,-1.9395,-1.9272,-1.9185,-1.9185,-1.9039,-1.88,-1.8467,-1.8023,-1.7355,-1.6432,-1.5332,-1.4232,-1.3101,-1.223,-1.1541,0.0,0.0,0.0,0.0,0.0,0.0,0.0,0.0,0.0,0.0,0.0,-0.9545,0.0,-0.7841,-0.6985,-0.6559,-0.5172,-0.4158,-0.3851,-0.2928,-0.2282,-0.2129,-0.1481,-0.1048,-0.1049,-0.0586,-0.0278,-0.0278,-0.0124,0.0,0.0,0.0,0.0,0.0,0.0,0.0,0.0,0.0,0.0,0.0,0.0,0.0,0.0,0.0,0.0,0.0,0.0,0.0,0.0,0.0,0.0,0.0,0.0,0.0,0.0216,0.0371,0.0618,0.0926,0.1296,0.1881,-2.0759,-2.0702,-2.0424,-2.0297,-2.0244,-2.002,-1.9776,-1.9508,-1.9468,-1.9435,-1.9395,-1.9395,-1.9395,-1.9395,-1.9395,-1.9395,-1.9395,-1.9395,-1.9395,-1.9395,-1.9359,-1.9336,-1.9336,-1.9307,-1.9278,-1.9278,-1.9272,-1.9278,-1.9272,-1.9272,-1.9272,-1.9278,-1.9278,-1.9278,-1.9278,-1.9278,-1.9307,-1.9395,-1.9366,-1.9336,-1.9336,-1.8968,-1.8758,-1.8758,-1.8415,-1.8064,-1.7724,-1.7114,-1.6343,-1.5451,-1.4197,-1.3071,-1.2144,-1.1514,-1.088,0.0,-1.0243,0.0,0.0,0.0,0.0,0.0,0.0,0.0,0.0,-0.964,-0.9211,-0.8327,-0.7284,-0.6245,-0.5297,-0.4066,-0.308,-0.2436,-0.1788,-0.1264,-0.0988,-0.0649,-0.0432,-0.0432,-0.0185,0.0,0.0,0.0,0.0,0.0,0.0,0.0,0.0,0.0,0.0,0.0,0.0,0.0,0.0,0.0,0.0,0.0,0.0,0.0,0.0,0.0,0.0,0.0,0.0,0.0,0.0,0.0,0.0,0.0587,0.0679,0.0772,0.1019,0.1173,0.1574,-2.1029,-2.1022,-2.0962,-2.0808,-2.0588,-2.0535,-2.0347,-2.0054,-1.982,-1.9586,-1.9401,-1.9395,-1.9395,-1.9395,-1.9395,-1.9395,-1.9395,-1.9395,-1.9395,-1.9395,-1.912,-1.8997,-1.8968,-1.8713,-1.8603,-1.8596,-1.8596,-1.8603,-1.8567,-1.8567,-1.8596,-1.859,-1.8603,-1.859,-1.8596,0.0,0.0,0.0,-1.912,-1.8968,-1.8975,-1.8402,-1.8081,-1.8081,-1.7555,0.0,-1.6767,-1.5911,-1.514,-1.4475,-1.3191,0.0,0.0,0.0,0.0,0.0,0.0,0.0,0.0,0.0,0.0,0.0,-0.9186,-0.9159,-0.9366,-0.8726,-0.8052,-0.7597,-0.6184,-0.4986,-0.4252,-0.302,-0.2127,-0.1726,-0.1111,-0.0648,-0.0587,-0.0278,-0.0093,-0.0093,0.0,0.0,0.0,0.0,0.0,0.0,0.0,0.0,0.0,0.0,0.0,0.0,0.0,0.0,0.0,0.0,0.0,0.0,0.0,0.0,0.0,0.0,0.0,0.0031,0.0216,0.0401,0.0432,0.0618,0.0895,0.1233,0.1326,0.1326,0.1418,0.1634,0.2127,-2.1102,0.0,-2.1102,-2.1022,0.0,-2.0889,-2.0715,-2.0387,-2.0116,-1.9853,-1.9609,-1.9455,-1.9307,-1.9156,-1.9156,-1.9068,-1.8923,-1.8923,-1.8894,-1.8894,-1.8735,-1.8554,-1.8402,-1.8227,-1.8094,-1.7954,-1.7948,-1.7954,-1.7948,-1.7954,-1.7948,-1.7954,-1.7948,-1.7948,-1.7948,-1.7954,-1.8275,-1.89,-1.8742,-1.859,-1.8373,-1.7783,-1.7379,-1.7203,0.0,0.0,0.0,0.0,0.0,0.0,0.0,0.0,0.0,0.0,0.0,-0.9822,-0.964,-0.9548,-0.9548,-0.9122,-0.8845,-0.8845,-0.8266,-0.8175,-0.8784,-0.7958,-0.7197,-0.6677,-0.5419,-0.4252,-0.3298,-0.2343,-0.1542,-0.1049,-0.0555,-0.0247,-0.0247,-0.0093,0.0,0.0,0.0,0.0,0.0,0.0,0.0,0.0,0.0,0.0,0.0,0.0,0.0,0.0,0.0,0.0,0.0,0.0,0.0,0.0,0.0124,0.0247,0.0247,0.0401,0.0494,0.0494,0.0649,0.0803,0.0987,0.1142,0.145,0.2066,0.2251,0.2527,0.2956,0.2834,0.2836,-2.1102,-2.1077,-2.1046,-2.1014,-2.1014,-2.0951,-2.0729,-2.0411,0.0,0.0,0.0,-1.9472,-1.9213,-1.8966,-1.8826,-1.8638,-1.8397,-1.8265,-1.8246,-1.8246,-1.8123,-1.7912,-1.7642,-1.7549,-1.7379,-1.7162,-1.7162,-1.7162,-1.7156,-1.7162,-1.7156,-1.7162,-1.7156,-1.7156,-1.7162,-1.7156,-1.7426,-1.7889,-1.8012,-1.7918,-1.7636,-1.6962,-1.6437,-1.6183,-1.52,-1.4545,-1.4272,-1.3624,-1.2904,-1.2083,-1.1454,-1.088,-1.0334,-0.9974,-0.9792,-0.97,-0.94,-0.9183,-0.9153,-0.851,-0.805,-0.7897,-0.7072,-0.6947,-0.7897,-0.7103,-0.6305,-0.5692,-0.4681,-0.3576,-0.2436,-0.1727,-0.1079,-0.0463,-0.0154,0.0,0.0,0.0,0.0,0.0,0.0,0.0,0.0,0.0,0.0,0.0,0.0,0.0,0.0,0.0,0.0,0.0,0.0,0.0,0.0,0.0,0.0093,0.0,0.0432,0.0648,0.0741,0.0957,0.1142,0.1173,0.1235,0.1481,0.1726,0.2003,0.2312,0.3176,0.3393,0.3792,0.4803,0.4435,0.4127,-2.1071,-2.1084,-2.0792,-2.0672,-2.064,-2.0361,-2.0036,-1.9744,-1.9769,-1.9594,-1.9275,-1.9237,-1.9188,-1.9114,-1.8616,-1.836,-1.8288,-1.7823,-1.7631,0.0,-1.7038,-1.6738,-1.6655,-1.6153,-1.5922,-1.5863,-1.5863,-1.5863,-1.5868,-1.5863,-1.5863,-1.5863,-1.5868,-1.5863,-1.5863,-1.5868,-1.5893,-1.6011,-1.6478,-1.6744,-1.6679,-1.555,-1.4897,-1.4808,-1.3674,-1.302,-1.296,-1.2148,-1.1575,-1.1424,-1.0789,-1.0395,-1.0274,-0.997,-0.967,-0.9366,-0.9065,-0.8757,-0.8507,-0.7622,-0.6735,-0.591,-0.5416,-0.5508,-0.6151,-0.56,-0.5018,-0.4621,-0.3513,-0.2466,-0.1695,-0.1049,-0.0525,0.0,0.0,0.0,0.0,0.0,0.0,0.0,0.0,0.0,0.0,0.0,0.0,0.0,0.0,0.0,0.0,0.0,0.0,0.0,0.0,0.0,0.0,0.0247,0.0432,0.0432,0.0987,0.1388,0.1388,0.1696,0.1912,0.1881,0.2344,0.2683,0.2837,0.3484,0.4006,0.4527,0.4834,0.5358,0.6368,0.6366,0.6368,-2.0545,-2.0545,-2.0386,-2.0227,-1.9992,-1.9264,-1.8874,-1.8702,-1.8366,-1.8482,-1.8852,-1.8735,-1.8459,-1.8104,-1.7813,-1.7486,-1.7145,-1.6909,-1.6706,-1.6519,-1.621,-1.5876,-1.5531,-1.5237,-1.4958,-1.4701,-1.4665,-1.4636,-1.4565,-1.4555,-1.455,-1.4585,-1.4585,-1.4585,-1.4555,-1.4555,-1.4555,-1.458,-1.5353,-1.5645,-1.5467,-1.4396,-1.3769,-1.3589,-1.2505,-1.1937,-1.1937,-1.136,-1.094,-1.0759,-1.0486,-1.0152,-0.9761,-0.9609,-0.9305,-0.8848,-0.8333,-0.7903,-0.7592,-0.6488,-0.5324,-0.4223,-0.3944,-0.382,-0.3786,-0.3851,-0.3729,-0.3391,-0.2497,-0.1696,-0.1018,-0.0679,-0.0371,-0.0062,0.0,0.0,0.0,0.0,0.0,0.0,0.0,0.0,0.0,0.0,0.0,0.0,0.0154,0.0309,0.0525,0.0556,0.0494,0.0,0.0,0.0,0.0556,0.0802,0.1018,0.1049,0.1758,0.2251,0.2343,0.2682,0.3052,0.3267,0.3576,0.3885,0.4192,0.4621,0.5172,0.5845,0.6092,0.6613,0.7406,0.7958,0.8144,-1.9877,-1.9845,-1.9686,-1.936,-1.883,-1.7937,-1.7486,-1.7351,-1.6775,-1.6995,-1.7705,-1.7792,-1.7488,-1.6952,-1.6778,-1.6413,-1.6008,-1.5794,-1.5587,-1.5364,-1.5203,-1.4855,-1.4382,-1.4231,-1.3928,-1.3547,-1.3498,-1.3487,-1.3359,-1.3371,-1.3376,-1.3346,-1.3341,-1.3371,-1.3346,-1.3376,-1.3341,-1.3402,-1.4002,-1.4285,-1.4157,-1.332,-1.2724,-1.2359,-1.1545,-1.1061,-1.1061,-1.0759,-1.0425,-1.0095,-1.0061,-0.9792,-0.9247,-0.9122,-0.8815,-0.8205,-0.7475,-0.6738,-0.6029,-0.5078,-0.3943,-0.2775,-0.2683,-0.2406,-0.1912,-0.2159,-0.2406,-0.222,-0.1665,-0.1049,-0.0617,-0.0432,-0.0278,0.0,0.0,0.0,0.0,0.0,0.0,0.0,0.0,0.0,0.0093,0.0124,0.0,0.0,0.0525,0.0833,0.1049,0.1265,0.1327,0.1142,0.1111,0.1142,0.1234,0.1604,0.1819,0.1849,0.2744,0.3329,0.3544,0.3944,0.4373,0.465,0.4897,0.5174,0.5636,0.5972,0.6399,0.707,0.7317,0.7625,0.8388,0.8967,0.9214,-1.9174,-1.9072,-1.8457,-1.7647,-1.6834,-1.6353,-1.5996,-1.5634,-1.5253,-1.5117,-1.5339,-1.6232,-1.6427,-1.6056,-1.5526,-1.5255,-1.5113,-1.4613,-1.4379,-1.4259,-1.3703,-1.3385,-1.3281,-1.2746,-1.2418,-1.237,-1.237,-1.2413,-1.238,-1.2357,-1.2337,-1.2346,-1.2346,-1.2333,-1.2337,-1.2337,-1.2342,-1.2342,-1.2126,-1.2275,-1.2802,-1.2268,-1.1756,-1.1424,-1.0762,-1.0399,-1.0409,-1.0061,-0.9731,-0.9427,-0.94,-0.9247,-0.8946,-0.8635,-0.8175,-0.7508,-0.6552,-0.5264,-0.3606,-0.3269,-0.2744,-0.1788,-0.1665,-0.1511,-0.1111,-0.0895,-0.0987,-0.1326,-0.0987,-0.0586,-0.0494,-0.0247,0.0,0.0,0.0,0.0,0.0,0.0,0.0,0.0,0.0,0.0124,0.0401,0.0494,0.0617,0.0988,0.1265,0.1572,0.1757,0.2312,0.2806,0.2621,0.2127,0.1758,0.1973,0.2467,0.2836,0.296,0.3913,0.4588,0.4863,0.5262,0.5755,0.5937,0.6276,0.6613,0.6921,0.7441,0.8022,0.8113,0.8391,0.876,0.9153,0.9457,0.9548,-1.7744,-1.7518,-1.7222,-1.664,-1.5829,-1.5085,-1.466,-1.4464,-1.3908,-1.3551,-1.342,-1.3842,-1.4296,-1.4712,-1.4243,-1.3947,-1.3743,-1.3475,-1.3255,-1.3065,-1.2775,-1.258,-1.2354,-1.2094,-1.1918,-1.1822,-1.1782,-1.1733,-1.162,-1.1609,-1.1605,-1.1605,-1.1605,-1.1605,-1.1609,-1.1609,-1.1609,-1.1605,-1.1478,-1.1473,-1.1542,-1.1336,-1.1149,-1.0963,-1.0558,-1.0139,-0.9906,-0.9742,-0.9487,-0.9105,-0.8876,-0.8635,-0.8299,-0.7808,-0.7133,-0.625,-0.4928,-0.3666,-0.2497,-0.2251,-0.1758,-0.0956,-0.0925,-0.0771,-0.0432,-0.0278,-0.034,-0.0494,0.0,-0.0185,0.0,0.0,0.0,0.0,0.0,0.0,0.0,0.0185,0.0278,0.0309,0.0494,0.0618,0.0772,0.0987,0.1388,0.1975,0.2313,0.2559,0.3113,0.3575,0.3946,0.4283,0.4035,0.3605,0.3328,0.3697,0.4035,0.4343,0.5201,0.6059,0.6151,0.6644,0.7133,0.7284,0.7559,0.7839,0.8058,0.8299,0.8726,0.8879,0.9183,0.946,0.9582,0.97,0.9697,-1.6289,-1.6056,-1.5861,-1.5303,-1.4492,-1.3777,-1.342,-1.3288,-1.2754,-1.2396,-1.2144,-1.2041,-1.2404,-1.3054,-1.2955,-1.2758,-1.2561,-1.2524,-1.2396,-1.2177,-1.2041,-1.1876,-1.1648,-1.1516,-1.1417,-1.1319,-1.1272,-1.1214,-1.1081,-1.1073,-1.1041,-1.1073,-1.1041,-1.107,-1.107,-1.1038,-1.107,-1.1073,-1.1041,-1.0977,-1.0784,-1.0691,-1.065,-1.064,-1.0308,-0.9969,-0.9647,-0.9456,-0.9096,-0.8566,-0.8217,-0.781,-0.7284,-0.6726,-0.5858,-0.4678,-0.334,-0.2279,-0.1655,-0.1374,-0.0968,-0.0438,-0.0344,-0.025,0.0,0.0,0.0,0.0,0.0,0.0,0.0,0.0,0.0,0.0124,0.0124,0.0154,0.0,0.0525,0.0679,0.0771,0.0987,0.1265,0.1574,0.2035,0.2651,0.3207,0.3545,0.3822,0.4561,0.4897,0.5297,0.5757,0.591,0.5604,0.4742,0.5018,0.5354,0.5692,0.6488,0.7255,0.7347,0.7839,0.8177,0.8144,0.848,0.8693,0.8757,0.8973,0.9156,0.9396,0.9609,0.9761,0.9761,0.9788,0.9788,-1.4964,-1.4866,-1.4272,-1.3453,-1.2441,-1.2404,-1.221,-1.1975,-1.1843,-1.1813,-1.1747,-1.1413,-1.128,-1.1446,-1.1747,-1.1879,-1.1846,-1.1843,-1.181,-1.1747,-1.1413,-1.1247,-1.1181,-1.0886,-1.078,-1.0822,-1.0819,-1.0753,-1.0713,-1.072,-1.0733,-1.0723,-1.071,-1.0687,-1.0677,-1.0703,-1.0723,-1.0666,-1.0666,-1.0687,-1.0654,-1.0356,-1.0228,-1.0267,-0.9927,-0.9704,-0.9589,-0.9048,-0.8406,-0.7696,-0.7304,-0.67,-0.5838,-0.5358,-0.4396,-0.286,-0.1993,-0.1286,-0.074,-0.0611,-0.0418,0.0,0.0,0.0,0.0,0.0,0.0,0.0,0.0,0.0,0.0,0.0,0.0154,0.0401,0.0494,0.0648,0.0926,0.105,0.1142,0.1418,0.1634,0.2096,0.2838,0.3699,0.4129,0.4467,0.4897,0.5358,0.5604,0.6245,0.6705,0.695,0.7225,0.7317,0.6215,0.6305,0.6674,0.695,0.7469,0.8266,0.8419,0.8574,0.876,0.8915,0.9095,0.9214,0.9335,0.9457,0.9609,0.9731,0.9731,0.9788,0.9788,0.9788,0.9788,-1.3416,-1.3198,-1.2766,-1.2338,-1.1975,-1.1714,-1.1512,-1.1383,-1.1185,-1.1085,-1.1082,-1.0949,-1.0883,-1.092,-1.1049,-1.1118,-1.1085,-1.1085,-1.1082,-1.1085,-1.0953,-1.0886,-1.0886,-1.0754,-1.0721,-1.0721,-1.0721,-1.0591,-1.0389,-1.0389,-1.0256,-1.0093,-1.006,-1.0057,-1.0057,-1.006,-1.006,-1.0057,-1.006,-1.0057,-1.0027,-0.9685,-0.9504,-0.9517,-0.9407,-0.9169,-0.8892,-0.818,-0.7438,-0.6695,-0.6114,-0.5536,-0.4892,-0.3962,-0.2966,-0.1967,-0.1226,-0.0775,-0.0517,-0.0291,-0.0129,0.0,0.0,0.0,0.0,0.0,0.0,0.0,0.0,0.0,0.0254,0.0312,0.0371,0.0525,0.0895,0.1203,0.1419,0.1851,0.2344,0.2529,0.2928,0.3698,0.4313,0.4838,0.5297,0.5908,0.6215,0.6613,0.7194,0.7683,0.7897,0.8147,0.8363,0.8363,0.8022,0.7775,0.7897,0.805,0.8449,0.8784,0.9031,0.918,0.9366,0.9366,0.9518,0.9548,0.9579,0.9609,0.9788,0.9788,0.9788,0.9788,0.9788,0.9788,0.9788,-1.2268,-1.1945,-1.1681,-1.1549,-1.1416,-1.1152,-1.1049,-1.1016,-1.0784,-1.0721,-1.0721,-1.0721,-1.0721,-1.0688,-1.0588,-1.0522,-1.0555,-1.0654,-1.0721,-1.0721,-1.0721,-1.0721,-1.0688,-1.0588,-1.0555,-1.0522,-1.0422,-1.0259,-1.006,-0.9921,-0.9724,-0.9525,-0.9392,-0.9328,-0.9359,-0.9361,-0.9359,-0.9359,-0.9361,-0.9325,-0.9289,-0.8851,-0.8584,-0.8515,-0.8148,-0.8018,-0.807,-0.7217,-0.6399,-0.5689,-0.4931,-0.4213,-0.3528,-0.2484,-0.1668,-0.1177,-0.0654,-0.0327,-0.0327,-0.0131,0.0,0.0,0.0,0.0,0.0,0.0,0.0,0.013,0.0163,0.0325,0.0773,0.1045,0.1125,0.1089,0.1585,0.2045,0.2191,0.2929,0.3485,0.3884,0.4621,0.5358,0.5818,0.6186,0.6674,0.7317,0.7472,0.7869,0.8388,0.8662,0.8754,0.9007,0.9095,0.9153,0.9001,0.8842,0.8659,0.8784,0.8906,0.9275,0.9457,0.9667,0.9788,0.9788,0.9788,0.9788,0.9788,0.9788,0.9788,0.9788,0.9788,0.9788,0.9788,0.9788,0.9788,-1.1545,-1.1247,-1.1214,-1.1052,-1.082,-1.0787,-1.0721,-1.0754,-1.0721,-1.0721,-1.0721,-1.0684,-1.0654,-1.0621,-1.0356,-1.019,-1.0187,-1.0389,-1.0555,-1.0588,-1.0621,-1.0621,-1.0588,-1.0326,-1.0157,-1.0123,-0.9827,-0.9661,-0.9528,-0.9186,-0.9017,-0.895,-0.859,-0.8456,-0.8554,-0.8487,-0.8523,-0.849,-0.8456,-0.849,-0.8487,-0.7815,-0.7414,-0.7281,-0.618,-0.6044,-0.7238,-0.604,-0.5165,-0.4693,-0.3756,-0.2723,-0.1811,-0.104,-0.0571,-0.0537,-0.0202,0.0,0.0,0.0,0.0,0.0,0.0,0.0,0.0,0.0,0.0167,0.0462,0.0593,0.082,0.1557,0.2197,0.2404,0.2152,0.265,0.32,0.3505,0.4041,0.4684,0.5421,0.6245,0.6858,0.7133,0.7561,0.8113,0.8297,0.8543,0.876,0.8912,0.9122,0.9278,0.9335,0.9457,0.9548,0.967,0.9758,0.9545,0.9393,0.9515,0.97,0.967,0.9788,0.9788,0.9788,0.9788,0.9788,0.9788,0.9788,0.9788,0.9788,0.9788,0.9788,0.9788,0.9788,0.9788,-1.0986,-1.085,-1.0853,-1.0787,-1.0721,-1.0721,-1.0721,-1.0721,-1.0721,-1.0721,-1.0654,-1.0455,-1.0359,-1.0289,-1.0027,-0.9691,-0.9452,-0.9552,-0.9721,-0.9924,-0.9994,-0.9994,-0.9994,-0.9897,-0.9724,-0.9419,-0.9123,-0.8653,-0.8251,-0.8048,-0.7781,-0.7316,-0.7154,-0.7087,-0.7085,-0.7087,-0.7085,-0.7087,-0.7087,-0.6985,-0.6748,-0.6313,-0.5945,-0.5542,-0.4502,-0.4133,-0.4502,-0.41,-0.3731,-0.3361,-0.2556,-0.1716,-0.0976,-0.064,-0.0404,-0.0168,-0.0067,0.0,0.0,0.0,0.0,0.0,0.0,0.0,0.0303,0.0337,0.0538,0.0869,0.1103,0.1567,0.2326,0.3218,0.3478,0.2921,0.3839,0.4549,0.4796,0.5517,0.6464,0.7286,0.7744,0.8019,0.8238,0.8665,0.8787,0.897,0.9122,0.9247,0.946,0.9518,0.9636,0.9667,0.9788,0.9788,0.9788,0.9788,0.9697,0.9576,0.9697,0.9788,0.9788,0.9788,0.9788,0.9788,0.9788,0.9788,0.9788,0.9788,0.9788,0.9788,0.9788,0.9788,0.9788,0.9788,0.9788,-1.0853,-1.0772,-1.0772,-1.0738,-1.0691,-1.0588,-1.0522,-1.0489,-1.0389,-1.0323,-1.0256,-0.9954,-0.9788,-0.9655,-0.9156,-0.8753,-0.8481,-0.8251,-0.822,-0.8556,-0.9125,-0.9259,-0.9225,-0.8989,-0.8587,-0.812,-0.7753,-0.7348,-0.6913,-0.6612,-0.628,-0.588,-0.5679,-0.5612,-0.561,-0.5612,-0.5612,-0.5612,-0.561,-0.551,-0.524,-0.4839,-0.4472,-0.4102,-0.3161,-0.2658,-0.259,-0.2354,-0.2253,-0.2153,-0.1581,-0.0909,-0.0404,-0.0303,-0.0236,0.0,0.0,0.0,0.0,0.0,0.0067,0.0168,0.0202,0.0337,0.064,0.0808,0.1111,0.1481,0.1918,0.2523,0.3427,0.43,0.4762,0.4852,0.553,0.6126,0.645,0.7075,0.776,0.8396,0.8665,0.8857,0.8973,0.9186,0.9278,0.9457,0.9488,0.9518,0.9731,0.9788,0.9788,0.9788,0.9788,0.9788,0.9788,0.9788,0.9788,0.9758,0.9758,0.9788,0.9788,0.9788,0.9788,0.9788,0.9788,0.9788,0.9788,0.9788,0.9788,0.9788,0.9788,0.9788,0.9788,0.9788,0.9788,-1.1046,-1.0863,-1.086,-1.0718,-1.0575,-1.0338,-1.0181,-1.0095,-0.9868,-0.971,-0.9604,-0.9177,-0.8993,-0.8781,-0.7973,-0.7459,-0.7259,-0.6736,-0.6428,-0.6721,-0.7486,-0.8084,-0.8187,-0.7581,-0.6982,-0.6449,-0.6079,-0.5811,-0.561,-0.5106,-0.4705,-0.4571,-0.4303,-0.4167,-0.4167,-0.4167,-0.4167,-0.4201,-0.4167,-0.4167,-0.4066,-0.3497,-0.3094,-0.3026,-0.212,-0.1581,-0.1514,-0.1043,-0.0909,-0.1313,-0.0842,-0.0404,0.0,0.0,0.0,0.0,0.0,0.0,0.0,0.0,0.0168,0.0404,0.0572,0.074,0.1211,0.1582,0.1985,0.249,0.3027,0.3765,0.4705,0.5609,0.6435,0.7398,0.7461,0.7791,0.8634,0.8701,0.8821,0.9097,0.9288,0.9352,0.9368,0.9571,0.97,0.9761,0.9761,0.9758,0.9788,0.9788,0.9788,0.9788,0.9788,0.9788,0.9788,0.9788,0.9788,0.9788,0.9788,0.9788,0.9788,0.9788,0.9788,0.9788,0.9788,0.9788,0.9788,0.9788,0.9788,0.9788,0.9788,0.9788,0.9788,0.9788,0.9788,-1.0555,-1.0247,-1.0213,-1.0222,-1.0191,-1.0091,-0.988,-0.9643,-0.9503,-0.9214,-0.8988,-0.8369,-0.8011,-0.7917,-0.688,-0.6267,-0.5947,-0.5493,-0.5121,-0.4943,-0.5173,-0.5908,-0.6345,-0.5876,-0.5409,-0.5176,-0.4806,-0.4435,-0.3933,-0.3732,-0.3362,-0.2894,-0.2894,-0.2792,-0.2759,-0.2792,-0.2759,-0.2759,-0.2759,-0.2624,-0.2355,-0.2187,-0.1885,-0.1615,-0.111,-0.0842,-0.0774,-0.037,-0.0168,-0.037,-0.0269,-0.0101,0.0,0.0,0.0,0.0,0.0,0.0,0.0,0.0269,0.0404,0.0539,0.1077,0.1615,0.222,0.259,0.3194,0.3935,0.4572,0.5141,0.5943,0.6915,0.8053,0.9141,0.8884,0.8829,0.9424,0.9605,0.9611,0.9914,0.9865,0.9788,0.9786,0.9777,0.9808,0.9805,0.9795,0.9788,0.9788,0.9788,0.9788,0.9788,0.9788,0.9788,0.9788,0.9788,0.9788,0.9788,0.9788,0.9788,0.9788,0.9788,0.9788,0.9788,0.9788,0.9788,0.9788,0.9788,0.9788,0.9788,0.9788,0.9788,0.9788,0.9788,0.9788,-1.0155,-0.9861,-0.9684,-0.9585,-0.9507,-0.9189,-0.8908,-0.8633,-0.8318,-0.8007,-0.759,-0.7063,-0.6682,-0.6438,-0.5354,-0.4778,-0.4537,-0.4015,-0.3619,-0.3426,-0.3253,-0.381,-0.4419,-0.4269,-0.4,-0.3666,-0.3363,-0.2959,-0.259,-0.2388,-0.2086,-0.1851,-0.1751,-0.1751,-0.1784,-0.1717,-0.1751,-0.175,-0.1717,-0.1616,-0.1414,-0.1212,-0.1043,-0.0808,-0.0505,-0.0303,-0.0269,-0.0101,0.0,0.0,0.0,0.0,0.0,0.0,0.0,0.0,0.0101,0.0,0.0303,0.0673,0.1043,0.1313,0.1884,0.259,0.3294,0.3798,0.4539,0.5108,0.5845,0.6514,0.7183,0.822,0.9256,0.9915,0.9885,0.9834,1.0257,1.0162,1.0182,1.0302,1.0246,1.0113,1.0141,0.9981,0.991,0.9876,0.9825,0.9808,0.9788,0.9792,0.9788,0.9788,0.9788,0.9788,0.9788,0.9788,0.9788,0.9788,0.9788,0.9788,0.9788,0.9788,0.9788,0.9788,0.9788,0.9788,0.9788,0.9788,0.9788,0.9788,0.9788,0.9788,0.9788,0.9788,0.9788,-0.9598,-0.9387,-0.903,-0.8797,-0.8513,-0.7904,-0.7535,-0.731,-0.6793,-0.6339,-0.5919,-0.5487,-0.5187,-0.4678,-0.3817,-0.3167,-0.3126,-0.2562,-0.2278,-0.2097,-0.1953,-0.2213,-0.2821,-0.2954,-0.2682,-0.2241,-0.1725,-0.1626,-0.1527,-0.1219,-0.1046,-0.1013,-0.0978,-0.101,-0.101,-0.0976,-0.101,-0.0976,-0.0976,-0.0976,-0.0875,-0.0673,-0.0505,-0.0438,-0.0236,0.0,0.0,0.0,0.0,0.0,0.0,0.0,0.0,0.0,0.0,0.0,0.0438,0.0673,0.0774,0.1346,0.1918,0.2289,0.2993,0.3697,0.4435,0.5141,0.5813,0.6345,0.708,0.7781,0.8387,0.9492,1.0024,1.0286,1.0479,1.0651,1.0664,1.0602,1.0517,1.0507,1.0388,1.0349,1.0298,1.0181,1.0042,1.0032,0.9954,0.9883,0.9846,0.9815,0.9805,0.9788,0.9788,0.9788,0.9788,0.9788,0.9788,0.9788,0.9788,0.9788,0.9788,0.9788,0.9788,0.9788,0.9788,0.9788,0.9788,0.9788,0.9788,0.9788,0.9788,0.9788,0.9788,0.9788,0.9788,-0.8129,-0.7573,-0.7499,-0.7236,-0.6965,-0.6745,-0.6312,-0.5731,-0.5553,-0.5223,-0.4874,-0.426,-0.3896,-0.3717,-0.263,-0.2049,-0.203,-0.1565,-0.1347,-0.1333,-0.1262,-0.1085,-0.1251,-0.146,-0.1494,-0.1285,-0.1251,-0.1042,-0.0797,-0.0687,-0.0479,-0.0308,0.0,0.0,0.0,0.0,0.0,0.0,0.0,0.0,0.0,0.0,0.0,0.0,0.0,0.0,0.0,0.0,0.0,0.0,0.0,0.0,0.0,0.0303,0.0438,0.0572,0.1043,0.138,0.1548,0.2254,0.2892,0.3162,0.4235,0.5109,0.5542,0.6479,0.7283,0.7917,0.8484,0.8984,0.9555,0.9957,1.0289,1.0522,1.0621,1.0721,1.0714,1.069,1.066,1.0629,1.0538,1.0478,1.0439,1.0317,1.0239,1.0212,1.0127,0.9991,0.993,0.9907,0.9849,0.9839,0.9792,0.9792,0.9788,0.9788,0.9788,0.9788,0.9788,0.9788,0.9788,0.9788,0.9788,0.9788,0.9788,0.9788,0.9788,0.9788,0.9788,0.9788,0.9788,0.9788,0.9788,0.9788,0.9788,-0.6513,-0.6152,-0.597,-0.579,-0.5533,-0.5204,-0.4803,-0.4367,-0.3969,-0.3642,-0.3279,-0.2805,-0.2587,-0.2368,-0.1603,-0.1198,-0.1084,-0.0758,-0.0576,-0.0573,-0.0572,-0.0465,-0.0357,-0.0464,-0.0569,0.0,-0.0596,-0.0421,-0.0315,0.0,-0.0173,0.0,0.0,0.0,0.0,0.0,0.0,0.0,0.0,0.0,0.0,0.0,0.0,0.0,0.0,0.0,0.0,0.0,0.0,0.0303,0.0539,0.0572,0.0404,0.0707,0.0976,0.1144,0.1884,0.2288,0.259,0.3464,0.4237,0.4269,0.5579,0.6382,0.6982,0.7784,0.8451,0.902,0.9422,0.9857,1.0356,1.0422,1.0555,1.0621,1.0721,1.0721,1.0721,1.0721,1.0721,1.0707,1.0646,1.0609,1.0555,1.0449,1.0399,1.0368,1.0256,1.0154,1.0086,1.0028,0.995,0.9907,0.9829,0.9795,0.9792,0.9788,0.9788,0.9788,0.9788,0.9788,0.9788,0.9788,0.9788,0.9788,0.9788,0.9788,0.9788,0.9788,0.9788,0.9788,0.9788,0.9788,0.9788,0.9788,0.9788,-0.4878,-0.4732,-0.4444,-0.43,-0.4153,-0.3532,-0.3205,-0.3023,-0.2442,-0.2115,-0.1677,-0.164,-0.1495,-0.1131,-0.073,-0.0511,-0.0438,0.0,0.0,0.0,0.0,0.0,0.0,0.0,0.0,0.0,0.0,0.0,0.0,0.0,0.0,0.0,0.0,0.0,0.0,0.0,0.0,0.0,0.0,0.0,0.0,0.0,0.0,0.0,0.0,0.0,0.0,0.0547,0.0713,0.0745,0.1457,0.149,0.1319,0.1414,0.1851,0.1918,0.2926,0.3531,0.3867,0.4806,0.5713,0.578,0.6949,0.7784,0.8251,0.8787,0.9289,0.9655,1.0024,1.0323,1.0651,1.0651,1.0688,1.0721,1.0721,1.0721,1.0721,1.0721,1.0721,1.0717,1.0697,1.0677,1.0656,1.0588,1.0555,1.0504,1.0392,1.0307,1.027,1.0205,1.0092,1.0015,0.9944,0.9825,0.9802,0.9798,0.9795,0.9788,0.9788,0.9788,0.9788,0.9788,0.9788,0.9788,0.9788,0.9788,0.9788,0.9788,0.9788,0.9788,0.9788,0.9788,0.9788,0.9788,0.9788,-0.3387,-0.277,-0.2733,-0.2514,-0.2223,-0.204,-0.1895,-0.1569,-0.1495,-0.135,-0.124,-0.0949,-0.0803,-0.062,-0.0292,0.0,0.0,0.0,0.0,0.0,0.0,0.0,0.0,0.0,0.0,0.0,0.0,0.0,0.0,0.0,0.0,0.0,0.0,0.0,0.0,0.0,0.0,0.0,0.0,0.0,0.0,0.0,0.0247,0.0493,0.0526,0.0699,0.1013,0.1291,0.1533,0.1673,0.2611,0.2992,0.3044,0.3032,0.3105,0.3267,0.4272,0.5009,0.521,0.6278,0.7014,0.7414,0.8148,0.8748,0.9084,0.9519,0.9954,1.0123,1.0389,1.0654,1.0688,1.0721,1.0721,1.0721,1.0721,1.0721,1.0721,1.0721,1.0721,1.0721,1.0721,1.0717,1.0694,1.0677,1.0649,1.0602,1.0527,1.047,1.0446,1.0361,1.0259,1.0185,1.0076,0.9937,0.9819,0.9812,0.9805,0.9792,0.9788,0.9788,0.9788,0.9788,0.9788,0.9788,0.9788,0.9788,0.9788,0.9788,0.9788,0.9788,0.9788,0.9788,0.9788,0.9788,0.9788,-0.2078,-0.1714,-0.1714,-0.1605,-0.1422,-0.1203,-0.1058,-0.0876,-0.0693,-0.0584,-0.0511,-0.0365,-0.0292,-0.0255,-0.0109,0.0,0.0,0.0,0.0,0.0,0.0,0.0,0.0,0.0,0.0,0.0,0.0,0.0,0.0,0.0,0.0,0.0,0.0,0.0,0.0,0.0,0.0,0.0,0.0215,0.0322,0.0358,0.0465,0.0751,0.0894,0.1137,0.131,0.1556,0.2319,0.2629,0.2943,0.3923,0.4482,0.4779,0.5161,0.5232,0.4861,0.5706,0.6485,0.665,0.7615,0.8282,0.8415,0.9153,0.9619,0.9785,1.012,1.0422,1.0489,1.0555,1.0721,1.0721,1.0721,1.0721,1.0721,1.0721,1.0721,1.0721,1.0721,1.0721,1.0721,1.0721,1.0721,1.0717,1.0711,1.0717,1.069,1.0646,1.0619,1.0595,1.0504,1.0424,1.0321,1.0243,1.0082,0.9954,0.9947,0.992,0.989,0.9819,0.9819,0.9798,0.9802,0.9795,0.9788,0.9788,0.9788,0.9788,0.9788,0.9788,0.9788,0.9788,0.9788,0.9788,0.9788,0.9788,-0.1058,-0.0949,-0.0949,-0.0949,-0.0912,-0.062,-0.0474,-0.0401,-0.0182,0.0,0.0,0.0,0.0,0.0,0.0,0.0,0.0,0.0,0.0,0.0,0.0,0.0,0.0,0.0,0.0,0.0,0.0,0.0073,0.0,0.0,0.0,0.0,0.0,0.0,0.0,0.0,0.0,0.0328,0.0511,0.073,0.0912,0.1204,0.1532,0.1678,0.1984,0.2223,0.2723,0.3489,0.4041,0.4497,0.5339,0.618,0.6383,0.7491,0.7613,0.6805,0.7396,0.779,0.8151,0.8728,0.9339,0.9375,0.994,1.0229,1.0323,1.0452,1.0688,1.0721,1.0721,1.0721,1.0721,1.0721,1.0721,1.0721,1.0721,1.0721,1.0721,1.0721,1.0721,1.0721,1.0721,1.0721,1.0721,1.0721,1.0721,1.0721,1.0677,1.068,1.0656,1.0612,1.0524,1.0489,1.0371,1.0259,1.0161,1.0103,1.007,1.0032,0.9937,0.9893,0.9856,0.9822,0.9815,0.9815,0.9788,0.9788,0.9788,0.9792,0.9788,0.9788,0.9788,0.9788,0.9788,0.9788,0.9788,-0.0474,0.0,0.0,-0.0146,0.0,0.0,0.0,0.0,0.0,0.0,0.0,0.0,0.0,0.0,0.0,0.0,0.0,0.0,0.0,0.0,0.0,0.0,0.0,0.0,0.0,0.0511,0.0547,0.0328,0.0,0.0,0.0,0.0,0.0401,0.0547,0.062,0.0839,0.1058,0.1058,0.1131,0.1349,0.1714,0.2078,0.2587,0.3057,0.3379,0.377,0.4456,0.5162,0.5632,0.6103,0.7119,0.7738,0.798,0.8863,0.9353,0.926,0.9295,0.9357,0.9386,0.9816,1.0198,1.0213,1.0488,1.0611,1.0641,1.0628,1.0721,1.0721,1.0721,1.0721,1.0721,1.0721,1.0721,1.0721,1.0721,1.0721,1.0721,1.0721,1.0721,1.0721,1.0721,1.0721,1.0721,1.0721,1.0721,1.0721,1.0721,1.0721,1.0711,1.0663,1.0633,1.0561,1.0514,1.0409,1.031,1.0256,1.0205,1.0168,1.01,0.9994,0.9978,0.9944,0.9859,0.9852,0.9832,0.9825,0.9836,0.9832,0.9805,0.9788,0.9788,0.9788,0.9788,0.9788,0.9788,-0.0146,0.0,0.0,0.0,0.0,0.0,0.0,0.0,0.0,0.0,0.0,0.0,0.0,0.0,0.0,0.0,0.0,0.0,0.0,0.0,0.0219,0.0328,0.0,0.0,0.0,0.0985,0.1131,0.1203,0.0948,0.0802,0.0657,0.0693,0.0876,0.1095,0.1313,0.1422,0.1604,0.1859,0.226,0.2806,0.3316,0.3752,0.4114,0.4478,0.4878,0.5386,0.5931,0.6728,0.7127,0.7562,0.8466,0.908,0.9291,0.9899,1.0406,1.0438,1.0608,1.053,1.0282,1.0623,1.0765,1.0851,1.0893,1.0917,1.083,1.0745,1.0731,1.0721,1.0721,1.0721,1.0721,1.0721,1.0721,1.0721,1.0721,1.0721,1.0721,1.0721,1.0721,1.0721,1.0721,1.0721,1.0721,1.0721,1.0721,1.0721,1.0721,1.0721,1.0721,1.0704,1.0677,1.0653,1.0612,1.0568,1.0473,1.0395,1.0327,1.0283,1.0236,1.0178,1.0171,1.0127,1.0046,0.9978,0.9988,0.9964,0.992,0.9849,0.9795,0.9788,0.9788,0.9788,0.9788,0.9788,0.9788,0.0,0.0,0.0,0.0,0.0,0.0,0.0,0.0,0.0,0.0,0.0,0.0,0.0,0.0,0.0,0.0,0.0,0.0109,0.0146,0.0292,0.0584,0.0875,0.1021,0.124,0.1605,0.1751,0.2113,0.2332,0.2405,0.2224,0.2042,0.1532,0.1823,0.2005,0.2223,0.255,0.2842,0.3206,0.3896,0.4514,0.5024,0.5426,0.5713,0.6039,0.6475,0.6982,0.7381,0.7996,0.8504,0.8935,0.9554,1.0098,1.0236,1.0665,1.1057,1.1126,1.1286,1.1255,1.1004,1.1054,1.1195,1.1244,1.12,1.1084,1.1012,1.0884,1.0765,1.0806,1.0762,1.0738,1.0698,1.0721,1.0721,1.0721,1.0721,1.0721,1.0721,1.0721,1.0721,1.0721,1.0721,1.0721,1.0721,1.0721,1.0721,1.0721,1.0721,1.0721,1.0721,1.0721,1.0707,1.0687,1.0677,1.0653,1.0605,1.0524,1.046,1.0409,1.0365,1.0334,1.0324,1.0312,1.0237,1.0185,1.0147,1.0113,1.0107,0.9927,0.9788,0.9788,0.9788,0.9788,0.9788,0.9795,0.9792,0.0,0.0,0.0,0.0,0.0,0.0,0.0,0.0,0.0,0.0,0.0,0.0,0.0,0.0,0.0,0.0,0.0036,0.0401,0.0547,0.0839,0.1239,0.164,0.1895,0.2223,0.2697,0.3205,0.3495,0.3896,0.4299,0.4299,0.3463,0.2515,0.3097,0.3314,0.3642,0.4115,0.4587,0.5023,0.5675,0.6112,0.6477,0.6803,0.724,0.7743,0.7996,0.8466,0.9554,0.9663,0.9807,1.0092,1.057,1.0825,1.0933,1.1224,1.144,1.1476,1.1512,1.1504,1.1436,1.1359,1.135,1.1338,1.1302,1.1223,1.1151,1.1172,1.1067,1.0951,1.0897,1.083,1.0789,1.0724,1.0721,1.0721,1.0721,1.0721,1.0721,1.0721,1.0721,1.0721,1.0721,1.0721,1.0721,1.0721,1.0721,1.0721,1.0721,1.0721,1.0754,1.0754,1.0754,1.0711,1.0714,1.0707,1.0707,1.0649,1.0595,1.0561,1.0524,1.0497,1.0477,1.0419,1.0414,1.0341,1.0324,1.0293,1.0236,1.009,0.9958,0.9829,0.9808,0.9876,0.9866,0.9852,0.9829,0.0,0.0,0.0,0.0,0.0,0.0,0.0,0.0,0.0,0.0,0.0,0.0,0.0,0.0,0.0292,0.0365,0.0438,0.1021,0.1203,0.1641,0.2186,0.2732,0.3059,0.3605,0.4296,0.4623,0.4985,0.535,0.5678,0.6007,0.5899,0.5315,0.4912,0.4914,0.5315,0.5823,0.6368,0.6873,0.7306,0.76,0.8215,0.8577,0.8941,0.9157,0.9513,0.9732,1.0203,1.0462,1.0642,1.0858,1.1185,1.1293,1.1329,1.1512,1.1584,1.158,1.158,1.158,1.158,1.1526,1.1535,1.1501,1.1399,1.1339,1.1332,1.1264,1.1193,1.1094,1.1077,1.1012,1.086,1.0826,1.0813,1.0728,1.0727,1.0734,1.0731,1.0771,1.0787,1.082,1.0754,1.0721,1.0721,1.0721,1.0721,1.0721,1.0721,1.0754,1.0853,1.092,1.0953,1.0953,1.0986,1.092,1.0886,1.082,1.0754,1.0756,1.0726,1.0757,1.0756,1.0626,1.0582,1.0531,1.0466,1.0432,1.0354,1.0219,1.012,1.0053,1.0046,1.0076,1.0005,0.9937,0.9907,0.0,0.0,0.0,0.0,0.0,0.0,0.0,0.0,0.0,0.0,0.0182,0.0182,0.0255,0.0438,0.0729,0.0948,0.1203,0.1786,0.215,0.2732,0.3496,0.4079,0.455,0.5132,0.5822,0.6112,0.6547,0.6946,0.7344,0.7566,0.7675,0.7491,0.7091,0.7018,0.6837,0.7564,0.8107,0.8502,0.8827,0.901,0.9627,0.9843,1.0098,1.017,1.0422,1.0639,1.0822,1.1041,1.1113,1.1257,1.14,1.1544,1.158,1.158,1.158,1.158,1.158,1.158,1.158,1.158,1.158,1.1543,1.1528,1.1467,1.143,1.1352,1.1359,1.1274,1.1226,1.1172,1.1002,1.0972,1.0958,1.0931,1.0806,1.0792,1.0859,1.0882,1.0911,1.092,1.0953,1.1118,1.1148,1.1181,1.1115,1.1049,1.0949,1.1049,1.1251,1.1284,1.1317,1.1317,1.1317,1.1218,1.1118,1.1218,1.128,1.1244,1.1255,1.1163,1.1123,1.0982,1.0883,1.0844,1.0756,1.0633,1.0514,1.0439,1.0354,1.0301,1.0249,1.0219,1.0178,1.0114,1.0083,0.0,0.0,0.0,0.0,0.0,0.0,0.0,0.0,0.0,0.0292,0.0584,0.0584,0.0803,0.1167,0.1531,0.1786,0.2077,0.295,0.3532,0.3896,0.5059,0.5644,0.6079,0.6624,0.7419,0.7885,0.8177,0.8538,0.9082,0.9013,0.9266,0.9518,0.9155,0.8902,0.8285,0.9227,0.9771,0.9879,1.0164,1.0311,1.0455,1.053,1.0711,1.0858,1.0933,1.1113,1.1329,1.14,1.1476,1.1508,1.1544,1.158,1.158,1.158,1.158,1.158,1.158,1.158,1.158,1.158,1.158,1.158,1.1572,1.1575,1.1596,1.1569,1.1511,1.1396,1.1382,1.1311,1.1223,1.1193,1.1176,1.1073,1.0945,1.0972,1.1042,1.1074,1.114,1.1404,1.1604,1.1747,1.178,1.1743,1.1611,1.1479,1.1247,1.1347,1.1648,1.1876,1.1975,1.1909,1.1909,1.1876,1.1843,1.181,1.181,1.1776,1.1776,1.1743,1.1611,1.1483,1.1347,1.1247,1.1123,1.1005,1.0871,1.0727,1.0601,1.0504,1.0368,1.0331,1.0325,1.0295,1.0226,0.0146,0.0401,0.0401,0.0547,0.0693,0.0219,0.0146,0.0438,0.0657,0.0876,0.1022,0.1203,0.1385,0.175,0.2514,0.295,0.3205,0.4405,0.5024,0.5242,0.6585,0.7163,0.76,0.8215,0.8974,0.9299,0.9516,0.9696,1.0056,1.0095,1.0131,1.0311,1.0458,1.0275,0.9912,1.0203,1.0347,1.057,1.0786,1.093,1.1185,1.1221,1.1257,1.1368,1.1368,1.144,1.158,1.158,1.158,1.158,1.158,1.158,1.158,1.158,1.158,1.158,1.158,1.158,1.158,1.158,1.158,1.158,1.158,1.158,1.158,1.158,1.1579,1.1552,1.1521,1.1443,1.1355,1.1321,1.1319,1.1203,1.1159,1.1296,1.1364,1.1391,1.1489,1.1952,1.2251,1.2451,1.2526,1.27,1.2597,1.2532,1.2433,1.214,1.2272,1.2663,1.2857,1.2692,1.2659,1.2626,1.2626,1.2696,1.2659,1.2659,1.2528,1.233,1.2202,1.2173,1.1945,1.1876,1.1644,1.1416,1.1317,1.1178,1.0882,1.0704,1.0658,1.0499,1.0432,1.0399,1.0361,0.0438,0.0803,0.0949,0.1131,0.124,0.0693,0.0657,0.0985,0.1277,0.1568,0.2005,0.2259,0.2622,0.3132,0.3787,0.444,0.4623,0.5787,0.6549,0.6732,0.7851,0.843,0.8974,0.959,0.9951,1.0314,1.0494,1.0711,1.0854,1.089,1.089,1.0966,1.1077,1.1005,1.0858,1.0926,1.1002,1.1149,1.1221,1.1329,1.1472,1.1544,1.1544,1.1584,1.158,1.158,1.158,1.158,1.158,1.158,1.158,1.158,1.158,1.158,1.158,1.158,1.158,1.158,1.158,1.158,1.158,1.158,1.158,1.158,1.158,1.158,1.158,1.1573,1.158,1.1565,1.1484,1.146,1.1451,1.1371,1.1535,1.1674,1.1936,1.1999,1.2512,1.2938,1.3398,1.3478,1.3571,1.3568,1.3678,1.3682,1.3682,1.3354,1.3128,1.3486,1.3875,1.3805,1.3707,1.3744,1.3744,1.3678,1.3645,1.3543,1.3477,1.3411,1.3251,1.3288,1.2898,1.2503,1.2367,1.2169,1.1912,1.1703,1.142,1.1189,1.1007,1.0852,1.0611,1.0538,1.05,0.0876,0.1277,0.1604,0.1786,0.1786,0.1641,0.1641,0.1822,0.1858,0.255,0.3531,0.3605,0.4114,0.5059,0.5644,0.6041,0.6473,0.731,0.7781,0.8251,0.9046,0.9482,0.9915,1.0347,1.0714,1.0933,1.1041,1.1181,1.1512,1.14,1.1436,1.1476,1.1472,1.1436,1.1436,1.1436,1.1436,1.1472,1.1472,1.1508,1.158,1.158,1.158,1.158,1.158,1.158,1.158,1.158,1.158,1.158,1.158,1.158,1.158,1.158,1.158,1.158,1.158,1.158,1.158,1.158,1.158,1.158,1.158,1.158,1.158,1.158,1.158,1.158,1.158,1.158,1.1596,1.1628,1.1654,1.1792,1.1977,1.2259,1.2601,1.3067,1.3753,1.4305,1.4921,1.5197,1.5276,1.5238,1.5115,1.5152,1.5208,1.5117,1.4861,1.467,1.4992,1.5085,1.502,1.4996,1.4959,1.4954,1.495,1.4982,1.4954,1.4889,1.4698,1.4464,1.417,1.3777,1.328,1.2955,1.2729,1.2404,1.2037,1.178,1.1516,1.1171,1.0939,1.0693,1.0643,0.1932,0.2842,0.295,0.3315,0.3826,0.3969,0.3678,0.3132,0.3787,0.4441,0.4732,0.5313,0.5784,0.6114,0.6984,0.7417,0.796,0.861,0.9119,0.9627,0.999,1.0426,1.0753,1.1041,1.1296,1.1368,1.1436,1.1436,1.1548,1.158,1.158,1.158,1.158,1.158,1.158,1.158,1.158,1.158,1.158,1.158,1.158,1.158,1.158,1.158,1.158,1.158,1.158,1.158,1.158,1.158,1.158,1.158,1.158,1.158,1.158,1.158,1.158,1.158,1.158,1.158,1.158,1.158,1.158,1.158,1.158,1.1616,1.1616,1.1655,1.1691,1.1727,1.1832,1.1939,1.2047,1.2226,1.2532,1.3011,1.3455,1.4128,1.4852,1.5916,1.6534,1.6875,1.698,1.6885,1.6755,1.6758,1.6727,1.6702,1.6499,1.6244,1.6066,1.6164,1.6326,1.6294,1.6359,1.6381,1.6386,1.6391,1.6391,1.6326,1.6094,1.5829,1.5504,1.5047,1.452,1.4002,1.3551,1.3256,1.3087,1.2404,1.2074,1.1644,1.128,1.1049,1.0817,0.3096,0.4149,0.4334,0.4879,0.5609,0.6148,0.5927,0.5421,0.5602,0.5858,0.64,0.6835,0.7344,0.7923,0.8502,0.8899,0.9152,0.966,1.0095,1.0389,1.0801,1.1005,1.1296,1.1486,1.1512,1.1584,1.1587,1.1544,1.163,1.1587,1.158,1.158,1.158,1.1587,1.158,1.158,1.158,1.158,1.158,1.1584,1.158,1.158,1.158,1.158,1.158,1.158,1.158,1.158,1.158,1.158,1.158,1.158,1.158,1.158,1.158,1.158,1.158,1.158,1.158,1.158,1.158,1.1616,1.1616,1.1691,1.1724,1.1724,1.1799,1.1835,1.1871,1.1943,1.2119,1.2295,1.2474,1.2653,1.3218,1.3821,1.4482,1.5172,1.6239,1.7448,1.8067,1.8506,1.8575,1.8467,1.8421,1.8431,1.8434,1.8442,1.8032,1.7514,1.7255,1.7195,1.7427,1.7594,1.7653,1.7685,1.7717,1.7749,1.7846,1.7711,1.748,1.7125,1.6737,1.6251,1.5764,1.5308,1.4917,1.4558,1.4263,1.3613,1.3058,1.2696,1.2169,1.1413,1.1181,0.4369,0.5495,0.5896,0.6587,0.7278,0.7937,0.8196,0.8191,0.734,0.7323,0.8109,0.8283,0.8874,0.9479,0.9886,1.0154,1.0323,1.0662,1.0929,1.1047,1.1171,1.1398,1.1569,1.1664,1.1735,1.1687,1.1681,1.1745,1.1687,1.1708,1.1728,1.1653,1.1684,1.1714,1.1731,1.1725,1.1738,1.1742,1.1721,1.1704,1.1633,1.158,1.158,1.158,1.158,1.158,1.158,1.158,1.158,1.158,1.158,1.158,1.158,1.158,1.158,1.158,1.158,1.158,1.158,1.158,1.158,1.1616,1.1619,1.1835,1.1907,1.1907,1.1943,1.2226,1.2334,1.2477,1.2649,1.3146,1.3468,1.3789,1.4288,1.4959,1.5641,1.6591,1.7842,1.8913,1.9542,1.9922,2.0033,1.9887,1.9692,1.9881,1.9839,1.9855,1.9582,1.8903,1.858,1.836,1.8469,1.8699,1.872,1.8784,1.8976,1.9072,1.9072,1.9008,1.8714,1.8328,1.7905,1.755,1.7222,1.6834,1.6446,1.6084,1.5629,1.502,1.4464,1.3973,1.3218,1.2301,1.1512,0.6078,0.7451,0.8179,0.876,0.9207,0.9512,0.9804,1.0071,0.9945,0.9614,0.9546,0.9782,1.0085,1.0496,1.083,1.1048,1.1207,1.1409,1.1723,1.1744,1.1737,1.1704,1.1935,1.1898,1.1925,1.1955,1.1992,1.1921,1.1908,1.1958,1.1979,1.1942,1.1925,1.1908,1.1948,1.1911,1.1911,1.1898,1.1894,1.1803,1.1684,1.1597,1.158,1.158,1.158,1.158,1.158,1.158,1.158,1.158,1.158,1.158,1.158,1.158,1.158,1.158,1.158,1.158,1.158,1.1616,1.1619,1.1727,1.1835,1.2015,1.2122,1.2086,1.2266,1.2617,1.29,1.3079,1.3468,1.4034,1.46,1.499,1.5421,1.6124,1.6866,1.8131,1.9465,2.0196,2.0886,2.1152,2.1267,2.1235,2.1078,2.0915,2.0757,2.0684,2.0723,2.0302,1.9982,1.9741,1.9614,1.9742,1.9749,1.9749,1.9813,1.9845,1.9813,1.9813,1.9851,1.9392,1.8938,1.897,1.8746,1.8258,1.784,1.7609,1.7093,1.6451,1.5736,1.5178,1.4366,1.3448,1.2363,0.7634,0.8907,0.9649,1.011,1.0351,1.061,1.0863,1.1064,1.1316,1.1228,1.0911,1.0971,1.1086,1.127,1.1566,1.1673,1.1806,1.1982,1.1996,1.2047,1.2121,1.2043,1.2098,1.2118,1.2077,1.2094,1.2094,1.2084,1.2121,1.2091,1.2081,1.2111,1.2111,1.2111,1.2108,1.2104,1.2111,1.2091,1.2111,1.1972,1.1796,1.1759,1.1638,1.1617,1.1623,1.1626,1.158,1.158,1.158,1.158,1.158,1.158,1.158,1.158,1.158,1.158,1.158,1.158,1.158,1.1619,1.1691,1.1871,1.2015,1.223,1.3118,1.3186,1.3396,1.3749,1.3999,1.4177,1.4955,1.5593,1.6054,1.6482,1.6871,1.7399,1.8377,1.9593,2.0572,2.1327,2.1784,2.1915,2.2048,2.2172,2.2076,2.2035,2.1873,2.161,2.1624,2.1485,2.1246,2.1013,2.0754,2.0548,2.0451,2.0477,2.0507,2.0545,2.0553,2.0437,2.0355,2.017,1.9998,1.9807,1.9616,1.943,1.9072,1.8778,1.8489,1.791,1.713,1.6321,1.5443,1.4497,1.3448,0.9047,1.0127,1.0639,1.0937,1.1086,1.1448,1.1604,1.1648,1.1968,1.2128,1.2006,1.1743,1.1886,1.2016,1.2128,1.2142,1.2176,1.2196,1.2196,1.219,1.2193,1.2227,1.2182,1.2149,1.2169,1.2172,1.2169,1.2203,1.2213,1.221,1.2213,1.2166,1.2156,1.2162,1.2156,1.2162,1.22,1.2179,1.2176,1.2169,1.2074,1.1945,1.1823,1.1725,1.1674,1.1677,1.1677,1.1677,1.1681,1.1638,1.1648,1.1607,1.1587,1.158,1.158,1.158,1.158,1.158,1.1619,1.1691,1.191,1.209,1.2266,1.2868,1.3793,1.4426,1.4635,1.5057,1.531,1.5629,1.6407,1.7112,1.7575,1.7961,1.8312,1.8697,1.9814,2.0821,2.1546,2.2235,2.2379,2.2516,2.2647,2.2818,2.2853,2.2893,2.284,2.2679,2.2498,2.2296,2.2037,2.1793,2.1549,2.1372,2.1182,2.1109,2.1119,2.1204,2.1173,2.1009,2.082,2.068,2.0501,2.0354,2.0195,2.0125,1.9979,1.9705,1.945,1.905,1.8328,1.7389,1.6294,1.5346,1.4436,1.0283,1.1237,1.1635,1.1854,1.1897,1.2079,1.213,1.2191,1.2324,1.2416,1.2393,1.2361,1.2327,1.2285,1.2247,1.2277,1.2383,1.2366,1.2403,1.2423,1.2397,1.2386,1.2386,1.2328,1.24,1.2389,1.2369,1.2403,1.2373,1.2366,1.2406,1.2424,1.2434,1.24,1.2403,1.2393,1.2369,1.2362,1.2352,1.2332,1.2254,1.2162,1.207,1.2019,1.2013,1.2016,1.1979,1.2013,1.2016,1.1945,1.1857,1.1755,1.174,1.1746,1.1739,1.1834,1.183,1.1774,1.1849,1.2051,1.2298,1.2513,1.2868,1.3757,1.4711,1.5704,1.616,1.7037,1.7218,1.7218,1.7856,1.8587,1.9117,1.9465,1.9814,2.0231,2.0965,2.1546,2.2132,2.2448,2.2585,2.2688,2.2791,2.2893,2.2893,2.29,2.29,2.2752,2.2746,2.2773,2.2753,2.2511,2.2238,2.2091,2.1859,2.1687,2.1678,2.177,2.1744,2.1506,2.1301,2.1146,2.0992,2.0913,2.0854,2.0789,2.0667,2.0554,2.0086,1.9636,1.9211,1.8399,1.7287,1.6306,1.5491]},{"header":{"parameterUnit":"m.s-1","parameterCategory":1,"la1":31.0,"la2":29.5877,"lo1":-88.7671,"lo2":-86.6584,"dy":0.0162,"dx":0.0185,"nx":115,"ny":88,"refTime":"2023-09-16T06:00:00:Z","depth":0,"parameterNumber":3,"parameterNumberName":"V-component_of_WINDS"},"data":[0.0,0.0,0.0,0.0,0.0,0.0,0.0,0.0,0.0,0.0,0.0,0.0,0.0,0.0,0.0,0.0,0.0,0.0,0.0,0.0,0.0,0.0,0.0,0.0,0.0,0.0,0.0,0.0,0.0,0.0,0.0,0.0,0.0,0.0,0.0,0.0,0.0,0.0,0.0,0.0,0.0,0.0,0.0,0.0,0.0,0.0,0.0,0.0,0.0,0.0,0.0,0.0,0.0,0.0,0.0,0.0,0.0,0.0,0.0,0.0,0.0,0.0,0.0,0.0,0.0,0.0,0.0,0.0,0.0,0.0,0.0,0.0,0.0,0.0,0.0,0.0,0.0,0.0,0.0,0.0,0.0,0.0,0.0,0.0,0.0,0.0,0.0,0.0,0.0,0.0,0.0,0.0,0.0,0.0,0.0,0.0,0.0,0.0,0.0,0.0,0.0,0.0,0.0,0.0,0.0,0.0,0.0,0.0,0.0,0.0,0.0,0.0,0.0,0.0,0.0,0.0,0.0,0.0,0.0,0.0,0.0,0.0,0.0,0.0,0.0,0.0,0.0,0.0,0.0,0.0,0.0,0.0,0.0,0.0,0.0,0.0,0.0,0.0,0.0,0.0,0.0,0.0,0.0,0.0,0.0,0.0,0.0,0.0,0.0,0.0,0.0,0.0,0.0,0.0,0.0,0.0,0.0,0.0,0.0,0.0,0.0,0.0,0.0,0.0,0.0,0.0,0.0,0.0,0.0,0.0,0.0,0.0,0.0,0.0,0.0,0.0,0.0,0.0,0.0,0.0,0.0,0.0,0.0,0.0,0.0,0.0,0.0,0.0,0.0,0.0,0.0,0.0,0.0,0.0,0.0,0.0,0.0,0.0,0.0,0.0,0.0,0.0,0.0,0.0,0.0,0.0,0.0,0.0,0.0,0.0,0.0,0.0,0.0,0.0,0.0,0.0,0.0,0.0,0.0,0.0,0.0,0.0,0.0,0.0,0.0,0.0,0.0,0.0,0.0,0.0,0.0,0.0,0.0,0.0,0.0,0.0,0.0,0.0,0.0,0.0,0.0,0.0,0.0,0.0,0.0,0.0,0.0,0.0,0.0,0.0,0.0,0.0,0.0,0.0,0.0,0.0,0.0,0.0,0.0,0.0,0.0,0.0,0.0,0.0,0.0,0.0,0.0,0.0,0.0,0.0,0.0,0.0,0.0,0.0,0.0,0.0,0.0,0.0,0.0,0.0,0.0,0.0,0.0,0.0,0.0,0.0,0.0,0.0,0.0,0.0,0.0,0.0,0.0,0.0,0.0,0.0,0.0,0.0,0.0,0.0,0.0,0.0,0.0,0.0,0.0,0.0,0.0,0.0,0.0,0.0,0.0,0.0,0.0,0.0,0.0,0.0,0.0,0.0,0.0,0.0,0.0,0.0,0.0,0.0,0.0,0.0,0.0,0.0,0.0,0.0,0.0,0.0,0.0,0.0,0.0,0.0,0.0,0.0,0.0,0.0,0.0,0.0,0.0,0.0,0.0,0.0,0.0,0.0,0.0,0.0,0.0,0.0,0.0,0.0,0.0,0.0,0.0,0.0,0.0,0.0,0.0,0.0,0.0,0.0,0.0,0.0,0.0,0.0,0.0,0.0,0.0,0.0,0.0,0.0,0.0,0.0,0.0,0.0,0.0,0.0,0.0,0.0,0.0,0.0,0.0,0.0,0.0,0.0,0.0,0.0,0.0,0.0,0.0,0.0,0.0,0.0,0.0,0.0,0.0,0.0,0.0,0.0,0.0,0.0,0.0,0.0,0.0,0.0,0.0,0.0,0.0,0.0,0.0,0.0,0.0,0.0,0.0,0.0,0.0,0.0,0.0,0.0,0.0,0.0,0.0,0.0,0.0,0.0,0.0,0.0,0.0,0.0,0.0,0.0,0.0,0.0,0.0,0.0,0.0,0.0,0.0,0.0,0.0,0.0,0.0,0.0,0.0,0.0,0.0,0.0,0.0,0.0,0.0,0.0,0.0,0.0,0.0,0.0,0.0,0.0,0.0,0.0,0.0,0.0,0.0,0.0,0.0,0.0,0.0,0.0,0.0,0.0,0.0,0.0,0.0,0.0,0.0,0.0,0.0,0.0,0.0,0.0,0.0,0.0,0.0,0.0,0.0,0.0,0.0,0.0,0.0,0.0,0.0,0.0,0.0,0.0,0.0,0.0,0.0,0.0,0.0,0.0,0.0,0.0,0.0,0.0,0.0,0.0,0.0,0.0,0.0,0.0,0.0,0.0,0.0,0.0,0.0,0.0,0.0,0.0,0.0,0.0,0.0,0.0,0.0,0.0,0.0,0.0,0.0,0.0,0.0,0.0,0.0,0.0,0.0,0.0,0.0,0.0,0.0,0.0,0.0,0.0,0.0,0.0,0.0,0.0,0.0,0.0,0.0,0.0,0.0,0.0,0.0,0.0,0.0,0.0,0.0,0.0,0.0,0.0,0.0,0.0,0.0,0.0,0.0,0.0,0.0,0.0,0.0,0.0,0.0,0.0,0.0,0.0,0.0,0.0,0.0,0.0,0.0,0.0,0.0,0.0,0.0,0.0,0.0,0.0,0.0,0.0,0.0,0.0,0.0,0.0,0.0,0.0,0.0,0.0,0.0,0.0,0.0,0.0,0.0,0.0,0.0,0.0,0.0,0.0,0.0,0.0,0.0,0.0,0.0,0.0,0.0,0.0,0.0,0.0,0.0,0.0,0.0,0.0,0.0,0.0,0.0,0.0,0.0,0.0,0.0,0.0,0.0,0.0,0.0,0.0,0.0,0.0,0.0,0.0,0.0,0.0,0.0,0.0,0.0,0.0,0.0,0.0,0.0,0.0,0.0,0.0,0.0,0.0,0.0,0.0,0.0,0.0,0.0,0.0,0.0,0.0,0.0,0.0,0.0,0.0,0.0,0.0,0.0,0.0,0.0,0.0,0.0,0.0,0.0,0.0,0.0,0.0,0.0,0.0,0.0,0.0,0.0,0.0,0.0,0.0,0.0,0.0,0.0,0.0,0.0,0.0,0.0,0.0,0.0,0.0,0.0,0.0,0.0,0.0,0.0,0.0,0.0,0.0,0.0,0.0,0.0,0.0,0.0,0.0,0.0,0.0,0.0,0.0,0.0,0.0,0.0,0.0,0.0,0.0,0.0,0.0,0.0,0.0,0.0,0.0,0.0,0.0,0.0,0.0,0.0,0.0,0.0,0.0,0.0,0.0,0.0,0.0,0.0,0.0,0.0,0.0,0.0,0.0,0.0,0.0,0.0,0.0,0.0,0.0,0.0,0.0,0.0,0.0,0.0,0.0,0.0,0.0,0.0,0.0,0.0,0.0,0.0,0.0,0.0,0.0,0.0,0.0,0.0,0.0,0.0,0.0,0.0,0.0,0.0,0.0,0.0,0.0,0.0,0.0,0.0,0.0,0.0,0.0,0.0,0.0,0.0,0.0,0.0,0.0,0.0,0.0,0.0,0.0,0.0,0.0,0.0,0.0,0.0,0.0,0.0,0.0,0.0,0.0,0.0,0.0,0.0,0.0,0.0,0.0,0.0,0.0,0.0,0.0,0.0,0.0,0.0,0.0,0.0,0.0,0.0,0.0,0.0,0.0,0.0,0.0,0.0,0.0,0.0,0.0,0.0,0.0,0.0,0.0,0.0,0.0,0.0,0.0,0.0,0.0,0.0,0.0,0.0,0.0,0.0,0.0,0.0,0.0,0.0,0.0,0.0,0.0,0.0,0.0,0.0,0.0,0.0,0.0,0.0,0.0,0.0,0.0,0.0,0.0,0.0,0.0,0.0,0.0,0.0,0.0,0.0,0.0,0.0,0.0,0.0,0.0,0.0,0.0,0.0,0.0,0.0,0.0,0.0,0.0,0.0,0.0,0.0,0.0,0.0,0.0,0.0,0.0,0.0,0.0,0.0,0.0,0.0,0.0,0.0,0.0,0.0,0.0,0.0,0.0,0.0,0.0,0.0,0.0,0.0,0.0,0.0,0.0,0.0,0.0,0.0,0.0,0.0,0.0,0.0,0.0,0.0,0.0,0.0,0.0,0.0,0.0,0.0,0.0,0.0,0.0,0.0,0.0,0.0,0.0,0.0,0.0,0.0,0.0,0.0,0.0,0.0,0.0,0.0,0.0,0.0,0.0,0.0,0.0,0.0,0.0,0.0,0.0,0.0,0.0,0.0,0.0,0.0,0.0,0.0,0.0,0.0,0.0,0.0,0.0,0.0,0.0,0.0,0.0,0.0,0.0,5.0308,0.0,0.0,0.0,0.0,0.0,0.0,0.0,0.0,0.0,0.0,0.0,0.0,0.0,0.0,0.0,0.0,0.0,0.0,0.0,0.0,0.0,0.0,0.0,0.0,0.0,0.0,0.0,0.0,0.0,0.0,0.0,0.0,0.0,0.0,0.0,0.0,0.0,0.0,0.0,0.0,0.0,0.0,0.0,0.0,0.0,0.0,0.0,0.0,0.0,0.0,0.0,0.0,0.0,0.0,0.0,0.0,0.0,0.0,0.0,0.0,0.0,0.0,0.0,0.0,0.0,0.0,0.0,0.0,0.0,0.0,0.0,0.0,0.0,0.0,0.0,0.0,0.0,0.0,0.0,0.0,0.0,0.0,0.0,0.0,0.0,0.0,0.0,0.0,0.0,0.0,0.0,0.0,0.0,0.0,0.0,0.0,0.0,0.0,0.0,0.0,0.0,0.0,0.0,0.0,0.0,0.0,0.0,0.0,0.0,0.0,5.075,5.0654,5.0635,5.0559,5.0468,0.0,0.0,0.0,0.0,0.0,0.0,0.0,0.0,0.0,0.0,0.0,0.0,0.0,0.0,0.0,0.0,0.0,0.0,0.0,0.0,0.0,0.0,0.0,0.0,0.0,0.0,0.0,0.0,0.0,0.0,0.0,0.0,0.0,0.0,0.0,0.0,0.0,0.0,0.0,0.0,0.0,0.0,0.0,0.0,0.0,0.0,0.0,0.0,0.0,0.0,0.0,0.0,0.0,0.0,0.0,0.0,0.0,0.0,0.0,0.0,0.0,0.0,0.0,0.0,0.0,0.0,0.0,0.0,0.0,0.0,0.0,0.0,0.0,0.0,0.0,0.0,0.0,0.0,0.0,0.0,0.0,0.0,0.0,0.0,0.0,0.0,0.0,0.0,0.0,0.0,0.0,0.0,0.0,0.0,0.0,0.0,0.0,0.0,0.0,0.0,0.0,0.0,0.0,0.0,0.0,0.0,0.0,0.0,0.0,0.0,0.0,0.0,5.0706,5.0548,5.033,0.0,0.0,0.0,0.0,0.0,0.0,0.0,0.0,0.0,0.0,0.0,0.0,0.0,0.0,0.0,0.0,0.0,0.0,0.0,0.0,0.0,0.0,0.0,0.0,0.0,0.0,0.0,0.0,0.0,0.0,0.0,0.0,0.0,0.0,0.0,0.0,0.0,0.0,0.0,0.0,0.0,0.0,0.0,0.0,0.0,0.0,0.0,0.0,0.0,0.0,0.0,0.0,0.0,0.0,0.0,0.0,0.0,0.0,0.0,0.0,0.0,0.0,0.0,0.0,0.0,0.0,0.0,0.0,0.0,0.0,0.0,0.0,0.0,0.0,0.0,0.0,0.0,0.0,0.0,0.0,0.0,0.0,0.0,0.0,0.0,0.0,0.0,0.0,0.0,0.0,0.0,0.0,0.0,0.0,0.0,0.0,0.0,0.0,0.0,0.0,0.0,0.0,0.0,0.0,0.0,0.0,0.0,0.0,0.0,0.0,5.097,5.0905,5.0865,0.0,4.9548,0.0,0.0,0.0,0.0,0.0,0.0,0.0,0.0,0.0,0.0,0.0,0.0,0.0,0.0,0.0,0.0,0.0,0.0,0.0,0.0,0.0,0.0,0.0,0.0,0.0,0.0,0.0,0.0,0.0,0.0,0.0,0.0,0.0,0.0,0.0,0.0,0.0,0.0,0.0,0.0,0.0,0.0,0.0,0.0,0.0,0.0,0.0,0.0,0.0,0.0,0.0,0.0,0.0,0.0,0.0,0.0,0.0,0.0,0.0,0.0,0.0,0.0,0.0,0.0,0.0,0.0,0.0,0.0,0.0,0.0,0.0,0.0,0.0,0.0,0.0,0.0,0.0,0.0,0.0,0.0,0.0,0.0,0.0,0.0,0.0,0.0,0.0,0.0,0.0,0.0,0.0,0.0,0.0,0.0,0.0,0.0,0.0,0.0,0.0,0.0,0.0,0.0,0.0,0.0,0.0,0.0,0.0,0.0,0.0,0.0,5.082,5.0203,4.9649,4.9155,0.0,0.0,0.0,0.0,0.0,0.0,0.0,0.0,0.0,0.0,0.0,0.0,0.0,0.0,0.0,0.0,0.0,0.0,0.0,0.0,0.0,0.0,0.0,0.0,0.0,0.0,0.0,0.0,0.0,0.0,0.0,0.0,0.0,0.0,0.0,0.0,0.0,0.0,0.0,0.0,0.0,0.0,0.0,0.0,0.0,0.0,0.0,0.0,0.0,0.0,0.0,0.0,0.0,0.0,0.0,0.0,0.0,0.0,0.0,0.0,0.0,0.0,0.0,0.0,0.0,0.0,0.0,0.0,0.0,0.0,0.0,0.0,0.0,0.0,0.0,0.0,0.0,0.0,0.0,0.0,0.0,0.0,0.0,0.0,0.0,0.0,0.0,0.0,0.0,0.0,0.0,0.0,0.0,0.0,0.0,0.0,0.0,0.0,0.0,0.0,0.0,0.0,0.0,0.0,0.0,0.0,0.0,0.0,0.0,0.0,5.0667,5.0189,4.9393,4.8481,4.7971,4.7925,0.0,0.0,0.0,0.0,0.0,0.0,0.0,0.0,0.0,0.0,0.0,0.0,0.0,0.0,0.0,0.0,0.0,0.0,0.0,0.0,0.0,0.0,0.0,0.0,0.0,0.0,0.0,0.0,0.0,0.0,0.0,0.0,0.0,0.0,0.0,0.0,0.0,0.0,0.0,0.0,0.0,0.0,0.0,0.0,0.0,0.0,0.0,0.0,0.0,0.0,0.0,0.0,0.0,0.0,0.0,0.0,0.0,0.0,0.0,0.0,0.0,0.0,0.0,0.0,0.0,0.0,0.0,0.0,0.0,0.0,0.0,0.0,0.0,0.0,0.0,0.0,0.0,0.0,0.0,0.0,0.0,0.0,0.0,0.0,0.0,0.0,0.0,0.0,0.0,0.0,0.0,0.0,0.0,0.0,0.0,0.0,0.0,0.0,0.0,0.0,0.0,0.0,0.0,0.0,0.0,0.0,0.0,0.0,5.0125,4.9336,4.8819,4.8652,4.773,4.7253,0.0,0.0,0.0,0.0,0.0,0.0,0.0,0.0,0.0,0.0,0.0,0.0,0.0,0.0,0.0,0.0,0.0,0.0,0.0,0.0,0.0,0.0,0.0,0.0,0.0,0.0,0.0,0.0,0.0,0.0,0.0,0.0,0.0,0.0,0.0,0.0,0.0,0.0,0.0,0.0,0.0,0.0,0.0,0.0,0.0,0.0,0.0,0.0,0.0,0.0,0.0,0.0,0.0,0.0,0.0,0.0,0.0,0.0,0.0,0.0,0.0,0.0,0.0,0.0,0.0,0.0,0.0,0.0,0.0,0.0,0.0,0.0,0.0,0.0,0.0,0.0,0.0,0.0,0.0,0.0,0.0,0.0,0.0,0.0,0.0,0.0,0.0,0.0,0.0,0.0,0.0,0.0,0.0,0.0,0.0,0.0,0.0,0.0,0.0,0.0,0.0,0.0,0.0,0.0,0.0,0.0,0.0,0.0,0.0,4.9253,4.842,4.7944,4.7887,4.6979,4.6498,0.0,0.0,0.0,0.0,0.0,0.0,0.0,0.0,0.0,0.0,0.0,0.0,0.0,0.0,0.0,0.0,0.0,0.0,0.0,0.0,0.0,0.0,0.0,0.0,0.0,0.0,0.0,0.0,0.0,0.0,0.0,0.0,0.0,0.0,0.0,0.0,0.0,0.0,0.0,0.0,0.0,0.0,0.0,0.0,0.0,0.0,0.0,0.0,0.0,0.0,0.0,0.0,0.0,0.0,0.0,0.0,0.0,0.0,0.0,0.0,0.0,0.0,0.0,0.0,0.0,0.0,0.0,0.0,0.0,0.0,0.0,0.0,0.0,0.0,0.0,0.0,0.0,0.0,0.0,0.0,0.0,0.0,0.0,0.0,0.0,0.0,0.0,0.0,0.0,0.0,0.0,0.0,0.0,0.0,0.0,0.0,0.0,0.0,0.0,0.0,0.0,0.0,0.0,0.0,0.0,0.0,0.0,0.0,0.0,4.8008,0.0,4.712,4.7102,4.6477,4.6146,0.0,0.0,0.0,0.0,0.0,0.0,0.0,0.0,0.0,0.0,0.0,0.0,0.0,0.0,0.0,0.0,0.0,0.0,0.0,0.0,0.0,0.0,0.0,0.0,0.0,0.0,0.0,0.0,0.0,0.0,0.0,0.0,0.0,0.0,0.0,0.0,0.0,0.0,0.0,0.0,0.0,0.0,0.0,0.0,0.0,0.0,0.0,0.0,0.0,0.0,0.0,0.0,0.0,0.0,0.0,0.0,0.0,0.0,0.0,0.0,0.0,0.0,0.0,0.0,0.0,0.0,0.0,0.0,0.0,0.0,0.0,0.0,0.0,0.0,0.0,0.0,0.0,0.0,0.0,0.0,0.0,0.0,0.0,0.0,0.0,0.0,0.0,0.0,0.0,0.0,0.0,0.0,0.0,0.0,0.0,0.0,0.0,0.0,0.0,0.0,0.0,0.0,0.0,0.0,0.0,0.0,0.0,0.0,4.7062,4.6365,4.6326,4.6335,4.6302,4.624,4.6213,0.0,0.0,0.0,0.0,0.0,0.0,0.0,0.0,0.0,0.0,0.0,0.0,0.0,0.0,0.0,0.0,0.0,0.0,0.0,0.0,0.0,0.0,0.0,0.0,0.0,0.0,0.0,0.0,0.0,0.0,0.0,0.0,0.0,0.0,0.0,0.0,0.0,0.0,0.0,0.0,0.0,0.0,0.0,0.0,0.0,0.0,0.0,0.0,0.0,0.0,0.0,0.0,0.0,0.0,0.0,0.0,0.0,0.0,0.0,0.0,0.0,0.0,0.0,0.0,0.0,0.0,0.0,0.0,0.0,0.0,0.0,0.0,0.0,0.0,0.0,0.0,0.0,0.0,0.0,0.0,0.0,0.0,0.0,0.0,0.0,0.0,0.0,0.0,0.0,0.0,0.0,0.0,0.0,0.0,0.0,0.0,0.0,0.0,0.0,0.0,0.0,0.0,0.0,0.0,0.0,0.0,0.0,0.0,0.0,4.6252,4.6267,4.6288,4.6302,4.6291,4.6233,0.0,0.0,0.0,0.0,0.0,0.0,0.0,0.0,0.0,0.0,0.0,0.0,0.0,0.0,0.0,0.0,0.0,0.0,0.0,0.0,0.0,0.0,0.0,0.0,0.0,0.0,0.0,0.0,0.0,0.0,0.0,0.0,0.0,0.0,0.0,0.0,0.0,0.0,0.0,0.0,0.0,0.0,0.0,0.0,0.0,0.0,0.0,0.0,0.0,0.0,0.0,0.0,0.0,0.0,0.0,0.0,0.0,0.0,0.0,0.0,0.0,0.0,0.0,0.0,0.0,0.0,0.0,0.0,0.0,0.0,0.0,0.0,0.0,0.0,0.0,0.0,0.0,0.0,0.0,0.0,0.0,0.0,0.0,0.0,0.0,0.0,0.0,0.0,0.0,0.0,0.0,0.0,0.0,0.0,0.0,0.0,0.0,0.0,0.0,0.0,0.0,0.0,0.0,0.0,0.0,0.0,0.0,0.0,0.0,4.6094,4.62,4.6264,4.6289,4.6306,4.6278,4.6244,0.0,0.0,0.0,0.0,0.0,0.0,0.0,0.0,0.0,0.0,0.0,0.0,0.0,0.0,0.0,0.0,0.0,0.0,0.0,0.0,0.0,0.0,0.0,0.0,0.0,0.0,0.0,0.0,0.0,0.0,0.0,0.0,0.0,0.0,0.0,0.0,0.0,0.0,0.0,0.0,0.0,0.0,0.0,0.0,0.0,0.0,0.0,0.0,0.0,0.0,0.0,0.0,0.0,0.0,0.0,0.0,0.0,0.0,0.0,0.0,0.0,0.0,0.0,0.0,0.0,0.0,0.0,0.0,0.0,0.0,0.0,0.0,0.0,0.0,0.0,0.0,0.0,0.0,0.0,0.0,0.0,0.0,0.0,0.0,0.0,0.0,0.0,0.0,0.0,0.0,0.0,0.0,0.0,0.0,0.0,0.0,0.0,0.0,0.0,0.0,0.0,0.0,0.0,0.0,0.0,0.0,0.0,0.0,4.5886,4.6075,4.6214,4.6299,4.6287,4.6289,0.0,0.0,0.0,0.0,0.0,0.0,0.0,0.0,0.0,0.0,0.0,0.0,0.0,0.0,0.0,0.0,0.0,0.0,0.0,0.0,0.0,0.0,0.0,0.0,0.0,0.0,0.0,0.0,0.0,0.0,0.0,0.0,0.0,0.0,0.0,0.0,0.0,0.0,0.0,0.0,0.0,0.0,0.0,0.0,0.0,0.0,0.0,0.0,0.0,0.0,0.0,0.0,0.0,0.0,0.0,0.0,0.0,0.0,0.0,0.0,0.0,0.0,0.0,0.0,0.0,0.0,0.0,0.0,0.0,0.0,0.0,0.0,0.0,0.0,0.0,0.0,0.0,0.0,0.0,0.0,0.0,0.0,0.0,0.0,0.0,0.0,0.0,0.0,0.0,0.0,0.0,0.0,0.0,0.0,0.0,0.0,0.0,0.0,0.0,0.0,0.0,0.0,0.0,0.0,0.0,0.0,0.0,0.0,0.0,4.5745,4.5892,4.6065,4.621,4.6223,4.624,0.0,0.0,0.0,0.0,0.0,0.0,0.0,0.0,0.0,0.0,0.0,0.0,0.0,0.0,0.0,0.0,0.0,0.0,0.0,0.0,0.0,0.0,0.0,0.0,0.0,0.0,0.0,0.0,0.0,0.0,0.0,0.0,0.0,0.0,0.0,0.0,0.0,0.0,0.0,0.0,0.0,0.0,0.0,0.0,0.0,0.0,0.0,0.0,0.0,0.0,0.0,0.0,0.0,0.0,0.0,0.0,0.0,0.0,0.0,0.0,0.0,0.0,0.0,0.0,0.0,0.0,0.0,0.0,0.0,0.0,0.0,0.0,0.0,0.0,0.0,0.0,0.0,0.0,0.0,0.0,0.0,0.0,0.0,0.0,0.0,0.0,0.0,0.0,0.0,0.0,0.0,0.0,0.0,0.0,0.0,0.0,0.0,0.0,0.0,0.0,0.0,0.0,0.0,0.0,0.0,0.0,0.0,0.0,4.5485,4.6078,4.6229,4.6535,4.705,4.6505,4.6208,0.0,0.0,0.0,0.0,0.0,0.0,0.0,0.0,0.0,0.0,0.0,0.0,0.0,0.0,0.0,0.0,0.0,0.0,0.0,0.0,0.0,0.0,0.0,0.0,0.0,0.0,0.0,0.0,0.0,0.0,0.0,0.0,0.0,0.0,0.0,0.0,0.0,0.0,0.0,0.0,0.0,0.0,0.0,0.0,0.0,0.0,0.0,0.0,0.0,0.0,0.0,0.0,0.0,0.0,0.0,0.0,0.0,0.0,0.0,0.0,0.0,0.0,0.0,0.0,0.0,0.0,0.0,0.0,0.0,0.0,0.0,0.0,0.0,0.0,0.0,0.0,0.0,0.0,0.0,0.0,0.0,0.0,0.0,0.0,0.0,0.0,0.0,0.0,0.0,0.0,0.0,0.0,0.0,0.0,0.0,0.0,0.0,0.0,0.0,0.0,0.0,0.0,0.0,0.0,0.0,0.0,0.0,0.0,4.5612,4.6647,4.68,4.7311,4.817,4.7072,4.644,0.0,0.0,0.0,0.0,0.0,0.0,0.0,0.0,0.0,0.0,0.0,0.0,0.0,0.0,0.0,0.0,0.0,0.0,0.0,0.0,0.0,0.0,0.0,0.0,0.0,0.0,0.0,0.0,0.0,0.0,0.0,0.0,0.0,0.0,0.0,0.0,0.0,0.0,0.0,0.0,0.0,0.0,0.0,0.0,0.0,0.0,0.0,0.0,0.0,0.0,0.0,0.0,0.0,0.0,0.0,0.0,0.0,0.0,0.0,0.0,0.0,0.0,0.0,0.0,0.0,0.0,0.0,0.0,0.0,0.0,0.0,0.0,0.0,0.0,0.0,0.0,0.0,0.0,0.0,0.0,0.0,0.0,0.0,0.0,0.0,0.0,0.0,0.0,0.0,0.0,0.0,0.0,0.0,0.0,0.0,0.0,0.0,0.0,0.0,0.0,0.0,0.0,0.0,0.0,0.0,0.0,0.0,0.0,4.6701,4.7137,4.7277,4.7532,4.7898,4.7924,4.7975,0.0,0.0,0.0,0.0,0.0,0.0,0.0,0.0,0.0,0.0,0.0,0.0,0.0,0.0,0.0,0.0,0.0,0.0,0.0,0.0,0.0,0.0,0.0,0.0,0.0,0.0,0.0,0.0,0.0,0.0,0.0,0.0,0.0,0.0,0.0,0.0,0.0,0.0,0.0,0.0,0.0,0.0,0.0,0.0,0.0,0.0,0.0,0.0,5.5255,0.0,0.0,0.0,0.0,0.0,0.0,0.0,0.0,0.0,0.0,0.0,0.0,0.0,0.0,0.0,0.0,0.0,0.0,0.0,0.0,0.0,0.0,0.0,0.0,0.0,0.0,0.0,0.0,0.0,0.0,0.0,0.0,0.0,0.0,0.0,0.0,0.0,0.0,0.0,0.0,0.0,0.0,0.0,0.0,0.0,0.0,0.0,0.0,0.0,0.0,0.0,0.0,0.0,0.0,0.0,0.0,0.0,0.0,0.0,4.6993,4.7591,4.7722,4.8085,4.8691,4.8996,4.8941,0.0,0.0,0.0,0.0,0.0,0.0,0.0,0.0,0.0,0.0,0.0,0.0,0.0,0.0,0.0,0.0,0.0,0.0,0.0,0.0,0.0,0.0,0.0,0.0,0.0,0.0,0.0,0.0,0.0,0.0,0.0,0.0,0.0,0.0,0.0,0.0,0.0,0.0,0.0,0.0,0.0,0.0,0.0,0.0,0.0,0.0,0.0,0.0,0.0,0.0,0.0,0.0,0.0,0.0,0.0,0.0,0.0,0.0,0.0,0.0,0.0,0.0,0.0,0.0,0.0,0.0,0.0,0.0,0.0,0.0,0.0,0.0,0.0,0.0,0.0,0.0,0.0,0.0,0.0,0.0,0.0,0.0,0.0,0.0,0.0,0.0,0.0,0.0,0.0,0.0,0.0,0.0,0.0,0.0,0.0,0.0,0.0,0.0,0.0,0.0,0.0,0.0,0.0,0.0,0.0,0.0,0.0,4.6274,4.7184,4.8079,4.8192,4.872,4.9695,4.987,4.95,4.8576,0.0,0.0,0.0,0.0,0.0,0.0,0.0,0.0,0.0,0.0,0.0,0.0,0.0,0.0,0.0,0.0,0.0,0.0,0.0,0.0,0.0,0.0,0.0,0.0,0.0,0.0,0.0,0.0,0.0,0.0,0.0,0.0,0.0,0.0,0.0,0.0,0.0,0.0,5.6416,5.6351,0.0,0.0,0.0,0.0,0.0,0.0,0.0,0.0,5.5571,0.0,0.0,0.0,0.0,0.0,0.0,0.0,0.0,0.0,0.0,0.0,0.0,0.0,0.0,0.0,0.0,0.0,0.0,0.0,0.0,0.0,0.0,0.0,0.0,0.0,0.0,0.0,0.0,0.0,0.0,0.0,0.0,0.0,0.0,0.0,0.0,0.0,0.0,0.0,0.0,0.0,0.0,0.0,0.0,0.0,0.0,0.0,0.0,0.0,0.0,0.0,0.0,0.0,0.0,0.0,0.0,4.6947,4.7793,4.8381,4.8661,4.8729,4.8961,4.9365,4.9521,4.9583,4.9656,0.0,0.0,0.0,0.0,0.0,0.0,0.0,0.0,0.0,0.0,0.0,0.0,0.0,0.0,0.0,0.0,0.0,0.0,0.0,0.0,0.0,0.0,0.0,0.0,0.0,0.0,0.0,0.0,0.0,0.0,0.0,0.0,0.0,0.0,0.0,0.0,0.0,0.0,0.0,5.6475,5.642,0.0,0.0,0.0,0.0,0.0,0.0,0.0,0.0,5.5703,0.0,0.0,0.0,0.0,0.0,0.0,0.0,0.0,0.0,0.0,0.0,0.0,0.0,0.0,0.0,0.0,0.0,0.0,0.0,0.0,0.0,0.0,0.0,0.0,0.0,0.0,0.0,0.0,0.0,0.0,0.0,0.0,0.0,0.0,0.0,0.0,0.0,0.0,0.0,0.0,0.0,0.0,0.0,0.0,0.0,0.0,0.0,0.0,0.0,0.0,0.0,0.0,0.0,0.0,0.0,4.7243,4.8025,4.8504,4.8633,4.866,4.8804,4.9029,4.9133,4.9323,0.0,0.0,0.0,0.0,0.0,0.0,0.0,0.0,0.0,0.0,0.0,0.0,0.0,0.0,0.0,0.0,0.0,0.0,0.0,0.0,0.0,0.0,0.0,0.0,0.0,0.0,0.0,0.0,0.0,0.0,0.0,0.0,0.0,0.0,0.0,0.0,0.0,0.0,0.0,0.0,5.6511,5.6467,5.6408,0.0,0.0,0.0,0.0,0.0,0.0,5.5964,5.5897,0.0,0.0,0.0,0.0,0.0,0.0,0.0,0.0,0.0,0.0,0.0,0.0,0.0,0.0,0.0,0.0,0.0,0.0,0.0,0.0,0.0,0.0,0.0,0.0,0.0,0.0,0.0,0.0,0.0,0.0,0.0,0.0,0.0,0.0,0.0,0.0,0.0,0.0,0.0,0.0,0.0,0.0,0.0,0.0,0.0,0.0,0.0,0.0,0.0,0.0,0.0,0.0,0.0,0.0,0.0,4.7351,4.7984,4.8353,4.8457,4.8457,4.855,4.8724,4.8804,4.8943,0.0,0.0,0.0,0.0,0.0,0.0,0.0,0.0,0.0,0.0,0.0,0.0,0.0,0.0,0.0,0.0,0.0,0.0,0.0,0.0,0.0,0.0,0.0,0.0,0.0,0.0,0.0,0.0,0.0,0.0,0.0,0.0,0.0,0.0,0.0,0.0,0.0,0.0,0.0,0.0,0.0,5.6525,5.6488,5.6463,0.0,0.0,0.0,0.0,5.6238,5.6165,0.0,0.0,0.0,0.0,0.0,0.0,0.0,0.0,0.0,0.0,0.0,0.0,0.0,0.0,0.0,0.0,0.0,0.0,0.0,0.0,0.0,0.0,0.0,0.0,0.0,0.0,0.0,0.0,0.0,0.0,0.0,0.0,0.0,0.0,0.0,0.0,0.0,0.0,0.0,0.0,0.0,0.0,0.0,0.0,0.0,0.0,0.0,0.0,0.0,0.0,0.0,0.0,0.0,0.0,0.0,0.0,4.8168,4.8241,4.8306,4.8316,4.8334,4.8391,4.8522,4.8532,4.8642,0.0,0.0,0.0,0.0,0.0,0.0,0.0,0.0,0.0,0.0,0.0,0.0,0.0,0.0,0.0,0.0,0.0,0.0,0.0,0.0,0.0,0.0,0.0,0.0,0.0,0.0,0.0,0.0,0.0,0.0,0.0,0.0,0.0,0.0,0.0,0.0,0.0,0.0,0.0,0.0,0.0,5.6562,5.6519,5.6489,5.6489,0.0,0.0,5.6434,5.6381,5.6366,0.0,0.0,0.0,0.0,0.0,0.0,0.0,0.0,0.0,0.0,0.0,0.0,0.0,0.0,0.0,0.0,0.0,0.0,0.0,0.0,0.0,0.0,0.0,0.0,0.0,0.0,0.0,0.0,0.0,0.0,0.0,0.0,0.0,0.0,0.0,0.0,0.0,0.0,0.0,0.0,0.0,0.0,0.0,0.0,0.0,0.0,0.0,0.0,0.0,0.0,0.0,0.0,0.0,0.0,0.0,4.8237,4.8256,4.8277,4.8315,4.8315,4.8315,4.8316,4.8382,4.8382,4.8476,0.0,0.0,0.0,0.0,0.0,0.0,0.0,0.0,0.0,0.0,0.0,0.0,0.0,0.0,0.0,0.0,0.0,0.0,0.0,0.0,0.0,0.0,0.0,0.0,0.0,0.0,0.0,0.0,0.0,0.0,0.0,0.0,0.0,0.0,0.0,0.0,0.0,0.0,0.0,0.0,0.0,0.0,5.6543,5.6559,0.0,0.0,0.0,5.6486,5.645,0.0,0.0,0.0,0.0,0.0,0.0,0.0,0.0,0.0,0.0,0.0,0.0,0.0,0.0,0.0,0.0,0.0,0.0,0.0,0.0,0.0,0.0,0.0,0.0,0.0,0.0,0.0,0.0,0.0,0.0,0.0,0.0,0.0,0.0,0.0,0.0,0.0,0.0,0.0,0.0,0.0,0.0,0.0,0.0,0.0,0.0,0.0,0.0,0.0,0.0,0.0,0.0,0.0,0.0,0.0,0.0,0.0,4.8197,4.8267,4.8406,4.8618,4.8618,4.8691,4.8902,4.893,0.0,0.0,0.0,0.0,0.0,0.0,0.0,0.0,0.0,0.0,0.0,0.0,0.0,0.0,0.0,0.0,0.0,0.0,0.0,0.0,0.0,0.0,0.0,0.0,0.0,0.0,0.0,5.617,0.0,0.0,0.0,0.0,0.0,0.0,0.0,0.0,0.0,0.0,0.0,0.0,0.0,0.0,5.6574,5.66,5.6621,5.6619,0.0,0.0,5.6511,5.6529,5.6518,5.6499,0.0,0.0,0.0,0.0,0.0,0.0,0.0,0.0,0.0,0.0,0.0,0.0,0.0,0.0,0.0,0.0,0.0,0.0,0.0,0.0,0.0,0.0,0.0,0.0,0.0,0.0,0.0,0.0,0.0,0.0,0.0,0.0,0.0,0.0,0.0,0.0,0.0,0.0,0.0,0.0,0.0,0.0,0.0,0.0,0.0,0.0,0.0,0.0,0.0,0.0,0.0,0.0,0.0,0.0,0.0,4.8197,4.8267,4.871,4.9482,4.9454,4.9811,5.06,5.0637,5.0618,0.0,0.0,0.0,0.0,0.0,0.0,0.0,0.0,0.0,0.0,0.0,0.0,0.0,0.0,0.0,0.0,0.0,0.0,0.0,0.0,0.0,0.0,0.0,0.0,0.0,0.0,0.0,0.0,0.0,0.0,0.0,0.0,0.0,0.0,0.0,0.0,0.0,0.0,0.0,0.0,0.0,5.6527,5.6573,5.662,5.6621,0.0,0.0,5.6601,5.6599,5.6598,5.6573,5.6509,0.0,0.0,0.0,0.0,0.0,0.0,0.0,0.0,0.0,0.0,0.0,0.0,0.0,0.0,0.0,0.0,0.0,0.0,0.0,0.0,0.0,0.0,0.0,0.0,0.0,0.0,0.0,0.0,0.0,0.0,0.0,0.0,0.0,0.0,0.0,0.0,0.0,0.0,0.0,0.0,0.0,0.0,0.0,0.0,0.0,0.0,0.0,0.0,0.0,0.0,0.0,0.0,0.0,4.9422,4.9557,4.9669,4.9935,5.0306,5.0325,5.0472,5.0802,5.082,5.082,0.0,0.0,0.0,0.0,0.0,0.0,0.0,0.0,0.0,0.0,0.0,0.0,0.0,0.0,0.0,0.0,0.0,0.0,0.0,0.0,0.0,0.0,0.0,0.0,0.0,0.0,0.0,0.0,5.5937,5.5979,5.6031,0.0,0.0,0.0,0.0,0.0,0.0,0.0,0.0,0.0,0.0,5.6526,5.6592,5.6619,0.0,0.0,5.6621,5.6621,5.6621,5.6621,5.6581,5.6573,5.6523,0.0,0.0,0.0,0.0,0.0,0.0,0.0,0.0,0.0,0.0,0.0,0.0,0.0,0.0,0.0,0.0,0.0,0.0,0.0,0.0,0.0,0.0,0.0,0.0,0.0,0.0,0.0,0.0,0.0,0.0,0.0,0.0,0.0,0.0,0.0,0.0,0.0,0.0,0.0,0.0,0.0,0.0,0.0,0.0,0.0,0.0,0.0,0.0,0.0,0.0,0.0,0.0,5.0206,5.0396,5.055,5.0792,5.1169,5.1169,5.1279,5.1518,5.1508,5.1518,0.0,0.0,0.0,0.0,0.0,0.0,0.0,0.0,0.0,0.0,0.0,0.0,0.0,0.0,0.0,0.0,0.0,0.0,0.0,0.0,0.0,0.0,0.0,0.0,0.0,0.0,0.0,0.0,5.5846,5.5914,5.5955,0.0,0.0,0.0,0.0,0.0,0.0,0.0,0.0,0.0,0.0,5.6527,5.6594,5.662,5.6621,5.6621,5.6621,5.6621,5.6621,5.6621,5.6621,5.6619,0.0,0.0,0.0,0.0,0.0,0.0,0.0,0.0,0.0,0.0,0.0,0.0,0.0,0.0,0.0,0.0,0.0,0.0,0.0,0.0,0.0,0.0,0.0,0.0,0.0,0.0,0.0,0.0,0.0,0.0,5.2806,0.0,0.0,0.0,0.0,0.0,0.0,0.0,0.0,0.0,0.0,0.0,0.0,0.0,0.0,0.0,0.0,0.0,0.0,0.0,0.0,0.0,0.0,5.0243,5.0432,5.0595,5.1085,5.194,5.1987,5.2325,5.3067,5.3141,5.3141,5.3104,0.0,0.0,0.0,0.0,0.0,0.0,0.0,0.0,0.0,0.0,0.0,0.0,0.0,0.0,0.0,0.0,0.0,0.0,0.0,0.0,0.0,0.0,0.0,0.0,0.0,0.0,5.5714,5.5761,5.5836,0.0,0.0,0.0,0.0,0.0,0.0,0.0,0.0,0.0,0.0,5.649,5.6529,5.6579,5.6621,5.6621,5.6621,5.6621,5.6621,5.6621,5.6621,5.6621,0.0,0.0,0.0,0.0,0.0,0.0,0.0,0.0,0.0,0.0,0.0,0.0,0.0,0.0,0.0,0.0,0.0,0.0,0.0,0.0,0.0,0.0,0.0,0.0,0.0,0.0,0.0,5.1706,5.2114,0.0,0.0,0.0,0.0,0.0,0.0,0.0,0.0,0.0,0.0,0.0,5.3196,5.3196,0.0,0.0,0.0,0.0,0.0,0.0,0.0,0.0,0.0,0.0,0.0,0.0,5.1796,5.2,5.2122,5.2404,5.2792,5.2803,5.292,5.3196,5.3196,5.3196,5.3196,0.0,0.0,0.0,0.0,0.0,0.0,0.0,0.0,0.0,0.0,0.0,0.0,0.0,0.0,0.0,0.0,0.0,0.0,0.0,0.0,0.0,0.0,0.0,0.0,0.0,5.5724,0.0,0.0,0.0,0.0,0.0,0.0,0.0,0.0,0.0,0.0,0.0,5.6473,5.649,5.6548,5.6577,5.6599,5.6621,5.6621,0.0,0.0,0.0,0.0,0.0,0.0,0.0,0.0,0.0,0.0,0.0,0.0,0.0,0.0,5.6385,5.6336,5.6293,5.623,5.6197,0.0,0.0,0.0,0.0,0.0,0.0,0.0,0.0,0.0,0.0,0.0,0.0,0.0,0.0,0.0,0.0,5.271,0.0,0.0,0.0,0.0,0.0,0.0,0.0,0.0,5.3196,5.3196,5.3196,5.3196,5.3196,0.0,5.3196,5.3196,0.0,0.0,0.0,0.0,0.0,0.0,0.0,0.0,5.2629,5.285,5.2966,5.3053,5.3185,5.3196,5.3196,5.3196,5.3196,5.3196,5.3196,5.3196,5.3227,0.0,0.0,0.0,0.0,0.0,0.0,0.0,0.0,0.0,0.0,0.0,0.0,0.0,0.0,0.0,0.0,0.0,0.0,0.0,0.0,0.0,0.0,0.0,5.5756,0.0,0.0,0.0,0.0,0.0,0.0,0.0,0.0,0.0,5.6424,5.647,5.6526,5.6529,5.6577,5.6619,5.662,0.0,0.0,0.0,0.0,0.0,0.0,0.0,5.6621,5.6621,5.6621,5.662,5.6619,5.6556,5.6548,5.652,0.0,0.0,5.6445,5.6394,5.6378,5.6378,5.626,5.617,5.619,5.6067,5.5947,0.0,0.0,0.0,0.0,0.0,0.0,0.0,0.0,5.212,5.2384,0.0,5.2893,0.0,0.0,0.0,0.0,0.0,5.3196,0.0,0.0,5.3196,5.3196,5.3196,5.3196,5.3196,5.3196,5.3196,5.3196,5.3196,5.3053,0.0,0.0,0.0,0.0,0.0,0.0,5.2674,5.2988,5.3009,5.3082,5.3196,5.3196,5.3196,5.3196,5.3196,5.3196,5.3196,5.3196,5.3196,5.3206,5.3406,0.0,0.0,0.0,0.0,0.0,0.0,0.0,0.0,0.0,0.0,0.0,0.0,0.0,0.0,0.0,0.0,0.0,0.0,0.0,0.0,5.5761,0.0,0.0,0.0,0.0,0.0,0.0,0.0,0.0,0.0,0.0,5.6483,5.6513,5.654,5.6598,0.0,0.0,0.0,0.0,5.6621,5.6621,5.6621,5.6621,5.6621,5.6621,5.6621,5.6621,0.0,0.0,5.6619,5.6619,5.6598,5.6614,5.6593,5.6589,5.6514,5.6488,5.6485,5.6483,5.6401,5.6311,5.6291,5.6187,5.6087,5.1135,0.0,0.0,0.0,0.0,5.1687,5.2,5.2238,5.2499,5.2721,5.2893,5.3071,0.0,0.0,0.0,0.0,0.0,0.0,5.3196,5.3196,5.3196,5.3196,5.3196,5.3196,5.3196,5.3196,5.3196,5.3196,5.3196,5.3164,5.3092,5.2999,0.0,0.0,0.0,0.0,5.2901,5.2999,5.3092,5.3164,5.3196,5.3196,5.3196,5.3196,5.3196,5.3196,5.3196,5.3196,5.3227,5.3274,5.341,0.0,0.0,0.0,0.0,0.0,0.0,0.0,0.0,0.0,0.0,0.0,0.0,0.0,0.0,0.0,0.0,0.0,0.0,0.0,5.5766,5.5827,5.587,0.0,0.0,0.0,0.0,0.0,0.0,0.0,0.0,0.0,5.6488,5.6527,5.6577,0.0,0.0,5.6621,5.6621,5.6621,5.6621,5.6621,0.0,0.0,0.0,5.6621,5.6621,5.6621,5.6621,5.6621,5.6621,5.6621,5.6621,5.6621,5.662,5.66,5.6579,5.6528,5.6491,5.6488,5.6473,5.6422,5.6383,5.6306,5.6223,5.2516,5.2167,5.1851,5.1836,5.2012,5.2215,5.2414,5.2654,5.2806,5.2955,5.3082,5.3164,5.3196,5.3196,5.3196,0.0,0.0,0.0,5.3196,5.3196,5.3196,5.3196,5.3196,5.3196,5.3196,5.3196,5.3196,5.3196,5.3196,5.3196,5.3164,5.3082,0.0,0.0,5.2955,5.2988,5.302,5.3082,5.3164,5.3196,5.3196,5.3196,5.3196,5.3196,5.3196,5.3196,5.3196,5.322,5.3285,5.3369,5.3571,5.3766,0.0,0.0,0.0,0.0,0.0,0.0,0.0,0.0,0.0,0.0,0.0,5.5689,5.5689,0.0,0.0,0.0,5.5751,5.5797,5.5827,5.5916,0.0,0.0,0.0,0.0,0.0,0.0,0.0,5.6443,5.6502,5.6537,5.655,5.6579,5.662,5.6621,5.6621,5.6621,5.6621,0.0,5.6621,5.6621,5.6621,5.6621,5.6621,5.6621,5.6621,5.6621,5.6621,5.6621,5.6621,5.6621,5.6621,5.6621,5.6621,5.6621,5.6621,5.656,5.6535,5.6532,5.6515,5.6484,5.645,5.6396,5.6342,5.4032,5.4009,5.2943,5.2539,5.2624,5.2624,5.2776,5.3009,5.302,5.3092,5.3196,5.3196,5.3196,5.3196,5.3196,0.0,5.3196,5.3196,5.3196,5.3196,5.3196,5.3196,5.3196,5.3196,5.3196,5.3196,5.3196,5.3196,5.3196,5.3196,5.3196,5.3185,5.3082,5.3082,5.3185,5.3063,5.3082,5.3185,5.3196,5.3196,5.3196,5.3196,5.3196,5.3196,5.3196,5.3196,5.3217,5.3274,5.3371,5.3521,5.3785,5.4053,5.4322,0.0,0.0,0.0,0.0,0.0,0.0,0.0,0.0,0.0,0.0,0.0,0.0,0.0,0.0,0.0,5.5827,0.0,5.5902,5.604,0.0,0.0,0.0,5.6332,5.6398,5.6457,5.6494,5.6489,0.0,0.0,5.6618,0.0,5.6621,5.6621,5.6621,5.6621,5.6621,5.6621,5.6621,5.6621,5.6621,5.6621,5.6621,5.6621,5.6621,5.6621,5.6621,5.6621,5.6621,5.6621,5.6621,5.6621,5.6621,5.6621,5.6621,5.6601,5.6621,5.66,5.6554,5.6519,5.6518,5.6497,5.6443,5.5199,5.5203,5.4924,5.4081,5.2923,5.2904,5.2999,5.3153,5.3164,5.3164,5.3196,5.3196,5.3196,5.3196,5.3196,5.3196,5.3196,5.3196,5.3196,5.3196,5.3196,5.3196,5.3196,5.3196,5.3196,5.3196,5.3196,5.3196,5.3196,5.3196,5.3196,5.3196,5.3175,5.3156,5.3196,5.3175,5.3175,5.3196,5.3196,5.3196,5.3196,5.3196,5.3196,5.3196,5.3196,5.322,5.3285,5.338,5.3552,5.3795,5.4062,5.4347,5.467,5.4935,0.0,0.0,0.0,0.0,0.0,0.0,0.0,0.0,0.0,5.5689,5.5689,0.0,5.5724,0.0,5.5937,5.6057,5.6065,5.6174,0.0,0.0,5.6387,5.6459,5.6484,5.649,5.6494,5.6496,5.6552,5.6618,5.6619,5.6621,5.6621,5.6621,5.6621,5.6621,5.6621,5.6621,5.6621,5.6621,5.6621,5.6621,5.6621,5.6621,5.6621,5.6621,5.6621,5.6621,5.6621,5.6621,5.6621,5.6621,5.6621,5.6621,5.6621,5.6621,5.6621,5.6621,5.66,5.6575,5.6587,5.6533,5.6485,5.6124,5.6106,5.575,5.5045,5.4129,5.3781,5.3454,5.3196,5.3196,5.3196,5.3196,5.3196,5.3196,5.3196,5.3196,5.3196,5.3196,5.3196,5.3196,5.3196,5.3196,5.3196,5.3196,5.3196,5.3196,5.3196,5.3196,5.3196,5.3196,5.3196,5.3196,5.3196,5.3196,5.3196,5.3196,5.3196,5.3196,5.3196,5.3196,5.3196,5.3196,5.322,5.3251,5.3251,5.3303,5.3367,5.3442,5.3573,5.3813,5.4062,5.4364,5.4662,5.4964,5.5164,5.5333,0.0,0.0,0.0,0.0,0.0,0.0,0.0,0.0,0.0,0.0,0.0,5.5731,0.0,5.6016,5.6129,5.6201,5.6286,5.637,5.6392,5.6467,5.6516,5.6542,5.6543,5.6533,5.6553,5.6579,5.662,5.662,5.6621,5.6621,5.6621,5.6621,5.6621,5.6621,5.6621,5.6621,5.6621,5.6621,5.6621,5.6621,5.6621,5.6621,5.6621,5.6621,5.6621,5.6621,5.6621,5.6621,5.6621,5.6621,5.6621,5.6621,5.6621,5.6621,5.6621,5.662,5.6618,5.6613,5.6587,5.6512,5.6939,5.6877,5.6209,5.586,5.5713,5.5005,5.4242,5.3508,5.3398,5.3306,5.3196,5.3196,5.3196,5.3196,5.3196,5.3196,5.3196,5.3196,5.3196,5.3196,5.3188,5.3217,5.3217,5.3227,5.3238,5.3238,5.322,5.3238,5.322,5.322,5.322,5.3238,5.3238,5.3238,5.3238,5.3238,5.3227,5.3196,5.3206,5.3217,5.3217,5.3287,5.3341,5.3341,5.3481,5.36,5.3652,5.387,5.4089,5.433,5.4651,5.4971,5.5203,5.5358,5.5486,0.0,5.5607,0.0,0.0,0.0,0.0,0.0,0.0,0.0,0.0,5.5735,5.5788,5.5926,5.6032,5.6177,5.6294,5.6377,5.642,5.649,5.6515,5.6529,5.6593,5.6617,5.6619,5.6619,5.6621,5.6621,5.6621,5.6621,5.6621,5.6621,5.6621,5.6621,5.6621,5.6621,5.6621,5.6621,5.6621,5.6621,5.6621,5.6621,5.6621,5.6621,5.6621,5.6621,5.6621,5.6621,5.6621,5.6621,5.6621,5.6621,5.6621,5.6621,5.6582,5.6598,5.6597,5.6596,5.6592,5.657,5.656,5.7776,5.7758,5.7593,5.7171,5.6565,5.6418,5.5904,5.5097,5.4454,5.3812,5.3214,5.3196,5.3196,5.3196,5.3196,5.3196,5.3196,5.3196,5.3196,5.3196,5.3254,5.3277,5.3287,5.3398,5.3457,5.3439,5.3439,5.3457,5.3449,5.3449,5.3439,5.342,5.3457,5.342,5.3439,0.0,0.0,0.0,5.3254,5.3287,5.3305,5.3444,5.3553,5.3553,5.3728,0.0,5.4,5.4258,5.4478,5.4618,5.4943,0.0,0.0,0.0,0.0,0.0,0.0,0.0,0.0,0.0,0.0,0.0,5.5831,5.5855,5.5782,5.5885,5.5967,5.605,5.6184,5.6283,5.6383,5.6443,5.6483,5.6497,5.6551,5.6598,5.6618,5.662,5.6621,5.6621,5.6621,5.6621,5.6621,5.6621,5.6621,5.6621,5.6621,5.6621,5.6621,5.6621,5.6621,5.6621,5.6621,5.6621,5.6621,5.6621,5.6621,5.6621,5.6621,5.6621,5.6621,5.6621,5.6621,5.6621,5.6621,5.662,5.66,5.6618,5.6575,5.6529,5.6527,5.6508,5.6525,5.6519,5.6483,5.7978,0.0,5.7978,5.7758,0.0,5.7391,5.7205,5.6783,5.5552,5.4546,5.3783,5.3361,5.3227,5.3261,5.3261,5.3293,5.3345,5.3345,5.3355,5.3355,5.3369,5.3412,5.3444,5.3504,5.359,5.3658,5.3639,5.3658,5.3639,5.3658,5.3639,5.3658,5.3639,5.3639,5.3639,5.3658,5.3549,5.3373,5.3388,5.342,5.3454,5.3633,5.3785,5.3842,0.0,0.0,0.0,0.0,0.0,0.0,0.0,0.0,0.0,0.0,0.0,5.5703,5.5735,5.5751,5.5751,5.5822,5.5847,5.5847,5.5935,5.5949,5.5856,5.596,5.6083,5.6147,5.6283,5.6383,5.6447,5.6494,5.6522,5.6553,5.6579,5.662,5.662,5.6621,5.6621,5.6621,5.6621,5.6621,5.6621,5.6621,5.6621,5.6621,5.6621,5.6621,5.6621,5.6621,5.6621,5.6621,5.6621,5.6621,5.6621,5.6621,5.6621,5.6621,5.6621,5.662,5.662,5.662,5.6619,5.6619,5.6617,5.6596,5.6573,5.657,5.6544,5.6505,5.6498,5.6467,5.6407,5.6433,5.6472,5.7978,5.8008,5.802,5.8031,5.8031,5.8054,5.8133,5.8142,0.0,0.0,0.0,5.3957,5.3697,5.3744,5.3627,5.3652,5.3714,5.3615,5.3559,5.3559,5.358,5.3631,5.3699,5.371,5.3785,5.3917,5.3917,5.3917,5.3898,5.3917,5.3898,5.3917,5.3898,5.3898,5.3917,5.3898,5.3832,5.3659,5.3638,5.3649,5.3681,5.3898,5.408,5.4198,5.4462,5.464,5.4692,5.4897,5.5071,5.5217,5.5371,5.5486,5.559,5.5676,5.5708,5.5724,5.5796,5.5812,5.5817,5.5899,5.5947,5.5969,5.6079,5.6075,5.5969,5.6075,5.6151,5.6216,5.6329,5.6449,5.649,5.6516,5.6533,5.66,5.6621,5.6621,5.6621,5.6621,5.6621,5.6621,5.6621,5.6621,5.6621,5.6621,5.6621,5.6621,5.6621,5.6621,5.6621,5.6621,5.6621,5.6621,5.6621,5.6621,5.6621,5.6621,5.6621,5.6621,5.66,5.6578,5.6577,5.6574,5.657,5.6589,5.6588,5.6543,5.6497,5.6488,5.6476,5.6473,5.648,5.6435,5.6319,5.6349,5.6372,5.799,5.8026,5.8111,5.8174,5.8186,5.8305,5.8396,5.8372,5.7414,5.6504,5.5684,5.5573,5.5528,5.5512,5.4939,5.4675,5.4658,5.4051,5.3765,0.0,5.3935,5.4009,5.4055,5.4207,5.4295,5.4313,5.4313,5.4313,5.4332,5.4313,5.4313,5.4313,5.4332,5.4313,5.4313,5.4332,5.4304,5.4269,5.4109,5.4027,5.4027,5.4342,5.4525,5.4549,5.4844,5.5023,5.5038,5.5222,5.5345,5.5377,5.5504,5.5579,5.5602,5.5657,5.573,5.5782,5.5851,5.588,5.5879,5.6007,5.6121,5.6233,5.6244,5.6235,5.6168,5.6226,5.63,5.6354,5.6434,5.6489,5.6498,5.6553,5.6599,5.6621,5.6621,5.6621,5.6621,5.6621,5.6621,5.6621,5.6621,5.6621,5.6621,5.6621,5.6621,5.6621,5.6621,5.6621,5.6621,5.6621,5.6621,5.6621,5.6621,5.6621,5.6621,5.662,5.66,5.6619,5.6554,5.6526,5.6526,5.6517,5.6511,5.6512,5.6514,5.6499,5.6491,5.6455,5.6401,5.6342,5.6316,5.6288,5.6163,5.6144,5.6163,5.8219,5.8219,5.8275,5.8331,5.837,5.8635,5.8741,5.8755,5.8472,5.7739,5.6755,5.63,5.6186,5.624,5.5964,5.5883,5.5968,5.5632,5.5509,5.5545,5.5615,5.5712,5.5768,5.589,5.5702,5.5346,5.5336,5.5101,5.4716,5.4678,5.4659,5.467,5.467,5.467,5.4678,5.4678,5.4678,5.4651,5.4439,5.4335,5.4386,5.468,5.4841,5.4886,5.5123,5.5268,5.5268,5.537,5.5474,5.551,5.5562,5.5624,5.5714,5.574,5.5792,5.5866,5.5965,5.6008,5.6011,5.613,5.6252,5.6405,5.6405,5.6394,5.6357,5.6392,5.642,5.6461,5.6488,5.6517,5.6553,5.6578,5.662,5.6621,5.6621,5.6621,5.6621,5.6621,5.6621,5.6621,5.6621,5.6621,5.6621,5.6621,5.6621,5.6621,5.6621,5.662,5.6599,5.6599,5.6619,5.6621,5.6621,5.6621,5.6599,5.6576,5.6553,5.6553,5.6535,5.6498,5.6494,5.6479,5.646,5.6448,5.6449,5.6448,5.6407,5.6354,5.6286,5.6201,5.6194,5.6135,5.6016,5.596,5.5953,5.8451,5.8462,5.8516,5.8604,5.8714,5.9014,5.9149,5.9168,5.9355,5.8906,5.8023,5.7301,5.7088,5.7229,5.7098,5.7122,5.7237,5.7073,5.7049,5.709,5.7113,5.7184,5.7285,5.7342,5.7055,5.6564,5.6496,5.6177,5.5645,5.5562,5.5581,5.5588,5.5569,5.5562,5.5588,5.5581,5.5569,5.5555,5.5386,5.5112,5.4742,5.4952,5.5113,5.5176,5.5352,5.545,5.545,5.551,5.5573,5.5654,5.564,5.5708,5.5821,5.5822,5.5852,5.5944,5.6066,5.614,5.6181,5.6275,5.6386,5.6494,5.6499,5.6511,5.653,5.6521,5.6531,5.6499,5.6518,5.6553,5.6598,5.6619,5.662,5.6621,5.6621,5.6621,5.6621,5.6621,5.6621,5.6621,5.6621,5.6621,5.6621,5.6621,5.6621,5.6621,5.6599,5.6576,5.6572,5.6568,5.6566,5.657,5.6571,5.657,5.6568,5.654,5.6514,5.6493,5.6476,5.6445,5.6432,5.6405,5.6354,5.6332,5.633,5.6306,5.6281,5.6227,5.616,5.606,5.6048,5.6026,5.5917,5.5827,5.5807,5.8685,5.8698,5.8874,5.9101,5.9318,5.9472,5.9569,5.9645,5.9784,5.9798,5.958,5.9283,5.9107,5.9148,5.8583,5.8331,5.8307,5.767,5.7406,5.7456,5.7491,5.7546,5.767,5.7791,5.7802,5.7732,5.7732,5.7623,5.7471,5.7516,5.758,5.7618,5.7618,5.7561,5.758,5.758,5.7599,5.7599,5.7665,5.6834,5.5175,5.5196,5.5307,5.5377,5.5529,5.5598,5.5656,5.564,5.5719,5.5771,5.5796,5.5821,5.589,5.5899,5.5949,5.6082,5.6142,5.6278,5.6428,5.6487,5.6476,5.6495,5.6499,5.6523,5.6591,5.6594,5.6554,5.6527,5.6554,5.6579,5.6619,5.662,5.6621,5.6621,5.6621,5.6621,5.6621,5.6621,5.6621,5.6621,5.6621,5.6621,5.662,5.6599,5.6598,5.6593,5.6568,5.6501,5.6496,5.6496,5.6493,5.6502,5.6503,5.6516,5.6508,5.6509,5.6472,5.6485,5.6407,5.6337,5.6294,5.6258,5.623,5.6191,5.6174,5.6135,5.6118,5.6051,5.5971,5.5958,5.5937,5.59,5.5817,5.5766,5.5751,5.9072,5.914,5.9206,5.9372,5.9594,5.9806,5.9912,5.996,6.0091,6.0193,6.0222,6.0106,5.998,5.9839,5.9611,5.9521,5.9528,5.9249,5.9178,5.924,5.9304,5.9345,5.9393,5.9446,5.9243,5.8764,5.8732,5.8483,5.8087,5.803,5.8011,5.8011,5.8011,5.8011,5.803,5.803,5.803,5.8011,5.8036,5.7678,5.7047,5.6989,5.7026,5.7062,5.7138,5.6956,5.6541,5.651,5.6316,5.5904,5.5842,5.5899,5.595,5.6001,5.6071,5.6216,5.6328,5.6404,5.6488,5.6498,5.6516,5.6554,5.6555,5.6577,5.66,5.662,5.66,5.658,5.6582,5.6621,5.6621,5.6621,5.6621,5.6621,5.6621,5.6621,5.6621,5.6621,5.662,5.662,5.6619,5.6618,5.6596,5.6554,5.6526,5.6547,5.6515,5.6485,5.6457,5.643,5.6425,5.638,5.6379,5.6408,5.6425,5.6402,5.6379,5.6356,5.6264,5.6178,5.6168,5.6132,5.6071,5.6032,5.5996,5.5997,5.6005,5.595,5.5885,5.5861,5.5812,5.5785,5.5765,5.5724,5.5705,5.949,5.9533,5.9585,5.9711,5.9933,6.0121,6.0222,6.0251,6.0327,6.0421,6.0532,6.0533,6.0459,6.0282,6.0304,6.0346,6.0387,6.0375,6.0421,6.0525,6.0533,6.0565,6.0629,6.0655,6.0316,5.9797,5.9727,5.942,5.8888,5.885,5.8856,5.885,5.8856,5.8831,5.8831,5.8837,5.8831,5.885,5.8856,5.8868,5.8904,5.894,5.871,5.8295,5.8275,5.8017,5.7457,5.7469,5.7231,5.668,5.6673,5.6691,5.6761,5.683,5.6926,5.7054,5.7168,5.722,5.7242,5.7229,5.7257,5.7303,5.7323,5.7324,5.7305,5.7324,5.7187,5.6992,5.6953,5.6914,5.6621,5.6621,5.6621,5.6621,5.6621,5.6621,5.6621,5.6619,5.6578,5.6577,5.6573,5.6568,5.656,5.6506,5.6481,5.6471,5.6451,5.6433,5.6378,5.633,5.6294,5.6249,5.6233,5.6264,5.6324,5.63,5.625,5.6216,5.613,5.6056,5.6044,5.5997,5.5968,5.5953,5.5903,5.5871,5.588,5.5866,5.5836,5.5776,5.574,5.5714,5.5714,5.5689,5.5689,5.9877,5.9902,6.0026,6.0215,6.0472,6.0459,6.0519,6.0546,6.0572,6.0597,6.061,6.0654,6.0679,6.0648,6.061,6.0584,6.0591,6.0572,6.0578,6.061,6.0654,6.0685,6.0697,6.0771,6.075,6.0604,6.0584,6.0596,6.0564,6.0602,6.0679,6.0621,6.0544,6.0608,6.055,6.0506,6.0621,6.0492,6.0492,6.0608,6.0614,6.0665,5.9914,5.8599,5.8341,5.8379,5.8279,5.8365,5.8422,5.846,5.8432,5.8524,5.8616,5.8662,5.8722,5.8876,5.8911,5.8951,5.896,5.8922,5.8944,5.8984,5.8867,5.9004,5.8848,5.8828,5.8535,5.791,5.7851,5.7558,5.6914,5.6699,5.6621,5.662,5.6599,5.6598,5.6594,5.6592,5.657,5.6525,5.65,5.6484,5.6511,5.6441,5.6392,5.6366,5.633,5.6288,5.6264,5.6177,5.6124,5.6094,5.606,5.6048,5.6181,5.6151,5.6128,5.6094,5.6028,5.5935,5.5913,5.5909,5.59,5.5895,5.5846,5.5807,5.5787,5.5766,5.574,5.5719,5.5719,5.5689,5.5689,5.5689,5.5689,6.0203,6.0311,6.0384,6.0473,6.0546,6.0617,6.0635,6.068,6.0717,6.0735,6.0716,6.074,6.0752,6.0765,6.0722,6.0729,6.0735,6.0735,6.0716,6.0735,6.0759,6.0771,6.0771,6.0794,6.08,6.08,6.08,6.0843,6.0858,6.0858,6.088,6.0927,6.0933,6.0914,6.0914,6.0933,6.0933,6.0914,6.0933,6.0914,6.0938,6.0934,6.0646,6.0091,6.0029,5.9789,5.9278,5.938,5.9242,5.876,5.8784,5.8842,5.8879,5.8968,5.9066,5.9088,5.9128,5.9194,5.9197,5.9198,5.9199,5.9199,5.9199,5.9258,5.9199,5.9199,5.9062,5.8808,5.873,5.8535,5.8144,5.7284,5.662,5.6599,5.6575,5.6569,5.6545,5.6532,5.6514,5.6506,5.6467,5.6422,5.6378,5.6355,5.6294,5.6214,5.6181,5.6135,5.6064,5.5999,5.5969,5.5973,5.596,5.596,5.5971,5.5986,5.5969,5.5947,5.5908,5.5856,5.5837,5.5793,5.5782,5.5782,5.5756,5.5751,5.5745,5.574,5.5689,5.5689,5.5689,5.5689,5.5689,5.5689,5.5689,6.0467,6.0571,6.0623,6.0648,6.0673,6.0723,6.0722,6.0728,6.0769,6.08,6.08,6.08,6.08,6.0806,6.0823,6.0835,6.0829,6.0812,6.08,6.08,6.08,6.08,6.0806,6.0823,6.0829,6.0835,6.0852,6.09,6.0933,6.0916,6.0967,6.0999,6.102,6.1049,6.1025,6.1044,6.1025,6.1025,6.1044,6.103,6.1016,6.1041,6.1079,6.1069,6.1119,6.09,6.0282,6.041,6.0247,5.9769,5.9738,5.9773,5.9818,5.989,5.9938,5.9949,5.9977,5.9999,5.9999,6.0019,6.0019,6.0019,6.0,6.0,6.0019,6.0,5.9883,5.9687,5.9589,5.953,5.9018,5.8076,5.7313,5.706,5.695,5.6779,5.6539,5.6486,5.6474,5.6429,5.6354,5.6288,5.6243,5.6203,5.6128,5.6048,5.6047,5.5993,5.5917,5.5875,5.5861,5.588,5.5846,5.5817,5.5842,5.5827,5.5856,5.5856,5.5837,5.5797,5.5766,5.571,5.5689,5.5689,5.5689,5.5689,5.5689,5.5689,5.5689,5.5689,5.5689,5.5689,5.5689,5.5689,5.5689,6.0629,6.0685,6.0691,6.0741,6.0783,6.0788,6.08,6.0794,6.08,6.08,6.08,6.0787,6.0812,6.0818,6.0863,6.0891,6.0872,6.0858,6.0829,6.0823,6.0818,6.0818,6.0823,6.0888,6.0897,6.0903,6.0971,6.0997,6.1018,6.1011,6.1017,6.1027,6.1118,6.1137,6.1103,6.1113,6.1127,6.1132,6.1137,6.1132,6.1113,6.1163,6.1213,6.1229,6.1369,6.1363,6.1155,6.1324,6.1345,6.1344,6.1409,6.16,6.1458,6.1475,6.1599,6.1482,6.1582,6.1621,6.1582,6.1523,6.1426,6.1426,6.1582,6.1426,6.1367,6.1426,6.1152,6.0564,6.0388,6.0131,5.9472,5.9197,5.874,5.7987,5.7791,5.7469,5.6806,5.6457,5.6368,5.6302,5.6177,5.6106,5.6071,5.6015,5.5958,5.5931,5.5913,5.59,5.5876,5.5822,5.5816,5.5787,5.5766,5.5751,5.573,5.5695,5.5731,5.5757,5.5737,5.5724,5.573,5.5689,5.5689,5.5689,5.5689,5.5689,5.5689,5.5689,5.5689,5.5689,5.5689,5.5689,5.5689,5.5689,5.5689,6.0753,6.0757,6.0777,6.0788,6.08,6.08,6.08,6.08,6.08,6.08,6.0812,6.0846,6.0883,6.0875,6.0938,6.0973,6.0971,6.0955,6.0948,6.0935,6.0944,6.0944,6.0944,6.0979,6.0967,6.0976,6.1041,6.1089,6.1125,6.1133,6.1167,6.1244,6.1303,6.131,6.1291,6.131,6.1291,6.131,6.131,6.1302,6.1309,6.1356,6.1392,6.141,6.1495,6.1521,6.1495,6.1524,6.1547,6.1568,6.1627,6.1675,6.1691,6.1715,6.1717,6.1699,6.1699,6.1699,6.1699,6.1699,6.1699,6.1699,6.1699,6.1699,6.1698,6.1718,6.1599,6.1302,6.1299,6.1132,6.0893,6.0774,6.0095,5.8795,5.8566,5.8201,5.7339,5.6646,5.6192,5.6052,5.599,5.5952,5.5959,5.5895,5.5876,5.5847,5.5822,5.5821,5.5785,5.5756,5.5716,5.571,5.5689,5.5689,5.5689,5.5689,5.5705,5.5726,5.5705,5.5689,5.5689,5.5689,5.5689,5.5689,5.5689,5.5689,5.5689,5.5689,5.5689,5.5689,5.5689,5.5689,5.5689,5.5689,5.5689,6.155,6.1287,6.1287,6.1095,6.0825,6.0823,6.0835,6.0841,6.0858,6.0869,6.088,6.0911,6.0938,6.0959,6.1036,6.1075,6.1074,6.1125,6.1149,6.1123,6.106,6.104,6.1045,6.106,6.1099,6.1162,6.121,6.1221,6.1271,6.1304,6.1359,6.1418,6.1437,6.1443,6.1424,6.1443,6.1443,6.1443,6.1424,6.1433,6.1437,6.1489,6.1537,6.1563,6.1598,6.1642,6.1625,6.1635,6.1638,6.1642,6.1659,6.1712,6.1717,6.1698,6.1699,6.1699,6.1699,6.1699,6.1699,6.1699,6.1699,6.1699,6.1699,6.1698,6.1715,6.1713,6.1709,6.1701,6.1669,6.1647,6.1545,6.149,6.0927,5.998,5.947,5.8901,5.8021,5.7102,5.656,5.639,5.6092,5.5924,5.5866,5.5831,5.5816,5.5766,5.5761,5.5756,5.5719,5.5689,5.5689,5.5689,5.5689,5.5689,5.5689,5.5689,5.5689,5.5695,5.5695,5.5689,5.5689,5.5689,5.5689,5.5689,5.5689,5.5689,5.5689,5.5689,5.5689,5.5689,5.5689,5.5689,5.5689,5.5689,5.5689,6.2845,6.2203,6.2184,6.1772,6.1143,6.1164,6.1249,6.1145,6.1221,6.1306,6.1283,6.1408,6.1317,6.1268,6.1595,6.1581,6.133,6.1507,6.1481,6.1371,6.1243,6.1147,6.1154,6.1192,6.1283,6.1361,6.1379,6.1405,6.1424,6.1448,6.15,6.151,6.1529,6.1519,6.1519,6.1519,6.1519,6.1517,6.1519,6.1519,6.1526,6.158,6.1602,6.1605,6.1663,6.1679,6.168,6.169,6.1692,6.1705,6.1713,6.1717,6.1699,6.1699,6.1699,6.1699,6.1699,6.1699,6.1699,6.1699,6.1699,6.1717,6.1716,6.1695,6.1687,6.1698,6.1667,6.1668,6.1625,6.1564,6.15,6.1404,6.1225,6.1077,6.0223,5.9433,5.8645,5.7786,5.7313,5.7033,5.6448,5.5883,5.5979,5.5885,5.5724,5.5714,5.5714,5.5695,5.5689,5.5689,5.5689,5.5689,5.5689,5.5689,5.5689,5.5689,5.5689,5.5689,5.5689,5.5689,5.5689,5.5689,5.5689,5.5689,5.5689,5.5689,5.5689,5.5689,5.5689,5.5689,5.5689,5.5689,5.5689,5.5689,5.5689,6.3286,6.3139,6.3144,6.2984,6.2792,6.2827,6.2821,6.2878,6.288,6.2824,6.2955,6.304,6.2969,6.3059,6.3142,6.2931,6.2471,6.2395,6.2035,6.152,6.1443,6.1357,6.1333,6.1379,6.1442,6.1482,6.1492,6.15,6.1554,6.1567,6.1588,6.1651,6.1651,6.1636,6.1657,6.1636,6.1657,6.1637,6.1657,6.1643,6.1654,6.166,6.169,6.1678,6.1689,6.1713,6.1714,6.1717,6.1699,6.1717,6.1698,6.1699,6.1699,6.1699,6.1699,6.1699,6.1699,6.1699,6.1699,6.1698,6.1717,6.1716,6.1709,6.1678,6.164,6.1625,6.1597,6.1573,6.1529,6.1465,6.1373,6.1291,6.1171,6.0939,6.0345,5.9742,5.9295,5.8573,5.8018,5.7887,5.7222,5.678,5.6582,5.6167,5.5805,5.5785,5.5728,5.5689,5.5689,5.5689,5.5689,5.5689,5.5689,5.5689,5.5689,5.5689,5.5689,5.5689,5.5689,5.5689,5.5689,5.5689,5.5689,5.5689,5.5689,5.5689,5.5689,5.5689,5.5689,5.5689,5.5689,5.5689,5.5689,5.5689,5.5689,6.434,6.407,6.4077,6.3894,6.361,6.3617,6.3637,6.3695,6.3717,6.3776,6.3828,6.3849,6.3909,6.3934,6.4015,6.3825,6.3392,6.3369,6.3119,6.2758,6.2728,6.2286,6.1736,6.1532,6.155,6.159,6.1607,6.1609,6.1645,6.1633,6.1664,6.1691,6.1713,6.1713,6.1693,6.1714,6.1713,6.1694,6.1714,6.1717,6.1702,6.1707,6.171,6.1713,6.1717,6.1698,6.1698,6.1699,6.1699,6.1699,6.1699,6.1699,6.1699,6.1699,6.1699,6.1699,6.1699,6.1699,6.1698,6.1715,6.171,6.1705,6.167,6.1625,6.1572,6.1543,6.1532,6.1468,6.1402,6.1335,6.126,6.1149,6.1021,6.0877,6.0487,6.0178,6.0088,5.9331,5.8872,5.8613,5.8107,5.7536,5.7511,5.6786,5.6382,5.6189,5.5901,5.5805,5.5689,5.5708,5.5689,5.5689,5.5689,5.5689,5.5689,5.5689,5.5689,5.5689,5.5689,5.5689,5.5689,5.5689,5.5689,5.5689,5.5689,5.5689,5.5689,5.5689,5.5689,5.5689,5.5689,5.5689,5.5689,5.5689,5.5689,6.5689,6.499,6.502,6.4638,6.4125,6.4085,6.4267,6.4155,6.429,6.4356,6.4416,6.4337,6.4557,6.4381,6.4731,6.4473,6.4338,6.4324,6.4217,6.4048,6.3915,6.3379,6.228,6.2215,6.2208,6.2225,6.2007,6.2107,6.2208,6.2058,6.1866,6.1906,6.1828,6.171,6.171,6.1711,6.171,6.1711,6.1711,6.1711,6.1712,6.1715,6.1717,6.1717,6.1699,6.1699,6.1699,6.1699,6.1699,6.1699,6.1699,6.1699,6.1699,6.1699,6.1699,6.1699,6.1717,6.1715,6.1694,6.1684,6.1689,6.1676,6.1607,6.1549,6.15,6.1465,6.1425,6.1333,6.1252,6.1167,6.1126,6.1004,6.0919,6.0855,6.0783,6.0793,6.0671,6.0127,5.9646,5.9588,5.8915,5.8506,5.8217,5.7742,5.7132,5.7074,5.6632,5.6228,5.6016,5.5843,5.5785,5.5689,5.5689,5.5689,5.5689,5.5689,5.5689,5.5689,5.5689,5.5689,5.5689,5.5689,5.5689,5.5689,5.5689,5.5689,5.5689,5.5689,5.5689,5.5689,5.5689,5.5689,5.5689,5.5689,5.5689,6.6202,6.615,6.6139,6.607,6.5922,6.5906,6.5929,6.5923,6.5958,6.5906,6.607,6.6093,6.6057,6.6087,6.6022,6.5886,6.5281,6.5215,6.4986,6.4302,6.4284,6.417,6.3718,6.3714,6.3693,6.3659,6.3718,6.3702,6.3569,6.2984,6.2713,6.2655,6.2207,6.1738,6.1816,6.1933,6.1719,6.1719,6.1777,6.1855,6.1875,6.1875,6.1875,6.1855,6.1797,6.1719,6.1719,6.1699,6.1699,6.1699,6.1699,6.1699,6.1699,6.1698,6.1717,6.1716,6.169,6.1703,6.1699,6.1658,6.1612,6.1618,6.1534,6.1487,6.141,6.1319,6.1248,6.1169,6.1093,6.1022,6.0974,6.093,6.0875,6.0835,6.0818,6.08,6.0762,6.0627,6.0454,6.0281,5.9762,5.9236,5.9204,5.8511,5.8069,5.7915,5.7434,5.6843,5.6497,5.6184,5.6035,5.5978,5.5708,5.5708,5.5689,5.5689,5.5689,5.5689,5.5689,5.5689,5.5689,5.5689,5.5689,5.5689,5.5689,5.5689,5.5689,5.5689,5.5689,5.5689,5.5689,5.5689,5.5689,5.5689,5.5689,6.6498,6.6552,6.6569,6.6604,6.6587,6.6594,6.6604,6.6634,6.6679,6.6717,6.6755,6.6757,6.6766,6.6774,6.6797,6.6532,6.6261,6.6187,6.5993,6.5622,6.5564,6.5526,6.5507,6.5408,6.5212,6.4512,6.4274,6.4295,6.414,6.3906,6.3613,6.3613,6.3105,6.3066,6.291,6.2851,6.2988,6.2988,6.293,6.291,6.291,6.291,6.291,6.2773,6.2558,6.2305,6.2344,6.1894,6.1738,6.1718,6.1736,6.1716,6.1717,6.1715,6.1711,6.1708,6.167,6.1657,6.1645,6.1602,6.1553,6.1532,6.1446,6.1368,6.1283,6.1186,6.1098,6.1036,6.0995,6.0946,6.0863,6.0852,6.0829,6.0818,6.08,6.08,6.08,6.08,6.08,6.0723,6.0377,6.0165,5.9858,5.9261,5.8973,5.88,5.8165,5.7588,5.7382,5.7055,5.6613,5.6362,5.592,5.5728,5.5708,5.5689,5.5689,5.5689,5.5689,5.5689,5.5689,5.5689,5.5689,5.5689,5.5689,5.5689,5.5689,5.5689,5.5689,5.5689,5.5689,5.5689,5.5689,5.5689,5.5689,6.6618,6.6629,6.6688,6.6717,6.6707,6.6703,6.672,6.6728,6.6791,6.6822,6.6815,6.6816,6.6839,6.6885,6.689,6.6892,6.6854,6.6836,6.664,6.6621,6.6601,6.6582,6.6621,6.6504,6.6094,6.4785,6.4883,6.4883,6.4844,6.457,6.4512,6.4453,6.4277,6.4023,6.418,6.4258,6.4082,6.4023,6.4004,6.4043,6.4082,6.4101,6.4082,6.3945,6.3555,6.3203,6.3086,6.2673,6.2222,6.2105,6.2092,6.2091,6.2017,6.1722,6.1691,6.1689,6.161,6.1598,6.1578,6.1492,6.1434,6.1428,6.1287,6.1186,6.1125,6.107,6.1016,6.0959,6.0919,6.0869,6.0793,6.0793,6.0806,6.08,6.08,6.08,6.08,6.08,6.08,6.0781,6.0666,6.055,6.0435,6.005,5.9858,5.9569,5.8934,5.8454,5.8242,5.7877,5.742,5.6978,5.6574,5.5901,5.5766,5.5747,5.5728,5.5689,5.5689,5.5689,5.5689,5.5689,5.5689,5.5689,5.5689,5.5689,5.5689,5.5689,5.5689,5.5689,5.5689,5.5689,5.5689,5.5689,5.5689,6.6711,6.6778,6.678,6.6769,6.6779,6.6785,6.6809,6.6876,6.6858,6.6881,6.6883,6.6888,6.689,6.6891,6.6894,6.6894,6.6894,6.6894,6.6894,6.6894,6.6894,6.6894,6.6894,6.6894,6.664,6.6601,6.6348,6.623,6.6113,6.5801,6.543,6.5234,6.4765,6.4473,6.4512,6.4336,6.4551,6.4648,6.4609,6.459,6.457,6.457,6.457,6.4549,6.4256,6.4098,6.4054,6.3952,6.3868,6.3884,6.3794,6.3738,6.3364,6.2407,6.1836,6.1691,6.1571,6.1495,6.1479,6.134,6.126,6.1213,6.1119,6.1036,6.1007,6.096,6.0911,6.0903,6.0858,6.0812,6.0806,6.08,6.08,6.08,6.08,6.08,6.08,6.08,6.08,6.08,6.08,6.0781,6.0646,6.055,6.0396,6.0127,5.9704,5.9377,5.9242,5.8761,5.8184,5.7761,5.7324,5.6536,5.5862,5.5824,5.5785,5.5708,5.5689,5.5689,5.5689,5.5689,5.5689,5.5689,5.5689,5.5689,5.5689,5.5689,5.5689,5.5689,5.5689,5.5689,5.5689,5.5689,5.5689,6.6823,6.6833,6.6853,6.6856,6.686,6.6844,6.6886,6.6889,6.6891,6.6892,6.6892,6.6893,6.6894,6.6894,6.6894,6.6894,6.6894,6.6894,6.6894,6.6894,6.6894,6.6894,6.6894,6.6894,6.6894,6.6875,6.6875,6.6894,6.6875,6.6504,6.625,6.6211,6.5801,6.5644,6.5664,6.5723,6.5605,6.5586,6.5585,6.5585,6.5604,6.5604,6.5601,6.5541,6.5146,6.4928,6.4825,6.4392,6.4243,6.419,6.4138,6.4101,6.3845,6.3364,6.2555,6.2193,6.1729,6.1377,6.134,6.1188,6.1101,6.1083,6.1016,6.0945,6.0918,6.0883,6.0852,6.0841,6.0829,6.08,6.08,6.08,6.08,6.08,6.08,6.08,6.08,6.08,6.08,6.08,6.08,6.08,6.0781,6.0742,6.0781,6.0627,6.0377,6.0223,6.0089,5.9569,5.8929,5.8531,5.8088,5.7363,5.6632,5.6415,5.6261,5.6088,5.5862,5.5862,5.5747,5.5766,5.5728,5.5689,5.5689,5.5689,5.5689,5.5689,5.5689,5.5689,5.5689,5.5689,5.5689,5.5689,5.5689,6.6906,6.6888,6.6888,6.6888,6.6888,6.6891,6.6893,6.6893,6.6894,6.6894,6.6894,6.6894,6.6894,6.6894,6.6894,6.6894,6.6894,6.6894,6.6894,6.6894,6.6894,6.6894,6.6894,6.6894,6.6894,6.6894,6.6894,6.6894,6.6894,6.6816,6.6875,6.6777,6.6855,6.6894,6.6758,6.6601,6.6894,6.6894,6.6892,6.689,6.6888,6.6884,6.6877,6.6854,6.6122,6.5724,6.5647,6.5219,6.4913,6.4824,6.4682,6.4548,6.445,6.4193,6.3726,6.3091,6.2198,6.1776,6.1651,6.1375,6.1344,6.1358,6.1032,6.0924,6.0869,6.0827,6.0806,6.08,6.08,6.08,6.08,6.08,6.08,6.08,6.08,6.08,6.08,6.08,6.08,6.08,6.08,6.08,6.08,6.08,6.08,6.08,6.055,6.0569,6.0435,6.0185,5.9685,5.9294,5.8819,5.8184,5.7627,5.73,5.7107,5.6896,5.6536,5.6285,5.6074,5.5882,5.5843,5.5843,5.5689,5.5689,5.5689,5.5708,5.5689,5.5689,5.5689,5.5689,5.5689,5.5689,5.5689,6.6893,6.6894,6.6894,6.6894,6.6894,6.6894,6.6894,6.6894,6.6894,6.6894,6.6894,6.6894,6.6894,6.6894,6.6894,6.6894,6.6894,6.6894,6.6894,6.6894,6.6894,6.6894,6.6894,6.6894,6.6894,6.6892,6.6892,6.6894,6.6894,6.6894,6.6894,6.6894,6.6893,6.6892,6.6872,6.687,6.6906,6.6886,6.6885,6.6861,6.6833,6.6823,6.6766,6.6688,6.6555,6.6397,6.6315,6.6048,6.603,6.6027,6.6004,6.5993,6.5885,6.5122,6.4758,6.4357,6.3858,6.3316,6.3035,6.2416,6.1979,6.1858,6.1435,6.0958,6.0933,6.0856,6.08,6.08,6.08,6.08,6.08,6.08,6.08,6.08,6.08,6.08,6.08,6.08,6.08,6.08,6.08,6.08,6.08,6.08,6.08,6.08,6.08,6.08,6.0742,6.0473,6.03,5.9896,5.9627,5.9031,5.8473,5.8165,5.7877,5.7665,5.728,5.6863,5.6766,5.6574,5.6093,5.6055,5.5939,5.5901,5.5958,5.5939,5.5785,5.5689,5.5689,5.5689,5.5689,5.5689,5.5689,6.6894,6.6894,6.6894,6.6894,6.6894,6.6894,6.6894,6.6894,6.6894,6.6894,6.6894,6.6894,6.6894,6.6894,6.6894,6.6894,6.6894,6.6894,6.6894,6.6894,6.6894,6.6894,6.6894,6.6894,6.6894,6.6887,6.6865,6.6825,6.6849,6.687,6.6891,6.6891,6.6889,6.6885,6.6842,6.684,6.6836,6.6829,6.6817,6.6777,6.6753,6.6711,6.667,6.6646,6.6618,6.6579,6.6533,6.6457,6.6415,6.6367,6.6258,6.6177,6.6108,6.5743,6.5467,6.5442,6.5138,6.4438,6.3568,6.3057,6.2854,6.274,6.2376,6.2114,6.1614,6.1133,6.0858,6.08,6.08,6.08,6.08,6.08,6.08,6.08,6.08,6.08,6.08,6.08,6.08,6.08,6.08,6.08,6.08,6.08,6.08,6.08,6.08,6.08,6.08,6.0704,6.055,6.0416,6.0185,5.9935,5.9396,5.8954,5.8569,5.8319,5.805,5.7723,5.7684,5.7434,5.6973,5.6766,5.6824,5.6689,5.6439,5.6035,5.5728,5.5689,5.5689,5.5689,5.5689,5.5689,5.5689,6.6894,6.6894,6.6894,6.6894,6.6894,6.6894,6.6894,6.6894,6.6894,6.6894,6.6894,6.6894,6.6894,6.6894,6.6894,6.6894,6.6894,6.6894,6.6894,6.6894,6.6892,6.6869,6.6867,6.6863,6.6856,6.6852,6.6783,6.6776,6.6792,6.6818,6.6844,6.6877,6.683,6.6825,6.6799,6.6768,6.6775,6.6739,6.6683,6.6644,6.6627,6.6615,6.6552,6.6523,6.6482,6.6431,6.6388,6.6316,6.6273,6.6196,6.6149,6.6088,6.6027,6.594,6.5855,6.5824,6.5678,6.5287,6.4458,6.3914,6.3691,6.3564,6.3314,6.2858,6.2454,6.1723,6.1248,6.1281,6.1229,6.1095,6.0864,6.08,6.08,6.08,6.08,6.08,6.08,6.08,6.08,6.08,6.08,6.08,6.08,6.08,6.08,6.08,6.08,6.08,6.08,6.08,6.0723,6.0608,6.055,6.0416,6.0146,5.9685,5.9319,5.9031,5.8781,5.8607,5.855,5.8294,5.7871,5.7761,5.7728,5.7536,5.7319,5.6478,5.5689,5.5689,5.5689,5.5689,5.5689,5.5728,5.5708,6.6894,6.6894,6.6894,6.6894,6.6894,6.6894,6.6894,6.6894,6.6894,6.6894,6.6894,6.6894,6.6894,6.6894,6.6894,6.6894,6.6894,6.6893,6.6892,6.687,6.6824,6.6796,6.6789,6.6799,6.6781,6.672,6.6686,6.6683,6.6697,6.6697,6.6766,6.6808,6.6744,6.6714,6.6717,6.6689,6.6639,6.6608,6.6536,6.6517,6.6502,6.6469,6.6442,6.6346,6.6316,6.6258,6.6149,6.6134,6.6112,6.605,6.6034,6.6013,6.5995,6.5966,6.5929,6.5923,6.5916,6.566,6.5275,6.4833,6.4576,6.4301,6.3891,6.3448,6.3243,6.316,6.2762,6.2108,6.1999,6.1614,6.1185,6.0819,6.0998,6.08,6.08,6.08,6.08,6.08,6.08,6.08,6.08,6.08,6.08,6.08,6.08,6.08,6.08,6.08,6.0794,6.0794,6.0794,6.0742,6.0762,6.0723,6.0723,6.0396,6.0089,5.9896,5.9685,5.9531,5.9415,5.9088,5.8871,5.8646,5.855,5.8377,5.805,5.7223,5.6472,5.592,5.5805,5.6189,5.6132,5.6055,5.592,6.6894,6.6894,6.6894,6.6894,6.6894,6.6894,6.6894,6.6894,6.6894,6.6894,6.6894,6.6894,6.6894,6.6894,6.6894,6.6893,6.6893,6.6848,6.6844,6.6835,6.678,6.6741,6.6727,6.6699,6.6658,6.6637,6.6591,6.6582,6.6575,6.6565,6.6595,6.6605,6.6596,6.6616,6.6605,6.6562,6.6512,6.6442,6.6376,6.6383,6.6309,6.6263,6.6235,6.6205,6.6116,6.6104,6.6052,6.6052,6.6023,6.5988,6.5953,6.5934,6.5928,6.5916,6.5904,6.5884,6.5884,6.5884,6.5884,6.5577,6.5416,6.5224,6.4647,6.4102,6.4064,6.3679,6.3275,6.2916,6.282,6.2454,6.1787,6.1595,6.1518,6.1037,6.0839,6.0877,6.0858,6.089,6.0788,6.0783,6.0794,6.08,6.08,6.08,6.08,6.08,6.08,6.0794,6.0777,6.0765,6.0759,6.0759,6.0753,6.0765,6.0771,6.0783,6.0794,6.0615,6.0442,6.0238,6.004,6.0262,6.0012,5.9723,5.9358,5.9165,5.8723,5.7953,5.7396,5.7011,5.6973,5.7146,5.692,5.6536,5.6362,6.6894,6.6894,6.6894,6.6894,6.6894,6.6894,6.6894,6.6894,6.6894,6.6894,6.6894,6.6894,6.6894,6.6893,6.6871,6.6868,6.6844,6.6812,6.6782,6.676,6.6705,6.6692,6.6642,6.6599,6.6543,6.6517,6.6475,6.6435,6.6392,6.6406,6.6394,6.6395,6.6419,6.6427,6.6446,6.6387,6.6323,6.6253,6.6211,6.6206,6.6139,6.6107,6.6088,6.6077,6.6038,6.6003,6.5993,6.5977,6.5965,6.594,6.5916,6.5891,6.5884,6.5884,6.5884,6.5884,6.5884,6.5884,6.5884,6.5884,6.5884,6.5673,6.5378,6.5032,6.482,6.4378,6.4218,6.3737,6.3666,6.3358,6.2595,6.2422,6.2345,6.1993,6.1479,6.1402,6.1192,6.1129,6.0905,6.0765,6.0759,6.0729,6.0703,6.0697,6.071,6.0722,6.074,6.0722,6.0704,6.0698,6.0692,6.0692,6.0692,6.071,6.0729,6.071,6.0679,6.0666,6.0545,6.0601,6.0569,6.0734,6.0752,6.0342,6.004,5.9923,5.9627,5.9204,5.8723,5.8236,5.8127,5.7953,5.7723,5.7357,5.7184,6.6894,6.6894,6.6894,6.6894,6.6894,6.6894,6.6894,6.6894,6.6894,6.6894,6.6892,6.6892,6.689,6.6884,6.6838,6.6812,6.6784,6.6732,6.6703,6.6683,6.6605,6.6597,6.6559,6.6507,6.6403,6.631,6.6294,6.6249,6.6196,6.6225,6.619,6.6155,6.6186,6.6221,6.6281,6.6176,6.6118,6.6102,6.6039,6.6036,6.6013,6.6021,6.5992,6.5988,6.5995,6.5965,6.5928,6.5916,6.5923,6.5897,6.5891,6.5884,6.5884,6.5884,6.5884,6.5884,6.5884,6.5884,6.5884,6.5884,6.5884,6.5884,6.5628,6.5647,6.5763,6.5609,6.5282,6.4628,6.4551,6.4147,6.3647,6.3275,6.3179,6.2801,6.2268,6.2025,6.1834,6.1432,6.1221,6.0974,6.0757,6.061,6.0604,6.0591,6.0617,6.0642,6.0685,6.0667,6.0629,6.0565,6.0546,6.0559,6.0559,6.0565,6.0572,6.0578,6.0578,6.0585,6.0585,6.0591,6.0617,6.0661,6.0667,6.0685,6.0569,6.0293,6.0496,6.064,5.9929,5.9192,5.88,5.8588,5.8371,5.8198,5.7992,6.6894,6.6893,6.6893,6.6892,6.6891,6.6894,6.6894,6.6893,6.6891,6.6889,6.6887,6.6844,6.6821,6.6813,6.6769,6.6732,6.672,6.6651,6.6627,6.661,6.6491,6.6412,6.6383,6.6309,6.6211,6.6166,6.6135,6.6109,6.6055,6.6069,6.6063,6.6036,6.6032,6.6041,6.6077,6.6052,6.603,6.6034,6.5999,6.5976,6.5953,6.5947,6.594,6.5941,6.5941,6.5929,6.5884,6.5884,6.5884,6.5884,6.5884,6.5884,6.5884,6.5884,6.5884,6.5884,6.5884,6.5884,6.5884,6.5884,6.5884,6.5884,6.5884,6.5884,6.5884,6.5884,6.5667,6.5513,6.534,6.4897,6.4397,6.4205,6.3987,6.3333,6.2885,6.286,6.2649,6.2029,6.1614,6.1307,6.1068,6.0689,6.0554,6.0398,6.0399,6.0413,6.0433,6.0513,6.0486,6.0386,6.0325,6.036,6.0366,6.0373,6.0373,6.0379,6.0366,6.0366,6.0394,6.0435,6.048,6.0506,6.0571,6.0565,6.061,6.0673,6.0692,6.0678,6.0553,6.0129,5.9681,5.9352,5.9165,5.8973,5.8761,6.6893,6.689,6.6888,6.6885,6.6883,6.6891,6.6891,6.6868,6.6863,6.6856,6.6825,6.6778,6.6745,6.6723,6.6689,6.6629,6.6637,6.6565,6.6495,6.6496,6.6334,6.6263,6.6211,6.6144,6.6091,6.6055,6.6027,6.5992,6.5968,6.5962,6.5962,6.597,6.5971,6.5983,6.5988,6.5956,6.5964,6.5959,6.5947,6.5928,6.5903,6.5891,6.5891,6.5904,6.5884,6.5884,6.5884,6.5884,6.5884,6.5884,6.5884,6.5884,6.5884,6.5884,6.5884,6.5884,6.5884,6.5884,6.5884,6.5884,6.5884,6.5884,6.5884,6.5884,6.5884,6.5884,6.5884,6.5846,6.5884,6.559,6.5128,6.4993,6.4737,6.4077,6.379,6.3764,6.3437,6.2829,6.2191,6.1865,6.1547,6.1109,6.0588,6.0269,6.0144,6.0163,6.0163,6.0237,6.0306,6.0207,6.0099,6.0095,6.0117,6.0129,6.0129,6.0144,6.0151,6.0154,6.0169,6.0184,6.0239,6.0251,6.0356,6.0439,6.0447,6.0487,6.0578,6.0559,6.0514,6.0557,6.0491,6.0201,5.9987,5.9762,5.955,6.6889,6.6882,6.6817,6.6812,6.6812,6.6855,6.6855,6.6791,6.679,6.6768,6.6684,6.6699,6.667,6.6605,6.6597,6.6543,6.6463,6.6415,6.6362,6.6305,6.6201,6.616,6.6096,6.603,6.6011,6.5995,6.5977,6.5933,6.5916,6.5916,6.591,6.5923,6.5903,6.591,6.591,6.591,6.591,6.5903,6.5903,6.5897,6.5884,6.5884,6.5884,6.5884,6.5884,6.5884,6.5884,6.5884,6.5884,6.5884,6.5884,6.5884,6.5884,6.5884,6.5884,6.5884,6.5884,6.5884,6.5884,6.5884,6.5884,6.5884,6.5884,6.5884,6.5884,6.5884,6.5884,6.5884,6.5884,6.5884,6.5763,6.5737,6.5673,6.5212,6.4821,6.4569,6.4264,6.3693,6.3009,6.2585,6.23,6.1812,6.1128,6.0694,6.0202,6.0072,6.0017,5.9798,5.9883,5.995,5.985,5.9806,5.9823,5.9869,5.9858,5.9839,5.982,5.9812,5.9839,5.9856,5.9923,5.996,6.003,6.0121,6.0213,6.0304,6.0372,6.0459,6.0514,6.0604,6.0655,6.064,6.0305,6.0448,6.0358,6.6808,6.6756,6.6732,6.6734,6.6726,6.6679,6.6695,6.6723,6.6689,6.6649,6.6629,6.6585,6.6526,6.6536,6.645,6.6384,6.6321,6.6239,6.6191,6.6139,6.6105,6.6057,6.6025,6.5977,6.5954,6.5941,6.591,6.591,6.591,6.5884,6.5884,6.5884,6.5884,6.5884,6.5884,6.5884,6.5884,6.5884,6.5884,6.5884,6.5884,6.5884,6.5884,6.5884,6.5884,6.5884,6.5884,6.5884,6.5884,6.5884,6.5884,6.5884,6.5884,6.5884,6.5884,6.5884,6.5884,6.5884,6.5884,6.5884,6.5884,6.5884,6.5884,6.5884,6.5884,6.5878,6.5878,6.5891,6.5885,6.5878,6.584,6.582,6.5801,6.5569,6.5233,6.5039,6.469,6.4226,6.3541,6.3102,6.2801,6.2164,6.1487,6.0885,6.0415,6.0171,5.9936,5.972,5.9493,5.9583,5.9571,5.9544,5.95,5.9509,5.9491,5.9444,5.9463,5.9482,5.9482,5.95,5.9543,5.9594,5.9679,5.9796,5.9906,6.0049,6.0193,6.0258,6.0275,6.0459,6.0526,6.061,6.0679,6.0722,6.0763,6.6725,6.6648,6.6676,6.6638,6.662,6.6513,6.6494,6.6557,6.6542,6.6539,6.647,6.6426,6.6392,6.6325,6.6253,6.6201,6.6167,6.6114,6.6069,6.6063,6.6096,6.5983,6.5954,6.598,6.5916,6.5904,6.5923,6.5891,6.5955,6.5923,6.5884,6.5884,6.5884,6.5923,6.5884,6.5884,6.5884,6.5884,6.5884,6.5904,6.5884,6.5884,6.5884,6.5884,6.5884,6.5884,6.5884,6.5884,6.5884,6.5884,6.5884,6.5884,6.5884,6.5884,6.5884,6.5884,6.5884,6.5884,6.5884,6.5884,6.5884,6.5878,6.5878,6.5885,6.5859,6.5859,6.5865,6.5859,6.5852,6.584,6.5787,6.5735,6.5701,6.5667,6.5516,6.5371,6.4988,6.459,6.4088,6.3587,6.3008,6.2351,6.1718,6.1118,6.0724,6.064,6.0414,6.0085,5.9679,5.9365,5.9319,5.9234,5.9187,5.9158,5.912,5.911,5.9101,5.9091,5.9062,5.9082,5.913,5.9234,5.9345,5.948,5.9611,5.973,5.9828,5.9917,5.9988,6.0159,6.0301,6.0379,6.0487,6.0654,6.0697,6.6654,6.657,6.6556,6.651,6.6458,6.6441,6.6449,6.6411,6.6687,6.6532,6.6342,6.6262,6.6284,6.6397,6.6397,6.6455,6.6587,6.6613,6.6649,6.6233,6.653,6.655,6.6461,6.6147,6.6551,6.6282,6.6244,6.6609,6.6282,6.6397,6.6513,6.609,6.6263,6.6436,6.6532,6.6494,6.6571,6.659,6.6474,6.6378,6.5974,6.5884,6.5884,6.5884,6.5884,6.5884,6.5884,6.5884,6.5884,6.5884,6.5884,6.5884,6.5884,6.5884,6.5884,6.5884,6.5884,6.5884,6.5884,6.5884,6.5884,6.5878,6.5897,6.5859,6.5846,6.5846,6.584,6.5768,6.5747,6.572,6.5648,6.553,6.5465,6.5398,6.5291,6.512,6.4839,6.4441,6.4066,6.3595,6.3179,6.2589,6.2349,6.178,6.1289,6.1187,6.0831,6.0435,6.0155,5.9614,5.9265,5.9129,5.8911,5.8859,5.8811,5.8791,5.8729,5.8698,5.8698,5.8719,5.8793,5.8914,5.9024,5.913,5.9206,5.9318,5.9426,5.9505,5.9626,5.9823,5.996,6.0076,6.0246,6.046,6.0635,6.6539,6.636,6.6314,6.6259,6.6297,6.6885,6.71,6.7139,6.781,6.7344,6.6348,6.6195,6.6485,6.6975,6.6962,6.7144,6.7652,6.7499,6.7783,6.768,6.7641,6.7449,6.7686,6.7475,6.7628,6.7802,6.7795,6.7609,6.7532,6.7603,6.7718,6.7725,6.7628,6.7532,6.7545,6.7552,6.7552,6.7475,6.7455,6.6936,6.6263,6.5981,6.5884,6.5884,6.5884,6.5884,6.5884,6.5884,6.5884,6.5884,6.5884,6.5884,6.5884,6.5884,6.5884,6.5884,6.5884,6.5884,6.5884,6.5878,6.5897,6.5878,6.5859,6.5826,6.5807,6.5813,6.578,6.5674,6.5599,6.5564,6.5465,6.5326,6.5182,6.5093,6.5012,6.4821,6.4632,6.4289,6.3918,6.3568,6.3221,6.2988,6.2764,6.2445,6.1983,6.1502,6.104,6.0714,6.0721,6.0348,5.9611,5.9321,5.8725,5.8579,5.8597,5.8494,5.8473,5.8462,5.8473,5.8473,5.848,5.8593,5.8721,5.871,5.8782,5.8915,5.9043,5.9092,5.9244,5.9445,5.9638,5.9763,5.9983,6.0196,6.0428,6.6359,6.6259,6.655,6.6896,6.7255,6.7709,6.7866,6.7933,6.8307,6.8005,6.7226,6.7137,6.7375,6.78,6.775,6.793,6.8482,6.8392,6.825,6.8321,6.8526,6.8302,6.8391,6.8507,6.8276,6.8372,6.8372,6.8314,6.8526,6.8353,6.8295,6.8468,6.8468,6.8468,6.8449,6.843,6.8468,6.8353,6.8468,6.7898,6.6898,6.6686,6.6211,6.6096,6.5917,6.5936,6.5884,6.5884,6.5884,6.5884,6.5884,6.5884,6.5884,6.5884,6.5884,6.5884,6.5884,6.5884,6.5884,6.5897,6.5885,6.5852,6.5826,6.5787,6.5576,6.5542,6.5479,6.5386,6.5333,6.5295,6.5101,6.4951,6.4839,6.4751,6.4651,6.4511,6.4219,6.3838,6.355,6.328,6.3041,6.2975,6.2805,6.272,6.2339,6.2333,6.1769,6.1344,6.1277,6.1201,6.0416,5.9753,5.9326,5.8943,5.8976,5.8637,5.8212,5.8219,5.8444,5.8319,5.839,5.8371,5.8389,5.8454,5.8519,5.8601,5.8698,5.8772,5.8864,5.9042,5.9253,5.9481,5.9715,5.9952,6.0196,6.6477,6.6519,6.717,6.7855,6.8543,6.8642,6.8655,6.8687,6.8751,6.8783,6.8745,6.879,6.8726,6.8584,6.8564,6.8641,6.8834,6.9167,6.8949,6.8911,6.893,6.9122,6.909,6.8898,6.9013,6.9033,6.9013,6.8987,6.9045,6.9026,6.9045,6.8776,6.8718,6.8757,6.8718,6.8757,6.8968,6.9071,6.9052,6.8795,6.8257,6.7744,6.7051,6.6494,6.6205,6.6224,6.6224,6.6224,6.6244,6.6211,6.6269,6.6038,6.5923,6.5884,6.5884,6.5884,6.5884,6.5884,6.5897,6.5885,6.5865,6.5833,6.578,6.5625,6.5417,6.524,6.5174,6.5057,6.5019,6.4943,6.475,6.4568,6.4463,6.4357,6.4258,6.4147,6.3811,6.3489,6.3247,6.3008,6.2978,6.2929,6.2861,6.2799,6.2787,6.2793,6.2646,6.231,6.2022,6.1887,6.1482,6.0906,6.0433,6.004,5.961,5.92,5.872,5.8855,5.9074,5.8614,5.8288,5.8296,5.8297,5.8286,5.8342,5.8448,5.8437,5.8468,5.8553,5.8849,5.8914,5.9178,5.9509,5.974,5.9986,6.7542,6.8063,6.8155,6.8315,6.8565,6.9168,6.9456,6.9584,7.0116,7.0417,7.0283,7.0328,7.0136,6.9449,6.9456,6.9629,7.0007,7.0129,7.0341,7.0456,7.0084,7.0244,7.0244,6.9917,7.0321,7.0264,7.0148,7.0341,6.9949,7.0129,7.036,7.0238,7.0295,7.0321,7.0341,7.0283,7.0148,7.011,7.0052,6.9937,6.9276,6.8757,6.8237,6.7949,6.791,6.793,6.7936,6.791,6.793,6.7744,6.7244,6.6667,6.6372,6.6192,6.6154,6.6058,6.6038,6.593,6.5936,6.582,6.5754,6.5714,6.5625,6.5425,6.5177,6.4945,6.4813,6.4567,6.4539,6.4539,6.4386,6.4159,6.4023,6.3918,6.3811,6.368,6.3462,6.3247,6.3044,6.2953,6.2904,6.2867,6.283,6.2793,6.2793,6.2811,6.2811,6.2511,6.2493,6.2462,6.2407,6.1955,6.141,6.0902,6.0363,6.0093,5.9764,5.9813,5.974,5.939,5.8924,5.8295,5.8267,5.8649,5.8483,5.8402,5.8363,5.8755,5.8751,5.9006,5.8797,5.8912,5.9309,5.9809,6.0308]}]]